<?xml version="1.0" encoding="UTF-8" standalone="no" ?>
<gpx xmlns="http://www.topografix.com/GPX/1/1" xmlns:xsi="http://www.w3.org/2001/XMLSchema-instance" xsi:schemaLocation="http://www.topografix.com/GPX/1/1 http://www.topografix.com/GPX/1/1/gpx.xsd" version="1.1" creator="VisuGPX - https://www.visugpx.com">
  <metadata>
    <name>Champagnat Cyclisme sur route</name>
  </metadata>
  <trk>
    <name><![CDATA[Champagnat Cyclisme sur route_1]]></name>
    <trkseg>
      <trkpt lat="46.48274" lon="5.36838">
        <ele>271.8</ele>
        <time>2022-07-11T12:15:25Z</time>
      </trkpt>
      <trkpt lat="46.48256" lon="5.36815">
        <ele>270.6</ele>
        <time>2022-07-11T12:15:27Z</time>
      </trkpt>
      <trkpt lat="46.48245" lon="5.36805">
        <ele>269.6</ele>
        <time>2022-07-11T12:15:28Z</time>
      </trkpt>
      <trkpt lat="46.48223" lon="5.36786">
        <ele>268.2</ele>
        <time>2022-07-11T12:15:30Z</time>
      </trkpt>
      <trkpt lat="46.48201" lon="5.36769">
        <ele>266.4</ele>
        <time>2022-07-11T12:15:32Z</time>
      </trkpt>
      <trkpt lat="46.48191" lon="5.3676">
        <ele>265.2</ele>
        <time>2022-07-11T12:15:33Z</time>
      </trkpt>
      <trkpt lat="46.4818" lon="5.3675">
        <ele>264.8</ele>
        <time>2022-07-11T12:15:34Z</time>
      </trkpt>
      <trkpt lat="46.48169" lon="5.36741">
        <ele>264.2</ele>
        <time>2022-07-11T12:15:35Z</time>
      </trkpt>
      <trkpt lat="46.48147" lon="5.36724">
        <ele>263.2</ele>
        <time>2022-07-11T12:15:37Z</time>
      </trkpt>
      <trkpt lat="46.48137" lon="5.36717">
        <ele>263</ele>
        <time>2022-07-11T12:15:38Z</time>
      </trkpt>
      <trkpt lat="46.4812" lon="5.36705">
        <ele>261.8</ele>
        <time>2022-07-11T12:15:40Z</time>
      </trkpt>
      <trkpt lat="46.48114" lon="5.36698">
        <ele>261</ele>
        <time>2022-07-11T12:15:41Z</time>
      </trkpt>
      <trkpt lat="46.48111" lon="5.3669">
        <ele>260</ele>
        <time>2022-07-11T12:15:42Z</time>
      </trkpt>
      <trkpt lat="46.48113" lon="5.36682">
        <ele>259.4</ele>
        <time>2022-07-11T12:15:43Z</time>
      </trkpt>
      <trkpt lat="46.48117" lon="5.36674">
        <ele>258.2</ele>
        <time>2022-07-11T12:15:44Z</time>
      </trkpt>
      <trkpt lat="46.48123" lon="5.36667">
        <ele>257.6</ele>
        <time>2022-07-11T12:15:45Z</time>
      </trkpt>
      <trkpt lat="46.48129" lon="5.3666">
        <ele>256.6</ele>
        <time>2022-07-11T12:15:46Z</time>
      </trkpt>
      <trkpt lat="46.48142" lon="5.36646">
        <ele>255.8</ele>
        <time>2022-07-11T12:15:48Z</time>
      </trkpt>
      <trkpt lat="46.48148" lon="5.36637">
        <ele>255.2</ele>
        <time>2022-07-11T12:15:49Z</time>
      </trkpt>
      <trkpt lat="46.48154" lon="5.36629">
        <ele>255</ele>
        <time>2022-07-11T12:15:50Z</time>
      </trkpt>
      <trkpt lat="46.4816" lon="5.36622">
        <ele>254.8</ele>
        <time>2022-07-11T12:15:51Z</time>
      </trkpt>
      <trkpt lat="46.48174" lon="5.36612">
        <ele>254.6</ele>
        <time>2022-07-11T12:15:53Z</time>
      </trkpt>
      <trkpt lat="46.4819" lon="5.36602">
        <ele>254.4</ele>
        <time>2022-07-11T12:15:55Z</time>
      </trkpt>
      <trkpt lat="46.48206" lon="5.36598">
        <ele>254.2</ele>
        <time>2022-07-11T12:15:57Z</time>
      </trkpt>
      <trkpt lat="46.48213" lon="5.36593">
        <ele>254</ele>
        <time>2022-07-11T12:15:58Z</time>
      </trkpt>
      <trkpt lat="46.48218" lon="5.36586">
        <ele>254</ele>
        <time>2022-07-11T12:15:59Z</time>
      </trkpt>
      <trkpt lat="46.48224" lon="5.36567">
        <ele>253.8</ele>
        <time>2022-07-11T12:16:01Z</time>
      </trkpt>
      <trkpt lat="46.48228" lon="5.36558">
        <ele>253.8</ele>
        <time>2022-07-11T12:16:02Z</time>
      </trkpt>
      <trkpt lat="46.48233" lon="5.3655">
        <ele>253.4</ele>
        <time>2022-07-11T12:16:03Z</time>
      </trkpt>
      <trkpt lat="46.48253" lon="5.3653">
        <ele>253.2</ele>
        <time>2022-07-11T12:16:06Z</time>
      </trkpt>
      <trkpt lat="46.48259" lon="5.36523">
        <ele>253</ele>
        <time>2022-07-11T12:16:07Z</time>
      </trkpt>
      <trkpt lat="46.48292" lon="5.36488">
        <ele>251.8</ele>
        <time>2022-07-11T12:16:12Z</time>
      </trkpt>
      <trkpt lat="46.48305" lon="5.36474">
        <ele>251.4</ele>
        <time>2022-07-11T12:16:14Z</time>
      </trkpt>
      <trkpt lat="46.48311" lon="5.36467">
        <ele>251.2</ele>
        <time>2022-07-11T12:16:15Z</time>
      </trkpt>
      <trkpt lat="46.48337" lon="5.36438">
        <ele>250.8</ele>
        <time>2022-07-11T12:16:19Z</time>
      </trkpt>
      <trkpt lat="46.48357" lon="5.36416">
        <ele>250.2</ele>
        <time>2022-07-11T12:16:22Z</time>
      </trkpt>
      <trkpt lat="46.48378" lon="5.36394">
        <ele>249.8</ele>
        <time>2022-07-11T12:16:25Z</time>
      </trkpt>
      <trkpt lat="46.48404" lon="5.36367">
        <ele>248.6</ele>
        <time>2022-07-11T12:16:29Z</time>
      </trkpt>
      <trkpt lat="46.48411" lon="5.36361">
        <ele>248.4</ele>
        <time>2022-07-11T12:16:30Z</time>
      </trkpt>
      <trkpt lat="46.48419" lon="5.36357">
        <ele>248</ele>
        <time>2022-07-11T12:16:31Z</time>
      </trkpt>
      <trkpt lat="46.48434" lon="5.36351">
        <ele>247.6</ele>
        <time>2022-07-11T12:16:33Z</time>
      </trkpt>
      <trkpt lat="46.48456" lon="5.36346">
        <ele>247.4</ele>
        <time>2022-07-11T12:16:36Z</time>
      </trkpt>
      <trkpt lat="46.48506" lon="5.36338">
        <ele>247</ele>
        <time>2022-07-11T12:16:43Z</time>
      </trkpt>
      <trkpt lat="46.48529" lon="5.36334">
        <ele>247</ele>
        <time>2022-07-11T12:16:46Z</time>
      </trkpt>
      <trkpt lat="46.48588" lon="5.36325">
        <ele>246.4</ele>
        <time>2022-07-11T12:16:54Z</time>
      </trkpt>
      <trkpt lat="46.48609" lon="5.36321">
        <ele>246.2</ele>
        <time>2022-07-11T12:16:57Z</time>
      </trkpt>
      <trkpt lat="46.48624" lon="5.36311">
        <ele>245.6</ele>
        <time>2022-07-11T12:16:59Z</time>
      </trkpt>
      <trkpt lat="46.4863" lon="5.36299">
        <ele>245.4</ele>
        <time>2022-07-11T12:17:00Z</time>
      </trkpt>
      <trkpt lat="46.48632" lon="5.36289">
        <ele>245.2</ele>
        <time>2022-07-11T12:17:01Z</time>
      </trkpt>
      <trkpt lat="46.48639" lon="5.36251">
        <ele>244</ele>
        <time>2022-07-11T12:17:04Z</time>
      </trkpt>
      <trkpt lat="46.48642" lon="5.36222">
        <ele>243</ele>
        <time>2022-07-11T12:17:06Z</time>
      </trkpt>
      <trkpt lat="46.48644" lon="5.36185">
        <ele>241.8</ele>
        <time>2022-07-11T12:17:09Z</time>
      </trkpt>
      <trkpt lat="46.48645" lon="5.36169">
        <ele>241.6</ele>
        <time>2022-07-11T12:17:10Z</time>
      </trkpt>
      <trkpt lat="46.48653" lon="5.36119">
        <ele>240.8</ele>
        <time>2022-07-11T12:17:14Z</time>
      </trkpt>
      <trkpt lat="46.48658" lon="5.36095">
        <ele>240.4</ele>
        <time>2022-07-11T12:17:16Z</time>
      </trkpt>
      <trkpt lat="46.48671" lon="5.36031">
        <ele>240.2</ele>
        <time>2022-07-11T12:17:22Z</time>
      </trkpt>
      <trkpt lat="46.48675" lon="5.36014">
        <ele>240.2</ele>
        <time>2022-07-11T12:17:24Z</time>
      </trkpt>
      <trkpt lat="46.48677" lon="5.35998">
        <ele>240.6</ele>
        <time>2022-07-11T12:17:26Z</time>
      </trkpt>
      <trkpt lat="46.48678" lon="5.3599">
        <ele>240.8</ele>
        <time>2022-07-11T12:17:27Z</time>
      </trkpt>
      <trkpt lat="46.48679" lon="5.35971">
        <ele>241.2</ele>
        <time>2022-07-11T12:17:29Z</time>
      </trkpt>
      <trkpt lat="46.48682" lon="5.3595">
        <ele>241.4</ele>
        <time>2022-07-11T12:17:31Z</time>
      </trkpt>
      <trkpt lat="46.48687" lon="5.35919">
        <ele>241.6</ele>
        <time>2022-07-11T12:17:34Z</time>
      </trkpt>
      <trkpt lat="46.48705" lon="5.3587">
        <ele>241.8</ele>
        <time>2022-07-11T12:17:39Z</time>
      </trkpt>
      <trkpt lat="46.48736" lon="5.35794">
        <ele>240.6</ele>
        <time>2022-07-11T12:17:47Z</time>
      </trkpt>
      <trkpt lat="46.4874" lon="5.35785">
        <ele>240.4</ele>
        <time>2022-07-11T12:17:48Z</time>
      </trkpt>
      <trkpt lat="46.48747" lon="5.35767">
        <ele>239.8</ele>
        <time>2022-07-11T12:17:50Z</time>
      </trkpt>
      <trkpt lat="46.48768" lon="5.35723">
        <ele>238.8</ele>
        <time>2022-07-11T12:17:55Z</time>
      </trkpt>
      <trkpt lat="46.48776" lon="5.35705">
        <ele>238.6</ele>
        <time>2022-07-11T12:17:57Z</time>
      </trkpt>
      <trkpt lat="46.48796" lon="5.35662">
        <ele>238.4</ele>
        <time>2022-07-11T12:18:02Z</time>
      </trkpt>
      <trkpt lat="46.48818" lon="5.35612">
        <ele>238.4</ele>
        <time>2022-07-11T12:18:08Z</time>
      </trkpt>
      <trkpt lat="46.48839" lon="5.35563">
        <ele>239</ele>
        <time>2022-07-11T12:18:14Z</time>
      </trkpt>
      <trkpt lat="46.48871" lon="5.35489">
        <ele>239.6</ele>
        <time>2022-07-11T12:18:23Z</time>
      </trkpt>
      <trkpt lat="46.48874" lon="5.35481">
        <ele>239.8</ele>
        <time>2022-07-11T12:18:24Z</time>
      </trkpt>
      <trkpt lat="46.48877" lon="5.35473">
        <ele>239.6</ele>
        <time>2022-07-11T12:18:25Z</time>
      </trkpt>
      <trkpt lat="46.48888" lon="5.35448">
        <ele>239.4</ele>
        <time>2022-07-11T12:18:28Z</time>
      </trkpt>
      <trkpt lat="46.48915" lon="5.35388">
        <ele>239</ele>
        <time>2022-07-11T12:18:35Z</time>
      </trkpt>
      <trkpt lat="46.48946" lon="5.35317">
        <ele>238.6</ele>
        <time>2022-07-11T12:18:43Z</time>
      </trkpt>
      <trkpt lat="46.4895" lon="5.35308">
        <ele>238.4</ele>
        <time>2022-07-11T12:18:44Z</time>
      </trkpt>
      <trkpt lat="46.48975" lon="5.35252">
        <ele>238.2</ele>
        <time>2022-07-11T12:18:51Z</time>
      </trkpt>
      <trkpt lat="46.49001" lon="5.35194">
        <ele>238.4</ele>
        <time>2022-07-11T12:18:59Z</time>
      </trkpt>
      <trkpt lat="46.49021" lon="5.35147">
        <ele>239.8</ele>
        <time>2022-07-11T12:19:06Z</time>
      </trkpt>
      <trkpt lat="46.49038" lon="5.35114">
        <ele>240.2</ele>
        <time>2022-07-11T12:19:11Z</time>
      </trkpt>
      <trkpt lat="46.49042" lon="5.35108">
        <ele>240.2</ele>
        <time>2022-07-11T12:19:12Z</time>
      </trkpt>
      <trkpt lat="46.49047" lon="5.35103">
        <ele>240.2</ele>
        <time>2022-07-11T12:19:13Z</time>
      </trkpt>
      <trkpt lat="46.49069" lon="5.35085">
        <ele>240.2</ele>
        <time>2022-07-11T12:19:17Z</time>
      </trkpt>
      <trkpt lat="46.49074" lon="5.35081">
        <ele>240.2</ele>
        <time>2022-07-11T12:19:18Z</time>
      </trkpt>
      <trkpt lat="46.49116" lon="5.35047">
        <ele>240</ele>
        <time>2022-07-11T12:19:25Z</time>
      </trkpt>
      <trkpt lat="46.49128" lon="5.35036">
        <ele>239.8</ele>
        <time>2022-07-11T12:19:27Z</time>
      </trkpt>
      <trkpt lat="46.4914" lon="5.35024">
        <ele>239.4</ele>
        <time>2022-07-11T12:19:29Z</time>
      </trkpt>
      <trkpt lat="46.49159" lon="5.35008">
        <ele>239</ele>
        <time>2022-07-11T12:19:32Z</time>
      </trkpt>
      <trkpt lat="46.49171" lon="5.34997">
        <ele>238.8</ele>
        <time>2022-07-11T12:19:34Z</time>
      </trkpt>
      <trkpt lat="46.49182" lon="5.34986">
        <ele>238.6</ele>
        <time>2022-07-11T12:19:36Z</time>
      </trkpt>
      <trkpt lat="46.49198" lon="5.34965">
        <ele>238.6</ele>
        <time>2022-07-11T12:19:39Z</time>
      </trkpt>
      <trkpt lat="46.49222" lon="5.34926">
        <ele>238.4</ele>
        <time>2022-07-11T12:19:44Z</time>
      </trkpt>
      <trkpt lat="46.4924" lon="5.349">
        <ele>238</ele>
        <time>2022-07-11T12:19:48Z</time>
      </trkpt>
      <trkpt lat="46.4925" lon="5.34889">
        <ele>238.2</ele>
        <time>2022-07-11T12:19:50Z</time>
      </trkpt>
      <trkpt lat="46.49268" lon="5.34862">
        <ele>238</ele>
        <time>2022-07-11T12:19:54Z</time>
      </trkpt>
      <trkpt lat="46.49273" lon="5.34857">
        <ele>238</ele>
        <time>2022-07-11T12:19:55Z</time>
      </trkpt>
      <trkpt lat="46.49279" lon="5.34852">
        <ele>238</ele>
        <time>2022-07-11T12:19:56Z</time>
      </trkpt>
      <trkpt lat="46.49291" lon="5.34843">
        <ele>238</ele>
        <time>2022-07-11T12:19:58Z</time>
      </trkpt>
      <trkpt lat="46.49304" lon="5.34838">
        <ele>238</ele>
        <time>2022-07-11T12:20:00Z</time>
      </trkpt>
      <trkpt lat="46.49344" lon="5.34829">
        <ele>238</ele>
        <time>2022-07-11T12:20:06Z</time>
      </trkpt>
      <trkpt lat="46.49389" lon="5.3482">
        <ele>237.8</ele>
        <time>2022-07-11T12:20:13Z</time>
      </trkpt>
      <trkpt lat="46.494" lon="5.34813">
        <ele>237.8</ele>
        <time>2022-07-11T12:20:15Z</time>
      </trkpt>
      <trkpt lat="46.49418" lon="5.34801">
        <ele>237.6</ele>
        <time>2022-07-11T12:20:18Z</time>
      </trkpt>
      <trkpt lat="46.49422" lon="5.34797">
        <ele>237.8</ele>
        <time>2022-07-11T12:20:19Z</time>
      </trkpt>
      <trkpt lat="46.49448" lon="5.3477">
        <ele>237.2</ele>
        <time>2022-07-11T12:20:24Z</time>
      </trkpt>
      <trkpt lat="46.49454" lon="5.34764">
        <ele>237</ele>
        <time>2022-07-11T12:20:25Z</time>
      </trkpt>
      <trkpt lat="46.49471" lon="5.34741">
        <ele>236.4</ele>
        <time>2022-07-11T12:20:28Z</time>
      </trkpt>
      <trkpt lat="46.49485" lon="5.34725">
        <ele>236</ele>
        <time>2022-07-11T12:20:30Z</time>
      </trkpt>
      <trkpt lat="46.49508" lon="5.34699">
        <ele>235.4</ele>
        <time>2022-07-11T12:20:33Z</time>
      </trkpt>
      <trkpt lat="46.49523" lon="5.34681">
        <ele>234.2</ele>
        <time>2022-07-11T12:20:35Z</time>
      </trkpt>
      <trkpt lat="46.49538" lon="5.34662">
        <ele>232.6</ele>
        <time>2022-07-11T12:20:37Z</time>
      </trkpt>
      <trkpt lat="46.49553" lon="5.34644">
        <ele>231.4</ele>
        <time>2022-07-11T12:20:39Z</time>
      </trkpt>
      <trkpt lat="46.49576" lon="5.34616">
        <ele>230.4</ele>
        <time>2022-07-11T12:20:42Z</time>
      </trkpt>
      <trkpt lat="46.49583" lon="5.34607">
        <ele>230.4</ele>
        <time>2022-07-11T12:20:43Z</time>
      </trkpt>
      <trkpt lat="46.49596" lon="5.34586">
        <ele>229</ele>
        <time>2022-07-11T12:20:45Z</time>
      </trkpt>
      <trkpt lat="46.49608" lon="5.34568">
        <ele>228</ele>
        <time>2022-07-11T12:20:47Z</time>
      </trkpt>
      <trkpt lat="46.49614" lon="5.3456">
        <ele>227.8</ele>
        <time>2022-07-11T12:20:48Z</time>
      </trkpt>
      <trkpt lat="46.49626" lon="5.34547">
        <ele>227.4</ele>
        <time>2022-07-11T12:20:50Z</time>
      </trkpt>
      <trkpt lat="46.49635" lon="5.34538">
        <ele>226.8</ele>
        <time>2022-07-11T12:20:52Z</time>
      </trkpt>
      <trkpt lat="46.49637" lon="5.34536">
        <ele>226.8</ele>
        <time>2022-07-11T12:20:53Z</time>
      </trkpt>
      <trkpt lat="46.49639" lon="5.34534">
        <ele>226.6</ele>
        <time>2022-07-11T12:20:54Z</time>
      </trkpt>
      <trkpt lat="46.49639" lon="5.34534">
        <ele>226.6</ele>
        <time>2022-07-11T12:20:55Z</time>
      </trkpt>
      <trkpt lat="46.49639" lon="5.34534">
        <ele>226.4</ele>
        <time>2022-07-11T12:20:57Z</time>
      </trkpt>
      <trkpt lat="46.49644" lon="5.34531">
        <ele>226.2</ele>
        <time>2022-07-11T12:21:01Z</time>
      </trkpt>
      <trkpt lat="46.49647" lon="5.34521">
        <ele>226.2</ele>
        <time>2022-07-11T12:21:03Z</time>
      </trkpt>
      <trkpt lat="46.49657" lon="5.34492">
        <ele>226</ele>
        <time>2022-07-11T12:21:08Z</time>
      </trkpt>
      <trkpt lat="46.49667" lon="5.34463">
        <ele>226.2</ele>
        <time>2022-07-11T12:21:12Z</time>
      </trkpt>
      <trkpt lat="46.49671" lon="5.34449">
        <ele>226.2</ele>
        <time>2022-07-11T12:21:14Z</time>
      </trkpt>
      <trkpt lat="46.49685" lon="5.344">
        <ele>227.2</ele>
        <time>2022-07-11T12:21:21Z</time>
      </trkpt>
      <trkpt lat="46.49688" lon="5.34386">
        <ele>227.4</ele>
        <time>2022-07-11T12:21:23Z</time>
      </trkpt>
      <trkpt lat="46.49692" lon="5.34372">
        <ele>227.6</ele>
        <time>2022-07-11T12:21:25Z</time>
      </trkpt>
      <trkpt lat="46.49694" lon="5.34365">
        <ele>228</ele>
        <time>2022-07-11T12:21:26Z</time>
      </trkpt>
      <trkpt lat="46.49697" lon="5.34359">
        <ele>228.2</ele>
        <time>2022-07-11T12:21:27Z</time>
      </trkpt>
      <trkpt lat="46.497" lon="5.34345">
        <ele>228.8</ele>
        <time>2022-07-11T12:21:29Z</time>
      </trkpt>
      <trkpt lat="46.49704" lon="5.3433">
        <ele>229.2</ele>
        <time>2022-07-11T12:21:31Z</time>
      </trkpt>
      <trkpt lat="46.49706" lon="5.34324">
        <ele>229.4</ele>
        <time>2022-07-11T12:21:32Z</time>
      </trkpt>
      <trkpt lat="46.49711" lon="5.34311">
        <ele>230</ele>
        <time>2022-07-11T12:21:34Z</time>
      </trkpt>
      <trkpt lat="46.49725" lon="5.34283">
        <ele>230.2</ele>
        <time>2022-07-11T12:21:38Z</time>
      </trkpt>
      <trkpt lat="46.4975" lon="5.34242">
        <ele>230.6</ele>
        <time>2022-07-11T12:21:44Z</time>
      </trkpt>
      <trkpt lat="46.49771" lon="5.34209">
        <ele>230.6</ele>
        <time>2022-07-11T12:21:49Z</time>
      </trkpt>
      <trkpt lat="46.4978" lon="5.34197">
        <ele>230.6</ele>
        <time>2022-07-11T12:21:51Z</time>
      </trkpt>
      <trkpt lat="46.49814" lon="5.34138">
        <ele>231</ele>
        <time>2022-07-11T12:22:00Z</time>
      </trkpt>
      <trkpt lat="46.49835" lon="5.34105">
        <ele>231.2</ele>
        <time>2022-07-11T12:22:05Z</time>
      </trkpt>
      <trkpt lat="46.49844" lon="5.34092">
        <ele>231.4</ele>
        <time>2022-07-11T12:22:07Z</time>
      </trkpt>
      <trkpt lat="46.49864" lon="5.34064">
        <ele>231.6</ele>
        <time>2022-07-11T12:22:11Z</time>
      </trkpt>
      <trkpt lat="46.49869" lon="5.34057">
        <ele>231.6</ele>
        <time>2022-07-11T12:22:12Z</time>
      </trkpt>
      <trkpt lat="46.49889" lon="5.34033">
        <ele>231.6</ele>
        <time>2022-07-11T12:22:16Z</time>
      </trkpt>
      <trkpt lat="46.49922" lon="5.33996">
        <ele>231.6</ele>
        <time>2022-07-11T12:22:23Z</time>
      </trkpt>
      <trkpt lat="46.49947" lon="5.33965">
        <ele>232.2</ele>
        <time>2022-07-11T12:22:29Z</time>
      </trkpt>
      <trkpt lat="46.49951" lon="5.33959">
        <ele>232.4</ele>
        <time>2022-07-11T12:22:30Z</time>
      </trkpt>
      <trkpt lat="46.49974" lon="5.33935">
        <ele>233.4</ele>
        <time>2022-07-11T12:22:35Z</time>
      </trkpt>
      <trkpt lat="46.4998" lon="5.33929">
        <ele>233.6</ele>
        <time>2022-07-11T12:22:36Z</time>
      </trkpt>
      <trkpt lat="46.50006" lon="5.33901">
        <ele>234</ele>
        <time>2022-07-11T12:22:41Z</time>
      </trkpt>
      <trkpt lat="46.50031" lon="5.33871">
        <ele>234.2</ele>
        <time>2022-07-11T12:22:46Z</time>
      </trkpt>
      <trkpt lat="46.50043" lon="5.3386">
        <ele>234</ele>
        <time>2022-07-11T12:22:48Z</time>
      </trkpt>
      <trkpt lat="46.5008" lon="5.33819">
        <ele>233.4</ele>
        <time>2022-07-11T12:22:54Z</time>
      </trkpt>
      <trkpt lat="46.50106" lon="5.33792">
        <ele>232.6</ele>
        <time>2022-07-11T12:22:58Z</time>
      </trkpt>
      <trkpt lat="46.50118" lon="5.33779">
        <ele>232.2</ele>
        <time>2022-07-11T12:23:00Z</time>
      </trkpt>
      <trkpt lat="46.50168" lon="5.3373">
        <ele>232</ele>
        <time>2022-07-11T12:23:08Z</time>
      </trkpt>
      <trkpt lat="46.50173" lon="5.33724">
        <ele>232</ele>
        <time>2022-07-11T12:23:09Z</time>
      </trkpt>
      <trkpt lat="46.5019" lon="5.33708">
        <ele>232.2</ele>
        <time>2022-07-11T12:23:12Z</time>
      </trkpt>
      <trkpt lat="46.50203" lon="5.33698">
        <ele>232.4</ele>
        <time>2022-07-11T12:23:14Z</time>
      </trkpt>
      <trkpt lat="46.50209" lon="5.33692">
        <ele>232.6</ele>
        <time>2022-07-11T12:23:15Z</time>
      </trkpt>
      <trkpt lat="46.50232" lon="5.33669">
        <ele>232.8</ele>
        <time>2022-07-11T12:23:19Z</time>
      </trkpt>
      <trkpt lat="46.50275" lon="5.33619">
        <ele>232</ele>
        <time>2022-07-11T12:23:27Z</time>
      </trkpt>
      <trkpt lat="46.50313" lon="5.33575">
        <ele>231.6</ele>
        <time>2022-07-11T12:23:34Z</time>
      </trkpt>
      <trkpt lat="46.50331" lon="5.33557">
        <ele>231.2</ele>
        <time>2022-07-11T12:23:37Z</time>
      </trkpt>
      <trkpt lat="46.50355" lon="5.33532">
        <ele>230.8</ele>
        <time>2022-07-11T12:23:41Z</time>
      </trkpt>
      <trkpt lat="46.50393" lon="5.33485">
        <ele>230.2</ele>
        <time>2022-07-11T12:23:48Z</time>
      </trkpt>
      <trkpt lat="46.504" lon="5.33479">
        <ele>230</ele>
        <time>2022-07-11T12:23:49Z</time>
      </trkpt>
      <trkpt lat="46.50444" lon="5.33419">
        <ele>229.2</ele>
        <time>2022-07-11T12:23:57Z</time>
      </trkpt>
      <trkpt lat="46.50449" lon="5.33411">
        <ele>229</ele>
        <time>2022-07-11T12:23:58Z</time>
      </trkpt>
      <trkpt lat="46.50453" lon="5.33402">
        <ele>229</ele>
        <time>2022-07-11T12:23:59Z</time>
      </trkpt>
      <trkpt lat="46.50459" lon="5.33383">
        <ele>228.6</ele>
        <time>2022-07-11T12:24:01Z</time>
      </trkpt>
      <trkpt lat="46.50461" lon="5.33372">
        <ele>228.4</ele>
        <time>2022-07-11T12:24:02Z</time>
      </trkpt>
      <trkpt lat="46.50465" lon="5.33329">
        <ele>228.2</ele>
        <time>2022-07-11T12:24:06Z</time>
      </trkpt>
      <trkpt lat="46.50467" lon="5.33322">
        <ele>228.2</ele>
        <time>2022-07-11T12:24:07Z</time>
      </trkpt>
      <trkpt lat="46.50468" lon="5.33308">
        <ele>228.2</ele>
        <time>2022-07-11T12:24:09Z</time>
      </trkpt>
      <trkpt lat="46.5047" lon="5.33281">
        <ele>228.2</ele>
        <time>2022-07-11T12:24:12Z</time>
      </trkpt>
      <trkpt lat="46.5047" lon="5.33272">
        <ele>228</ele>
        <time>2022-07-11T12:24:13Z</time>
      </trkpt>
      <trkpt lat="46.50471" lon="5.33237">
        <ele>228.2</ele>
        <time>2022-07-11T12:24:17Z</time>
      </trkpt>
      <trkpt lat="46.50471" lon="5.33219">
        <ele>228.2</ele>
        <time>2022-07-11T12:24:19Z</time>
      </trkpt>
      <trkpt lat="46.50471" lon="5.33208">
        <ele>228.4</ele>
        <time>2022-07-11T12:24:20Z</time>
      </trkpt>
      <trkpt lat="46.50471" lon="5.33174">
        <ele>228.6</ele>
        <time>2022-07-11T12:24:23Z</time>
      </trkpt>
      <trkpt lat="46.50471" lon="5.33161">
        <ele>228.6</ele>
        <time>2022-07-11T12:24:24Z</time>
      </trkpt>
      <trkpt lat="46.5047" lon="5.33147">
        <ele>228.8</ele>
        <time>2022-07-11T12:24:25Z</time>
      </trkpt>
      <trkpt lat="46.5047" lon="5.3312">
        <ele>228.6</ele>
        <time>2022-07-11T12:24:27Z</time>
      </trkpt>
      <trkpt lat="46.5047" lon="5.33105">
        <ele>228.6</ele>
        <time>2022-07-11T12:24:28Z</time>
      </trkpt>
      <trkpt lat="46.50471" lon="5.33067">
        <ele>228.2</ele>
        <time>2022-07-11T12:24:31Z</time>
      </trkpt>
      <trkpt lat="46.50472" lon="5.33042">
        <ele>227.4</ele>
        <time>2022-07-11T12:24:33Z</time>
      </trkpt>
      <trkpt lat="46.50471" lon="5.33014">
        <ele>226.6</ele>
        <time>2022-07-11T12:24:35Z</time>
      </trkpt>
      <trkpt lat="46.50471" lon="5.32999">
        <ele>225.8</ele>
        <time>2022-07-11T12:24:36Z</time>
      </trkpt>
      <trkpt lat="46.50471" lon="5.32985">
        <ele>225.4</ele>
        <time>2022-07-11T12:24:37Z</time>
      </trkpt>
      <trkpt lat="46.50472" lon="5.32928">
        <ele>224.2</ele>
        <time>2022-07-11T12:24:41Z</time>
      </trkpt>
      <trkpt lat="46.50472" lon="5.32898">
        <ele>222.6</ele>
        <time>2022-07-11T12:24:43Z</time>
      </trkpt>
      <trkpt lat="46.50473" lon="5.32869">
        <ele>222</ele>
        <time>2022-07-11T12:24:45Z</time>
      </trkpt>
      <trkpt lat="46.50473" lon="5.32838">
        <ele>221.6</ele>
        <time>2022-07-11T12:24:47Z</time>
      </trkpt>
      <trkpt lat="46.50473" lon="5.32806">
        <ele>220.2</ele>
        <time>2022-07-11T12:24:49Z</time>
      </trkpt>
      <trkpt lat="46.50474" lon="5.32791">
        <ele>219.4</ele>
        <time>2022-07-11T12:24:50Z</time>
      </trkpt>
      <trkpt lat="46.50474" lon="5.32761">
        <ele>218.4</ele>
        <time>2022-07-11T12:24:52Z</time>
      </trkpt>
      <trkpt lat="46.50474" lon="5.32732">
        <ele>217.8</ele>
        <time>2022-07-11T12:24:54Z</time>
      </trkpt>
      <trkpt lat="46.50475" lon="5.32689">
        <ele>217.2</ele>
        <time>2022-07-11T12:24:57Z</time>
      </trkpt>
      <trkpt lat="46.50476" lon="5.32618">
        <ele>216.6</ele>
        <time>2022-07-11T12:25:02Z</time>
      </trkpt>
      <trkpt lat="46.50473" lon="5.32543">
        <ele>216</ele>
        <time>2022-07-11T12:25:08Z</time>
      </trkpt>
      <trkpt lat="46.50472" lon="5.32528">
        <ele>216</ele>
        <time>2022-07-11T12:25:09Z</time>
      </trkpt>
      <trkpt lat="46.5047" lon="5.3248">
        <ele>214.8</ele>
        <time>2022-07-11T12:25:13Z</time>
      </trkpt>
      <trkpt lat="46.50464" lon="5.32429">
        <ele>214.2</ele>
        <time>2022-07-11T12:25:17Z</time>
      </trkpt>
      <trkpt lat="46.50455" lon="5.32382">
        <ele>213.8</ele>
        <time>2022-07-11T12:25:21Z</time>
      </trkpt>
      <trkpt lat="46.50447" lon="5.32349">
        <ele>213.2</ele>
        <time>2022-07-11T12:25:24Z</time>
      </trkpt>
      <trkpt lat="46.50434" lon="5.32276">
        <ele>213</ele>
        <time>2022-07-11T12:25:31Z</time>
      </trkpt>
      <trkpt lat="46.5043" lon="5.32218">
        <ele>212.6</ele>
        <time>2022-07-11T12:25:36Z</time>
      </trkpt>
      <trkpt lat="46.50431" lon="5.32208">
        <ele>212.6</ele>
        <time>2022-07-11T12:25:37Z</time>
      </trkpt>
      <trkpt lat="46.50439" lon="5.32192">
        <ele>212.4</ele>
        <time>2022-07-11T12:25:39Z</time>
      </trkpt>
      <trkpt lat="46.50444" lon="5.32187">
        <ele>212.4</ele>
        <time>2022-07-11T12:25:40Z</time>
      </trkpt>
      <trkpt lat="46.50456" lon="5.32175">
        <ele>212.4</ele>
        <time>2022-07-11T12:25:42Z</time>
      </trkpt>
      <trkpt lat="46.5046" lon="5.32168">
        <ele>212.4</ele>
        <time>2022-07-11T12:25:43Z</time>
      </trkpt>
      <trkpt lat="46.50466" lon="5.32152">
        <ele>212.8</ele>
        <time>2022-07-11T12:25:45Z</time>
      </trkpt>
      <trkpt lat="46.50472" lon="5.32131">
        <ele>212.8</ele>
        <time>2022-07-11T12:25:47Z</time>
      </trkpt>
      <trkpt lat="46.50492" lon="5.32079">
        <ele>212.8</ele>
        <time>2022-07-11T12:25:53Z</time>
      </trkpt>
      <trkpt lat="46.50523" lon="5.32025">
        <ele>213</ele>
        <time>2022-07-11T12:26:00Z</time>
      </trkpt>
      <trkpt lat="46.50549" lon="5.31986">
        <ele>213</ele>
        <time>2022-07-11T12:26:06Z</time>
      </trkpt>
      <trkpt lat="46.50552" lon="5.3198">
        <ele>213</ele>
        <time>2022-07-11T12:26:07Z</time>
      </trkpt>
      <trkpt lat="46.50557" lon="5.31966">
        <ele>213.4</ele>
        <time>2022-07-11T12:26:09Z</time>
      </trkpt>
      <trkpt lat="46.50566" lon="5.3194">
        <ele>214</ele>
        <time>2022-07-11T12:26:13Z</time>
      </trkpt>
      <trkpt lat="46.50579" lon="5.31904">
        <ele>215</ele>
        <time>2022-07-11T12:26:19Z</time>
      </trkpt>
      <trkpt lat="46.50584" lon="5.31894">
        <ele>215.6</ele>
        <time>2022-07-11T12:26:21Z</time>
      </trkpt>
      <trkpt lat="46.50586" lon="5.31888">
        <ele>215.8</ele>
        <time>2022-07-11T12:26:22Z</time>
      </trkpt>
      <trkpt lat="46.50589" lon="5.31883">
        <ele>216.2</ele>
        <time>2022-07-11T12:26:23Z</time>
      </trkpt>
      <trkpt lat="46.50593" lon="5.31873">
        <ele>216.6</ele>
        <time>2022-07-11T12:26:25Z</time>
      </trkpt>
      <trkpt lat="46.50598" lon="5.31862">
        <ele>217.2</ele>
        <time>2022-07-11T12:26:27Z</time>
      </trkpt>
      <trkpt lat="46.506" lon="5.31857">
        <ele>217.4</ele>
        <time>2022-07-11T12:26:28Z</time>
      </trkpt>
      <trkpt lat="46.50608" lon="5.31835">
        <ele>218.2</ele>
        <time>2022-07-11T12:26:32Z</time>
      </trkpt>
      <trkpt lat="46.50612" lon="5.31823">
        <ele>218.6</ele>
        <time>2022-07-11T12:26:34Z</time>
      </trkpt>
      <trkpt lat="46.50617" lon="5.31811">
        <ele>219.2</ele>
        <time>2022-07-11T12:26:36Z</time>
      </trkpt>
      <trkpt lat="46.50625" lon="5.31793">
        <ele>219.8</ele>
        <time>2022-07-11T12:26:39Z</time>
      </trkpt>
      <trkpt lat="46.50627" lon="5.31787">
        <ele>219.8</ele>
        <time>2022-07-11T12:26:40Z</time>
      </trkpt>
      <trkpt lat="46.50642" lon="5.3175">
        <ele>220.8</ele>
        <time>2022-07-11T12:26:46Z</time>
      </trkpt>
      <trkpt lat="46.50646" lon="5.31743">
        <ele>220.8</ele>
        <time>2022-07-11T12:26:47Z</time>
      </trkpt>
      <trkpt lat="46.50649" lon="5.31738">
        <ele>221</ele>
        <time>2022-07-11T12:26:48Z</time>
      </trkpt>
      <trkpt lat="46.50659" lon="5.31726">
        <ele>221</ele>
        <time>2022-07-11T12:26:50Z</time>
      </trkpt>
      <trkpt lat="46.50665" lon="5.31723">
        <ele>221.2</ele>
        <time>2022-07-11T12:26:51Z</time>
      </trkpt>
      <trkpt lat="46.50676" lon="5.31717">
        <ele>221.2</ele>
        <time>2022-07-11T12:26:53Z</time>
      </trkpt>
      <trkpt lat="46.50692" lon="5.31713">
        <ele>221.2</ele>
        <time>2022-07-11T12:26:56Z</time>
      </trkpt>
      <trkpt lat="46.50741" lon="5.31704">
        <ele>221</ele>
        <time>2022-07-11T12:27:04Z</time>
      </trkpt>
      <trkpt lat="46.50766" lon="5.31705">
        <ele>220.8</ele>
        <time>2022-07-11T12:27:08Z</time>
      </trkpt>
      <trkpt lat="46.50773" lon="5.31707">
        <ele>220.8</ele>
        <time>2022-07-11T12:27:09Z</time>
      </trkpt>
      <trkpt lat="46.50779" lon="5.3171">
        <ele>220.8</ele>
        <time>2022-07-11T12:27:10Z</time>
      </trkpt>
      <trkpt lat="46.50801" lon="5.31727">
        <ele>220.8</ele>
        <time>2022-07-11T12:27:14Z</time>
      </trkpt>
      <trkpt lat="46.50828" lon="5.31746">
        <ele>221.6</ele>
        <time>2022-07-11T12:27:19Z</time>
      </trkpt>
      <trkpt lat="46.50834" lon="5.31747">
        <ele>221.8</ele>
        <time>2022-07-11T12:27:20Z</time>
      </trkpt>
      <trkpt lat="46.50839" lon="5.31746">
        <ele>222</ele>
        <time>2022-07-11T12:27:21Z</time>
      </trkpt>
      <trkpt lat="46.50849" lon="5.31742">
        <ele>222.2</ele>
        <time>2022-07-11T12:27:23Z</time>
      </trkpt>
      <trkpt lat="46.50855" lon="5.31739">
        <ele>222.4</ele>
        <time>2022-07-11T12:27:24Z</time>
      </trkpt>
      <trkpt lat="46.50861" lon="5.31736">
        <ele>222.4</ele>
        <time>2022-07-11T12:27:25Z</time>
      </trkpt>
      <trkpt lat="46.50875" lon="5.3172">
        <ele>222.8</ele>
        <time>2022-07-11T12:27:28Z</time>
      </trkpt>
      <trkpt lat="46.5091" lon="5.31682">
        <ele>222.8</ele>
        <time>2022-07-11T12:27:35Z</time>
      </trkpt>
      <trkpt lat="46.5094" lon="5.31649">
        <ele>222.6</ele>
        <time>2022-07-11T12:27:40Z</time>
      </trkpt>
      <trkpt lat="46.50984" lon="5.31603">
        <ele>221.4</ele>
        <time>2022-07-11T12:27:47Z</time>
      </trkpt>
      <trkpt lat="46.50989" lon="5.31597">
        <ele>221.4</ele>
        <time>2022-07-11T12:27:48Z</time>
      </trkpt>
      <trkpt lat="46.51022" lon="5.31563">
        <ele>221.2</ele>
        <time>2022-07-11T12:27:54Z</time>
      </trkpt>
      <trkpt lat="46.5103" lon="5.3155">
        <ele>221.2</ele>
        <time>2022-07-11T12:27:56Z</time>
      </trkpt>
      <trkpt lat="46.51038" lon="5.31533">
        <ele>221.4</ele>
        <time>2022-07-11T12:27:58Z</time>
      </trkpt>
      <trkpt lat="46.51048" lon="5.3149">
        <ele>221.4</ele>
        <time>2022-07-11T12:28:02Z</time>
      </trkpt>
      <trkpt lat="46.51053" lon="5.31466">
        <ele>221</ele>
        <time>2022-07-11T12:28:04Z</time>
      </trkpt>
      <trkpt lat="46.51059" lon="5.31443">
        <ele>220.4</ele>
        <time>2022-07-11T12:28:06Z</time>
      </trkpt>
      <trkpt lat="46.51062" lon="5.31433">
        <ele>220.4</ele>
        <time>2022-07-11T12:28:07Z</time>
      </trkpt>
      <trkpt lat="46.51065" lon="5.31422">
        <ele>220</ele>
        <time>2022-07-11T12:28:08Z</time>
      </trkpt>
      <trkpt lat="46.51067" lon="5.3141">
        <ele>219.8</ele>
        <time>2022-07-11T12:28:09Z</time>
      </trkpt>
      <trkpt lat="46.5107" lon="5.31384">
        <ele>219.4</ele>
        <time>2022-07-11T12:28:11Z</time>
      </trkpt>
      <trkpt lat="46.51069" lon="5.31359">
        <ele>218.8</ele>
        <time>2022-07-11T12:28:13Z</time>
      </trkpt>
      <trkpt lat="46.51069" lon="5.31347">
        <ele>218.6</ele>
        <time>2022-07-11T12:28:14Z</time>
      </trkpt>
      <trkpt lat="46.51069" lon="5.31336">
        <ele>218.2</ele>
        <time>2022-07-11T12:28:15Z</time>
      </trkpt>
      <trkpt lat="46.51071" lon="5.31324">
        <ele>218</ele>
        <time>2022-07-11T12:28:16Z</time>
      </trkpt>
      <trkpt lat="46.51075" lon="5.31313">
        <ele>217.6</ele>
        <time>2022-07-11T12:28:17Z</time>
      </trkpt>
      <trkpt lat="46.51082" lon="5.31298">
        <ele>217.6</ele>
        <time>2022-07-11T12:28:18Z</time>
      </trkpt>
      <trkpt lat="46.51096" lon="5.31276">
        <ele>217</ele>
        <time>2022-07-11T12:28:20Z</time>
      </trkpt>
      <trkpt lat="46.51111" lon="5.31258">
        <ele>216.2</ele>
        <time>2022-07-11T12:28:22Z</time>
      </trkpt>
      <trkpt lat="46.51132" lon="5.31229">
        <ele>215.4</ele>
        <time>2022-07-11T12:28:25Z</time>
      </trkpt>
      <trkpt lat="46.51139" lon="5.31217">
        <ele>215</ele>
        <time>2022-07-11T12:28:26Z</time>
      </trkpt>
      <trkpt lat="46.5116" lon="5.31189">
        <ele>213.8</ele>
        <time>2022-07-11T12:28:29Z</time>
      </trkpt>
      <trkpt lat="46.51172" lon="5.31173">
        <ele>213.4</ele>
        <time>2022-07-11T12:28:31Z</time>
      </trkpt>
      <trkpt lat="46.512" lon="5.31144">
        <ele>212.8</ele>
        <time>2022-07-11T12:28:35Z</time>
      </trkpt>
      <trkpt lat="46.51207" lon="5.31135">
        <ele>212.6</ele>
        <time>2022-07-11T12:28:36Z</time>
      </trkpt>
      <trkpt lat="46.51213" lon="5.31126">
        <ele>212.6</ele>
        <time>2022-07-11T12:28:37Z</time>
      </trkpt>
      <trkpt lat="46.51247" lon="5.31089">
        <ele>211.8</ele>
        <time>2022-07-11T12:28:42Z</time>
      </trkpt>
      <trkpt lat="46.51257" lon="5.31084">
        <ele>211.4</ele>
        <time>2022-07-11T12:28:43Z</time>
      </trkpt>
      <trkpt lat="46.51274" lon="5.3108">
        <ele>211</ele>
        <time>2022-07-11T12:28:45Z</time>
      </trkpt>
      <trkpt lat="46.51297" lon="5.31078">
        <ele>210.4</ele>
        <time>2022-07-11T12:28:48Z</time>
      </trkpt>
      <trkpt lat="46.51321" lon="5.31076">
        <ele>210</ele>
        <time>2022-07-11T12:28:51Z</time>
      </trkpt>
      <trkpt lat="46.51371" lon="5.31074">
        <ele>210.2</ele>
        <time>2022-07-11T12:28:58Z</time>
      </trkpt>
      <trkpt lat="46.51427" lon="5.31071">
        <ele>210.4</ele>
        <time>2022-07-11T12:29:06Z</time>
      </trkpt>
      <trkpt lat="46.51447" lon="5.31069">
        <ele>210.2</ele>
        <time>2022-07-11T12:29:09Z</time>
      </trkpt>
      <trkpt lat="46.51502" lon="5.31071">
        <ele>210</ele>
        <time>2022-07-11T12:29:17Z</time>
      </trkpt>
      <trkpt lat="46.51509" lon="5.31072">
        <ele>210.2</ele>
        <time>2022-07-11T12:29:18Z</time>
      </trkpt>
      <trkpt lat="46.51563" lon="5.31076">
        <ele>210.4</ele>
        <time>2022-07-11T12:29:27Z</time>
      </trkpt>
      <trkpt lat="46.51603" lon="5.31088">
        <ele>210.4</ele>
        <time>2022-07-11T12:29:34Z</time>
      </trkpt>
      <trkpt lat="46.51625" lon="5.311">
        <ele>210.8</ele>
        <time>2022-07-11T12:29:38Z</time>
      </trkpt>
      <trkpt lat="46.51634" lon="5.31103">
        <ele>211</ele>
        <time>2022-07-11T12:29:40Z</time>
      </trkpt>
      <trkpt lat="46.51639" lon="5.31104">
        <ele>211</ele>
        <time>2022-07-11T12:29:41Z</time>
      </trkpt>
      <trkpt lat="46.51655" lon="5.31103">
        <ele>211.2</ele>
        <time>2022-07-11T12:29:44Z</time>
      </trkpt>
      <trkpt lat="46.51659" lon="5.31104">
        <ele>211.2</ele>
        <time>2022-07-11T12:29:45Z</time>
      </trkpt>
      <trkpt lat="46.51665" lon="5.31106">
        <ele>211.4</ele>
        <time>2022-07-11T12:29:46Z</time>
      </trkpt>
      <trkpt lat="46.51669" lon="5.3111">
        <ele>211.6</ele>
        <time>2022-07-11T12:29:47Z</time>
      </trkpt>
      <trkpt lat="46.51672" lon="5.31116">
        <ele>211.8</ele>
        <time>2022-07-11T12:29:48Z</time>
      </trkpt>
      <trkpt lat="46.51692" lon="5.3115">
        <ele>212.6</ele>
        <time>2022-07-11T12:29:53Z</time>
      </trkpt>
      <trkpt lat="46.51702" lon="5.31161">
        <ele>212.6</ele>
        <time>2022-07-11T12:29:55Z</time>
      </trkpt>
      <trkpt lat="46.51719" lon="5.31172">
        <ele>212.4</ele>
        <time>2022-07-11T12:29:58Z</time>
      </trkpt>
      <trkpt lat="46.51735" lon="5.31178">
        <ele>212.4</ele>
        <time>2022-07-11T12:30:00Z</time>
      </trkpt>
      <trkpt lat="46.5175" lon="5.3118">
        <ele>212.2</ele>
        <time>2022-07-11T12:30:02Z</time>
      </trkpt>
      <trkpt lat="46.51801" lon="5.31181">
        <ele>210.8</ele>
        <time>2022-07-11T12:30:08Z</time>
      </trkpt>
      <trkpt lat="46.5182" lon="5.31183">
        <ele>209.8</ele>
        <time>2022-07-11T12:30:10Z</time>
      </trkpt>
      <trkpt lat="46.51837" lon="5.31188">
        <ele>208.6</ele>
        <time>2022-07-11T12:30:12Z</time>
      </trkpt>
      <trkpt lat="46.51846" lon="5.31193">
        <ele>208.2</ele>
        <time>2022-07-11T12:30:13Z</time>
      </trkpt>
      <trkpt lat="46.51854" lon="5.31198">
        <ele>207.6</ele>
        <time>2022-07-11T12:30:14Z</time>
      </trkpt>
      <trkpt lat="46.51869" lon="5.31213">
        <ele>206.6</ele>
        <time>2022-07-11T12:30:16Z</time>
      </trkpt>
      <trkpt lat="46.51875" lon="5.3122">
        <ele>206.4</ele>
        <time>2022-07-11T12:30:17Z</time>
      </trkpt>
      <trkpt lat="46.51903" lon="5.31263">
        <ele>205.4</ele>
        <time>2022-07-11T12:30:22Z</time>
      </trkpt>
      <trkpt lat="46.51945" lon="5.31327">
        <ele>204.8</ele>
        <time>2022-07-11T12:30:30Z</time>
      </trkpt>
      <trkpt lat="46.5197" lon="5.31365">
        <ele>204.8</ele>
        <time>2022-07-11T12:30:35Z</time>
      </trkpt>
      <trkpt lat="46.52009" lon="5.31421">
        <ele>205.4</ele>
        <time>2022-07-11T12:30:43Z</time>
      </trkpt>
      <trkpt lat="46.52032" lon="5.31457">
        <ele>206</ele>
        <time>2022-07-11T12:30:48Z</time>
      </trkpt>
      <trkpt lat="46.52041" lon="5.3147">
        <ele>206.2</ele>
        <time>2022-07-11T12:30:50Z</time>
      </trkpt>
      <trkpt lat="46.52054" lon="5.3149">
        <ele>206.6</ele>
        <time>2022-07-11T12:30:53Z</time>
      </trkpt>
      <trkpt lat="46.52076" lon="5.31519">
        <ele>207.2</ele>
        <time>2022-07-11T12:30:58Z</time>
      </trkpt>
      <trkpt lat="46.52084" lon="5.3153">
        <ele>207.8</ele>
        <time>2022-07-11T12:31:00Z</time>
      </trkpt>
      <trkpt lat="46.52102" lon="5.31556">
        <ele>208.4</ele>
        <time>2022-07-11T12:31:05Z</time>
      </trkpt>
      <trkpt lat="46.5211" lon="5.31567">
        <ele>208.8</ele>
        <time>2022-07-11T12:31:07Z</time>
      </trkpt>
      <trkpt lat="46.52128" lon="5.31593">
        <ele>209.8</ele>
        <time>2022-07-11T12:31:12Z</time>
      </trkpt>
      <trkpt lat="46.52131" lon="5.31598">
        <ele>209.8</ele>
        <time>2022-07-11T12:31:13Z</time>
      </trkpt>
      <trkpt lat="46.52153" lon="5.31628">
        <ele>210.8</ele>
        <time>2022-07-11T12:31:19Z</time>
      </trkpt>
      <trkpt lat="46.52164" lon="5.31644">
        <ele>211.2</ele>
        <time>2022-07-11T12:31:22Z</time>
      </trkpt>
      <trkpt lat="46.52185" lon="5.31674">
        <ele>212.2</ele>
        <time>2022-07-11T12:31:28Z</time>
      </trkpt>
      <trkpt lat="46.52192" lon="5.31684">
        <ele>212.4</ele>
        <time>2022-07-11T12:31:30Z</time>
      </trkpt>
      <trkpt lat="46.52217" lon="5.31719">
        <ele>213</ele>
        <time>2022-07-11T12:31:37Z</time>
      </trkpt>
      <trkpt lat="46.52237" lon="5.3175">
        <ele>213.4</ele>
        <time>2022-07-11T12:31:43Z</time>
      </trkpt>
      <trkpt lat="46.52252" lon="5.3177">
        <ele>214.2</ele>
        <time>2022-07-11T12:31:47Z</time>
      </trkpt>
      <trkpt lat="46.5226" lon="5.31781">
        <ele>214.6</ele>
        <time>2022-07-11T12:31:49Z</time>
      </trkpt>
      <trkpt lat="46.52271" lon="5.31798">
        <ele>215.2</ele>
        <time>2022-07-11T12:31:52Z</time>
      </trkpt>
      <trkpt lat="46.52275" lon="5.31803">
        <ele>215.2</ele>
        <time>2022-07-11T12:31:53Z</time>
      </trkpt>
      <trkpt lat="46.52296" lon="5.31834">
        <ele>216.2</ele>
        <time>2022-07-11T12:31:59Z</time>
      </trkpt>
      <trkpt lat="46.52299" lon="5.31839">
        <ele>216.4</ele>
        <time>2022-07-11T12:32:00Z</time>
      </trkpt>
      <trkpt lat="46.52313" lon="5.31859">
        <ele>217.6</ele>
        <time>2022-07-11T12:32:04Z</time>
      </trkpt>
      <trkpt lat="46.5232" lon="5.3187">
        <ele>218</ele>
        <time>2022-07-11T12:32:06Z</time>
      </trkpt>
      <trkpt lat="46.52324" lon="5.31875">
        <ele>218.2</ele>
        <time>2022-07-11T12:32:07Z</time>
      </trkpt>
      <trkpt lat="46.52334" lon="5.3189">
        <ele>218.8</ele>
        <time>2022-07-11T12:32:10Z</time>
      </trkpt>
      <trkpt lat="46.52345" lon="5.31904">
        <ele>219</ele>
        <time>2022-07-11T12:32:13Z</time>
      </trkpt>
      <trkpt lat="46.52376" lon="5.31944">
        <ele>219.4</ele>
        <time>2022-07-11T12:32:20Z</time>
      </trkpt>
      <trkpt lat="46.52411" lon="5.31997">
        <ele>218.8</ele>
        <time>2022-07-11T12:32:27Z</time>
      </trkpt>
      <trkpt lat="46.52444" lon="5.32045">
        <ele>217.6</ele>
        <time>2022-07-11T12:32:33Z</time>
      </trkpt>
      <trkpt lat="46.52475" lon="5.32088">
        <ele>216.4</ele>
        <time>2022-07-11T12:32:38Z</time>
      </trkpt>
      <trkpt lat="46.52493" lon="5.32114">
        <ele>215</ele>
        <time>2022-07-11T12:32:41Z</time>
      </trkpt>
      <trkpt lat="46.52517" lon="5.32148">
        <ele>213.8</ele>
        <time>2022-07-11T12:32:45Z</time>
      </trkpt>
      <trkpt lat="46.52544" lon="5.32178">
        <ele>212.8</ele>
        <time>2022-07-11T12:32:49Z</time>
      </trkpt>
      <trkpt lat="46.52578" lon="5.32201">
        <ele>211.4</ele>
        <time>2022-07-11T12:32:53Z</time>
      </trkpt>
      <trkpt lat="46.52616" lon="5.32218">
        <ele>210</ele>
        <time>2022-07-11T12:32:57Z</time>
      </trkpt>
      <trkpt lat="46.52635" lon="5.32229">
        <ele>209.4</ele>
        <time>2022-07-11T12:32:59Z</time>
      </trkpt>
      <trkpt lat="46.52646" lon="5.32236">
        <ele>209</ele>
        <time>2022-07-11T12:33:00Z</time>
      </trkpt>
      <trkpt lat="46.52674" lon="5.32258">
        <ele>207.8</ele>
        <time>2022-07-11T12:33:03Z</time>
      </trkpt>
      <trkpt lat="46.52681" lon="5.32265">
        <ele>207.2</ele>
        <time>2022-07-11T12:33:04Z</time>
      </trkpt>
      <trkpt lat="46.52691" lon="5.32275">
        <ele>206.6</ele>
        <time>2022-07-11T12:33:05Z</time>
      </trkpt>
      <trkpt lat="46.52698" lon="5.32284">
        <ele>206.4</ele>
        <time>2022-07-11T12:33:06Z</time>
      </trkpt>
      <trkpt lat="46.52717" lon="5.32309">
        <ele>205.6</ele>
        <time>2022-07-11T12:33:09Z</time>
      </trkpt>
      <trkpt lat="46.52758" lon="5.32359">
        <ele>205</ele>
        <time>2022-07-11T12:33:15Z</time>
      </trkpt>
      <trkpt lat="46.52788" lon="5.32393">
        <ele>205</ele>
        <time>2022-07-11T12:33:20Z</time>
      </trkpt>
      <trkpt lat="46.52829" lon="5.32438">
        <ele>205.4</ele>
        <time>2022-07-11T12:33:27Z</time>
      </trkpt>
      <trkpt lat="46.5285" lon="5.3246">
        <ele>205.4</ele>
        <time>2022-07-11T12:33:31Z</time>
      </trkpt>
      <trkpt lat="46.52887" lon="5.32497">
        <ele>205</ele>
        <time>2022-07-11T12:33:38Z</time>
      </trkpt>
      <trkpt lat="46.52934" lon="5.32545">
        <ele>204.8</ele>
        <time>2022-07-11T12:33:47Z</time>
      </trkpt>
      <trkpt lat="46.5294" lon="5.32551">
        <ele>204.8</ele>
        <time>2022-07-11T12:33:48Z</time>
      </trkpt>
      <trkpt lat="46.52988" lon="5.32598">
        <ele>205.6</ele>
        <time>2022-07-11T12:33:58Z</time>
      </trkpt>
      <trkpt lat="46.52996" lon="5.32607">
        <ele>206</ele>
        <time>2022-07-11T12:34:00Z</time>
      </trkpt>
      <trkpt lat="46.53012" lon="5.32625">
        <ele>206.8</ele>
        <time>2022-07-11T12:34:04Z</time>
      </trkpt>
      <trkpt lat="46.53019" lon="5.32632">
        <ele>207.6</ele>
        <time>2022-07-11T12:34:06Z</time>
      </trkpt>
      <trkpt lat="46.53022" lon="5.32635">
        <ele>208.2</ele>
        <time>2022-07-11T12:34:07Z</time>
      </trkpt>
      <trkpt lat="46.53043" lon="5.32656">
        <ele>209.2</ele>
        <time>2022-07-11T12:34:13Z</time>
      </trkpt>
      <trkpt lat="46.53063" lon="5.32677">
        <ele>210.4</ele>
        <time>2022-07-11T12:34:19Z</time>
      </trkpt>
      <trkpt lat="46.5307" lon="5.32685">
        <ele>210.8</ele>
        <time>2022-07-11T12:34:21Z</time>
      </trkpt>
      <trkpt lat="46.53077" lon="5.32692">
        <ele>211.4</ele>
        <time>2022-07-11T12:34:23Z</time>
      </trkpt>
      <trkpt lat="46.53079" lon="5.32695">
        <ele>211.6</ele>
        <time>2022-07-11T12:34:24Z</time>
      </trkpt>
      <trkpt lat="46.53085" lon="5.32703">
        <ele>212</ele>
        <time>2022-07-11T12:34:26Z</time>
      </trkpt>
      <trkpt lat="46.53092" lon="5.32712">
        <ele>212.4</ele>
        <time>2022-07-11T12:34:28Z</time>
      </trkpt>
      <trkpt lat="46.53107" lon="5.32729">
        <ele>213.6</ele>
        <time>2022-07-11T12:34:33Z</time>
      </trkpt>
      <trkpt lat="46.53116" lon="5.32739">
        <ele>214.2</ele>
        <time>2022-07-11T12:34:36Z</time>
      </trkpt>
      <trkpt lat="46.53122" lon="5.32745">
        <ele>214.6</ele>
        <time>2022-07-11T12:34:38Z</time>
      </trkpt>
      <trkpt lat="46.53138" lon="5.32765">
        <ele>215.8</ele>
        <time>2022-07-11T12:34:44Z</time>
      </trkpt>
      <trkpt lat="46.53141" lon="5.32769">
        <ele>215.8</ele>
        <time>2022-07-11T12:34:45Z</time>
      </trkpt>
      <trkpt lat="46.53155" lon="5.3279">
        <ele>216.8</ele>
        <time>2022-07-11T12:34:51Z</time>
      </trkpt>
      <trkpt lat="46.53168" lon="5.32809">
        <ele>218.2</ele>
        <time>2022-07-11T12:34:56Z</time>
      </trkpt>
      <trkpt lat="46.5317" lon="5.32813">
        <ele>218.2</ele>
        <time>2022-07-11T12:34:57Z</time>
      </trkpt>
      <trkpt lat="46.53178" lon="5.32828">
        <ele>219.4</ele>
        <time>2022-07-11T12:35:01Z</time>
      </trkpt>
      <trkpt lat="46.53186" lon="5.32845">
        <ele>220</ele>
        <time>2022-07-11T12:35:05Z</time>
      </trkpt>
      <trkpt lat="46.53194" lon="5.32861">
        <ele>220.6</ele>
        <time>2022-07-11T12:35:09Z</time>
      </trkpt>
      <trkpt lat="46.53204" lon="5.32881">
        <ele>220.8</ele>
        <time>2022-07-11T12:35:14Z</time>
      </trkpt>
      <trkpt lat="46.53217" lon="5.32905">
        <ele>221.8</ele>
        <time>2022-07-11T12:35:20Z</time>
      </trkpt>
      <trkpt lat="46.53228" lon="5.3293">
        <ele>222.8</ele>
        <time>2022-07-11T12:35:26Z</time>
      </trkpt>
      <trkpt lat="46.5323" lon="5.32934">
        <ele>223</ele>
        <time>2022-07-11T12:35:27Z</time>
      </trkpt>
      <trkpt lat="46.53246" lon="5.32965">
        <ele>224</ele>
        <time>2022-07-11T12:35:34Z</time>
      </trkpt>
      <trkpt lat="46.53266" lon="5.33003">
        <ele>224.8</ele>
        <time>2022-07-11T12:35:42Z</time>
      </trkpt>
      <trkpt lat="46.53269" lon="5.33008">
        <ele>225</ele>
        <time>2022-07-11T12:35:43Z</time>
      </trkpt>
      <trkpt lat="46.53295" lon="5.33053">
        <ele>226.2</ele>
        <time>2022-07-11T12:35:52Z</time>
      </trkpt>
      <trkpt lat="46.53302" lon="5.33064">
        <ele>226.4</ele>
        <time>2022-07-11T12:35:54Z</time>
      </trkpt>
      <trkpt lat="46.53342" lon="5.33117">
        <ele>226.8</ele>
        <time>2022-07-11T12:36:04Z</time>
      </trkpt>
      <trkpt lat="46.53371" lon="5.33156">
        <ele>227.2</ele>
        <time>2022-07-11T12:36:11Z</time>
      </trkpt>
      <trkpt lat="46.53375" lon="5.33163">
        <ele>227.2</ele>
        <time>2022-07-11T12:36:12Z</time>
      </trkpt>
      <trkpt lat="46.53413" lon="5.33215">
        <ele>227</ele>
        <time>2022-07-11T12:36:21Z</time>
      </trkpt>
      <trkpt lat="46.53453" lon="5.33271">
        <ele>227.4</ele>
        <time>2022-07-11T12:36:30Z</time>
      </trkpt>
      <trkpt lat="46.53493" lon="5.33327">
        <ele>227.6</ele>
        <time>2022-07-11T12:36:39Z</time>
      </trkpt>
      <trkpt lat="46.53498" lon="5.33333">
        <ele>227.6</ele>
        <time>2022-07-11T12:36:40Z</time>
      </trkpt>
      <trkpt lat="46.53542" lon="5.33393">
        <ele>227.6</ele>
        <time>2022-07-11T12:36:49Z</time>
      </trkpt>
      <trkpt lat="46.53553" lon="5.33408">
        <ele>227.2</ele>
        <time>2022-07-11T12:36:51Z</time>
      </trkpt>
      <trkpt lat="46.53589" lon="5.33459">
        <ele>226</ele>
        <time>2022-07-11T12:36:58Z</time>
      </trkpt>
      <trkpt lat="46.53605" lon="5.33481">
        <ele>225.8</ele>
        <time>2022-07-11T12:37:01Z</time>
      </trkpt>
      <trkpt lat="46.53622" lon="5.33505">
        <ele>225</ele>
        <time>2022-07-11T12:37:05Z</time>
      </trkpt>
      <trkpt lat="46.53626" lon="5.33511">
        <ele>224.8</ele>
        <time>2022-07-11T12:37:06Z</time>
      </trkpt>
      <trkpt lat="46.53628" lon="5.33523">
        <ele>223.8</ele>
        <time>2022-07-11T12:37:09Z</time>
      </trkpt>
      <trkpt lat="46.53626" lon="5.33528">
        <ele>223.6</ele>
        <time>2022-07-11T12:37:11Z</time>
      </trkpt>
      <trkpt lat="46.53619" lon="5.33535">
        <ele>223.2</ele>
        <time>2022-07-11T12:37:13Z</time>
      </trkpt>
      <trkpt lat="46.53605" lon="5.33551">
        <ele>222.6</ele>
        <time>2022-07-11T12:37:16Z</time>
      </trkpt>
      <trkpt lat="46.536" lon="5.33556">
        <ele>222.6</ele>
        <time>2022-07-11T12:37:17Z</time>
      </trkpt>
      <trkpt lat="46.53576" lon="5.33578">
        <ele>221.6</ele>
        <time>2022-07-11T12:37:21Z</time>
      </trkpt>
      <trkpt lat="46.53565" lon="5.33588">
        <ele>221.4</ele>
        <time>2022-07-11T12:37:23Z</time>
      </trkpt>
      <trkpt lat="46.53518" lon="5.33632">
        <ele>220.8</ele>
        <time>2022-07-11T12:37:30Z</time>
      </trkpt>
      <trkpt lat="46.53506" lon="5.33643">
        <ele>220.6</ele>
        <time>2022-07-11T12:37:32Z</time>
      </trkpt>
      <trkpt lat="46.53499" lon="5.33649">
        <ele>220.4</ele>
        <time>2022-07-11T12:37:33Z</time>
      </trkpt>
      <trkpt lat="46.5347" lon="5.3368">
        <ele>220</ele>
        <time>2022-07-11T12:37:38Z</time>
      </trkpt>
      <trkpt lat="46.53462" lon="5.33688">
        <ele>219.2</ele>
        <time>2022-07-11T12:37:40Z</time>
      </trkpt>
      <trkpt lat="46.5346" lon="5.3369">
        <ele>219</ele>
        <time>2022-07-11T12:37:41Z</time>
      </trkpt>
      <trkpt lat="46.53454" lon="5.33696">
        <ele>218</ele>
        <time>2022-07-11T12:37:44Z</time>
      </trkpt>
      <trkpt lat="46.53453" lon="5.33697">
        <ele>217.8</ele>
        <time>2022-07-11T12:37:45Z</time>
      </trkpt>
      <trkpt lat="46.53452" lon="5.33699">
        <ele>217.4</ele>
        <time>2022-07-11T12:37:46Z</time>
      </trkpt>
      <trkpt lat="46.53454" lon="5.33706">
        <ele>217.4</ele>
        <time>2022-07-11T12:37:48Z</time>
      </trkpt>
      <trkpt lat="46.53463" lon="5.33719">
        <ele>216.8</ele>
        <time>2022-07-11T12:37:51Z</time>
      </trkpt>
      <trkpt lat="46.53466" lon="5.33723">
        <ele>216.8</ele>
        <time>2022-07-11T12:37:52Z</time>
      </trkpt>
      <trkpt lat="46.5347" lon="5.33727">
        <ele>216.8</ele>
        <time>2022-07-11T12:37:53Z</time>
      </trkpt>
      <trkpt lat="46.53485" lon="5.33732">
        <ele>216.8</ele>
        <time>2022-07-11T12:37:56Z</time>
      </trkpt>
      <trkpt lat="46.53509" lon="5.3374">
        <ele>217.8</ele>
        <time>2022-07-11T12:38:01Z</time>
      </trkpt>
      <trkpt lat="46.53514" lon="5.33743">
        <ele>218</ele>
        <time>2022-07-11T12:38:02Z</time>
      </trkpt>
      <trkpt lat="46.53538" lon="5.33759">
        <ele>219.2</ele>
        <time>2022-07-11T12:38:07Z</time>
      </trkpt>
      <trkpt lat="46.53547" lon="5.33766">
        <ele>219.8</ele>
        <time>2022-07-11T12:38:09Z</time>
      </trkpt>
      <trkpt lat="46.53559" lon="5.33778">
        <ele>220.4</ele>
        <time>2022-07-11T12:38:12Z</time>
      </trkpt>
      <trkpt lat="46.5358" lon="5.33801">
        <ele>221.4</ele>
        <time>2022-07-11T12:38:17Z</time>
      </trkpt>
      <trkpt lat="46.53584" lon="5.33806">
        <ele>221.6</ele>
        <time>2022-07-11T12:38:18Z</time>
      </trkpt>
      <trkpt lat="46.53588" lon="5.3381">
        <ele>221.6</ele>
        <time>2022-07-11T12:38:19Z</time>
      </trkpt>
      <trkpt lat="46.5361" lon="5.33838">
        <ele>222.2</ele>
        <time>2022-07-11T12:38:25Z</time>
      </trkpt>
      <trkpt lat="46.53618" lon="5.33848">
        <ele>222.4</ele>
        <time>2022-07-11T12:38:27Z</time>
      </trkpt>
      <trkpt lat="46.5364" lon="5.33877">
        <ele>223.4</ele>
        <time>2022-07-11T12:38:33Z</time>
      </trkpt>
      <trkpt lat="46.53644" lon="5.33882">
        <ele>223.4</ele>
        <time>2022-07-11T12:38:34Z</time>
      </trkpt>
      <trkpt lat="46.53653" lon="5.33901">
        <ele>223.4</ele>
        <time>2022-07-11T12:38:37Z</time>
      </trkpt>
      <trkpt lat="46.53662" lon="5.33919">
        <ele>223.8</ele>
        <time>2022-07-11T12:38:40Z</time>
      </trkpt>
      <trkpt lat="46.53666" lon="5.33925">
        <ele>224</ele>
        <time>2022-07-11T12:38:41Z</time>
      </trkpt>
      <trkpt lat="46.53674" lon="5.33936">
        <ele>224.2</ele>
        <time>2022-07-11T12:38:43Z</time>
      </trkpt>
      <trkpt lat="46.53688" lon="5.33948">
        <ele>224.4</ele>
        <time>2022-07-11T12:38:46Z</time>
      </trkpt>
      <trkpt lat="46.53702" lon="5.3396">
        <ele>224.8</ele>
        <time>2022-07-11T12:38:49Z</time>
      </trkpt>
      <trkpt lat="46.53727" lon="5.33985">
        <ele>225.2</ele>
        <time>2022-07-11T12:38:54Z</time>
      </trkpt>
      <trkpt lat="46.53755" lon="5.34024">
        <ele>225</ele>
        <time>2022-07-11T12:38:59Z</time>
      </trkpt>
      <trkpt lat="46.53787" lon="5.34068">
        <ele>223.4</ele>
        <time>2022-07-11T12:39:04Z</time>
      </trkpt>
      <trkpt lat="46.538" lon="5.34087">
        <ele>222.8</ele>
        <time>2022-07-11T12:39:06Z</time>
      </trkpt>
      <trkpt lat="46.53807" lon="5.34096">
        <ele>222.4</ele>
        <time>2022-07-11T12:39:07Z</time>
      </trkpt>
      <trkpt lat="46.53829" lon="5.34122">
        <ele>220.8</ele>
        <time>2022-07-11T12:39:10Z</time>
      </trkpt>
      <trkpt lat="46.53835" lon="5.34127">
        <ele>220.2</ele>
        <time>2022-07-11T12:39:11Z</time>
      </trkpt>
      <trkpt lat="46.53844" lon="5.34131">
        <ele>220</ele>
        <time>2022-07-11T12:39:12Z</time>
      </trkpt>
      <trkpt lat="46.53853" lon="5.34134">
        <ele>219.4</ele>
        <time>2022-07-11T12:39:13Z</time>
      </trkpt>
      <trkpt lat="46.53871" lon="5.34139">
        <ele>219</ele>
        <time>2022-07-11T12:39:15Z</time>
      </trkpt>
      <trkpt lat="46.53888" lon="5.34144">
        <ele>218.6</ele>
        <time>2022-07-11T12:39:17Z</time>
      </trkpt>
      <trkpt lat="46.53904" lon="5.34153">
        <ele>218.4</ele>
        <time>2022-07-11T12:39:19Z</time>
      </trkpt>
      <trkpt lat="46.53911" lon="5.34158">
        <ele>218.4</ele>
        <time>2022-07-11T12:39:20Z</time>
      </trkpt>
      <trkpt lat="46.5393" lon="5.34179">
        <ele>218.4</ele>
        <time>2022-07-11T12:39:23Z</time>
      </trkpt>
      <trkpt lat="46.5395" lon="5.34204">
        <ele>218.4</ele>
        <time>2022-07-11T12:39:27Z</time>
      </trkpt>
      <trkpt lat="46.53973" lon="5.34236">
        <ele>219.4</ele>
        <time>2022-07-11T12:39:32Z</time>
      </trkpt>
      <trkpt lat="46.53981" lon="5.34247">
        <ele>219.6</ele>
        <time>2022-07-11T12:39:34Z</time>
      </trkpt>
      <trkpt lat="46.54009" lon="5.34286">
        <ele>220.2</ele>
        <time>2022-07-11T12:39:41Z</time>
      </trkpt>
      <trkpt lat="46.54016" lon="5.34296">
        <ele>220.6</ele>
        <time>2022-07-11T12:39:43Z</time>
      </trkpt>
      <trkpt lat="46.54038" lon="5.34325">
        <ele>221.8</ele>
        <time>2022-07-11T12:39:49Z</time>
      </trkpt>
      <trkpt lat="46.54052" lon="5.34344">
        <ele>222.8</ele>
        <time>2022-07-11T12:39:53Z</time>
      </trkpt>
      <trkpt lat="46.54072" lon="5.3437">
        <ele>223.6</ele>
        <time>2022-07-11T12:39:59Z</time>
      </trkpt>
      <trkpt lat="46.54075" lon="5.34374">
        <ele>223.8</ele>
        <time>2022-07-11T12:40:00Z</time>
      </trkpt>
      <trkpt lat="46.54088" lon="5.34391">
        <ele>225</ele>
        <time>2022-07-11T12:40:04Z</time>
      </trkpt>
      <trkpt lat="46.54098" lon="5.34403">
        <ele>225.6</ele>
        <time>2022-07-11T12:40:07Z</time>
      </trkpt>
      <trkpt lat="46.54105" lon="5.34412">
        <ele>226.2</ele>
        <time>2022-07-11T12:40:09Z</time>
      </trkpt>
      <trkpt lat="46.54121" lon="5.34436">
        <ele>227.2</ele>
        <time>2022-07-11T12:40:14Z</time>
      </trkpt>
      <trkpt lat="46.54126" lon="5.34448">
        <ele>227.4</ele>
        <time>2022-07-11T12:40:16Z</time>
      </trkpt>
      <trkpt lat="46.54128" lon="5.34455">
        <ele>227.6</ele>
        <time>2022-07-11T12:40:17Z</time>
      </trkpt>
      <trkpt lat="46.54132" lon="5.34484">
        <ele>228.2</ele>
        <time>2022-07-11T12:40:21Z</time>
      </trkpt>
      <trkpt lat="46.54132" lon="5.34513">
        <ele>228.2</ele>
        <time>2022-07-11T12:40:25Z</time>
      </trkpt>
      <trkpt lat="46.54131" lon="5.34542">
        <ele>228.2</ele>
        <time>2022-07-11T12:40:29Z</time>
      </trkpt>
      <trkpt lat="46.54126" lon="5.34582">
        <ele>228.4</ele>
        <time>2022-07-11T12:40:34Z</time>
      </trkpt>
      <trkpt lat="46.54123" lon="5.34598">
        <ele>228.4</ele>
        <time>2022-07-11T12:40:36Z</time>
      </trkpt>
      <trkpt lat="46.5412" lon="5.34606">
        <ele>228.6</ele>
        <time>2022-07-11T12:40:37Z</time>
      </trkpt>
      <trkpt lat="46.54106" lon="5.34636">
        <ele>228.8</ele>
        <time>2022-07-11T12:40:41Z</time>
      </trkpt>
      <trkpt lat="46.54073" lon="5.34695">
        <ele>228.8</ele>
        <time>2022-07-11T12:40:49Z</time>
      </trkpt>
      <trkpt lat="46.5404" lon="5.34743">
        <ele>228.6</ele>
        <time>2022-07-11T12:40:56Z</time>
      </trkpt>
      <trkpt lat="46.54006" lon="5.34781">
        <ele>228.8</ele>
        <time>2022-07-11T12:41:03Z</time>
      </trkpt>
      <trkpt lat="46.53985" lon="5.34803">
        <ele>229.2</ele>
        <time>2022-07-11T12:41:07Z</time>
      </trkpt>
      <trkpt lat="46.53981" lon="5.34809">
        <ele>229.4</ele>
        <time>2022-07-11T12:41:08Z</time>
      </trkpt>
      <trkpt lat="46.53976" lon="5.34816">
        <ele>229.4</ele>
        <time>2022-07-11T12:41:09Z</time>
      </trkpt>
      <trkpt lat="46.53969" lon="5.34832">
        <ele>229.4</ele>
        <time>2022-07-11T12:41:11Z</time>
      </trkpt>
      <trkpt lat="46.53961" lon="5.34858">
        <ele>229.6</ele>
        <time>2022-07-11T12:41:14Z</time>
      </trkpt>
      <trkpt lat="46.5394" lon="5.3492">
        <ele>229.6</ele>
        <time>2022-07-11T12:41:21Z</time>
      </trkpt>
      <trkpt lat="46.53918" lon="5.34965">
        <ele>229.8</ele>
        <time>2022-07-11T12:41:27Z</time>
      </trkpt>
      <trkpt lat="46.53905" lon="5.35007">
        <ele>230.4</ele>
        <time>2022-07-11T12:41:32Z</time>
      </trkpt>
      <trkpt lat="46.53891" lon="5.35067">
        <ele>229.8</ele>
        <time>2022-07-11T12:41:38Z</time>
      </trkpt>
      <trkpt lat="46.53884" lon="5.35098">
        <ele>229.6</ele>
        <time>2022-07-11T12:41:41Z</time>
      </trkpt>
      <trkpt lat="46.53886" lon="5.35118">
        <ele>229.4</ele>
        <time>2022-07-11T12:41:43Z</time>
      </trkpt>
      <trkpt lat="46.53894" lon="5.35133">
        <ele>229.4</ele>
        <time>2022-07-11T12:41:45Z</time>
      </trkpt>
      <trkpt lat="46.53899" lon="5.35139">
        <ele>229.4</ele>
        <time>2022-07-11T12:41:46Z</time>
      </trkpt>
      <trkpt lat="46.53908" lon="5.35149">
        <ele>229.2</ele>
        <time>2022-07-11T12:41:48Z</time>
      </trkpt>
      <trkpt lat="46.53919" lon="5.35154">
        <ele>229.6</ele>
        <time>2022-07-11T12:41:50Z</time>
      </trkpt>
      <trkpt lat="46.53932" lon="5.35148">
        <ele>229.6</ele>
        <time>2022-07-11T12:41:52Z</time>
      </trkpt>
      <trkpt lat="46.53937" lon="5.35143">
        <ele>229.6</ele>
        <time>2022-07-11T12:41:53Z</time>
      </trkpt>
      <trkpt lat="46.53967" lon="5.35111">
        <ele>229.6</ele>
        <time>2022-07-11T12:41:58Z</time>
      </trkpt>
      <trkpt lat="46.5401" lon="5.3506">
        <ele>229.4</ele>
        <time>2022-07-11T12:42:05Z</time>
      </trkpt>
      <trkpt lat="46.54053" lon="5.35026">
        <ele>228.6</ele>
        <time>2022-07-11T12:42:11Z</time>
      </trkpt>
      <trkpt lat="46.54061" lon="5.35021">
        <ele>228.4</ele>
        <time>2022-07-11T12:42:12Z</time>
      </trkpt>
      <trkpt lat="46.54095" lon="5.35005">
        <ele>227.6</ele>
        <time>2022-07-11T12:42:16Z</time>
      </trkpt>
      <trkpt lat="46.54103" lon="5.35002">
        <ele>227.2</ele>
        <time>2022-07-11T12:42:17Z</time>
      </trkpt>
      <trkpt lat="46.54142" lon="5.34979">
        <ele>226.4</ele>
        <time>2022-07-11T12:42:22Z</time>
      </trkpt>
      <trkpt lat="46.54149" lon="5.34972">
        <ele>226</ele>
        <time>2022-07-11T12:42:23Z</time>
      </trkpt>
      <trkpt lat="46.54176" lon="5.34941">
        <ele>225</ele>
        <time>2022-07-11T12:42:27Z</time>
      </trkpt>
      <trkpt lat="46.54183" lon="5.34933">
        <ele>225</ele>
        <time>2022-07-11T12:42:28Z</time>
      </trkpt>
      <trkpt lat="46.54212" lon="5.34906">
        <ele>223.8</ele>
        <time>2022-07-11T12:42:32Z</time>
      </trkpt>
      <trkpt lat="46.54226" lon="5.34893">
        <ele>223.4</ele>
        <time>2022-07-11T12:42:34Z</time>
      </trkpt>
      <trkpt lat="46.54237" lon="5.34876">
        <ele>223</ele>
        <time>2022-07-11T12:42:36Z</time>
      </trkpt>
      <trkpt lat="46.54247" lon="5.34857">
        <ele>222.6</ele>
        <time>2022-07-11T12:42:38Z</time>
      </trkpt>
      <trkpt lat="46.54275" lon="5.34814">
        <ele>222</ele>
        <time>2022-07-11T12:42:43Z</time>
      </trkpt>
      <trkpt lat="46.54288" lon="5.348">
        <ele>221.6</ele>
        <time>2022-07-11T12:42:45Z</time>
      </trkpt>
      <trkpt lat="46.54326" lon="5.34763">
        <ele>221.4</ele>
        <time>2022-07-11T12:42:51Z</time>
      </trkpt>
      <trkpt lat="46.54349" lon="5.34746">
        <ele>221.4</ele>
        <time>2022-07-11T12:42:55Z</time>
      </trkpt>
      <trkpt lat="46.54385" lon="5.34735">
        <ele>222.4</ele>
        <time>2022-07-11T12:43:01Z</time>
      </trkpt>
      <trkpt lat="46.54401" lon="5.34728">
        <ele>222.6</ele>
        <time>2022-07-11T12:43:04Z</time>
      </trkpt>
      <trkpt lat="46.54417" lon="5.34718">
        <ele>222.6</ele>
        <time>2022-07-11T12:43:07Z</time>
      </trkpt>
      <trkpt lat="46.54463" lon="5.34692">
        <ele>222.6</ele>
        <time>2022-07-11T12:43:15Z</time>
      </trkpt>
      <trkpt lat="46.54479" lon="5.3468">
        <ele>222.4</ele>
        <time>2022-07-11T12:43:18Z</time>
      </trkpt>
      <trkpt lat="46.54493" lon="5.34664">
        <ele>222.2</ele>
        <time>2022-07-11T12:43:21Z</time>
      </trkpt>
      <trkpt lat="46.54517" lon="5.34627">
        <ele>222</ele>
        <time>2022-07-11T12:43:27Z</time>
      </trkpt>
      <trkpt lat="46.54544" lon="5.34596">
        <ele>222.4</ele>
        <time>2022-07-11T12:43:33Z</time>
      </trkpt>
      <trkpt lat="46.54565" lon="5.34576">
        <ele>222.8</ele>
        <time>2022-07-11T12:43:38Z</time>
      </trkpt>
      <trkpt lat="46.54585" lon="5.34555">
        <ele>223.8</ele>
        <time>2022-07-11T12:43:44Z</time>
      </trkpt>
      <trkpt lat="46.54598" lon="5.34544">
        <ele>224.8</ele>
        <time>2022-07-11T12:43:48Z</time>
      </trkpt>
      <trkpt lat="46.54609" lon="5.34534">
        <ele>226.4</ele>
        <time>2022-07-11T12:43:51Z</time>
      </trkpt>
      <trkpt lat="46.54622" lon="5.34524">
        <ele>227</ele>
        <time>2022-07-11T12:43:54Z</time>
      </trkpt>
      <trkpt lat="46.54626" lon="5.3452">
        <ele>227.2</ele>
        <time>2022-07-11T12:43:55Z</time>
      </trkpt>
      <trkpt lat="46.54637" lon="5.34512">
        <ele>227.4</ele>
        <time>2022-07-11T12:43:57Z</time>
      </trkpt>
      <trkpt lat="46.54659" lon="5.34495">
        <ele>228.2</ele>
        <time>2022-07-11T12:44:01Z</time>
      </trkpt>
      <trkpt lat="46.54664" lon="5.34491">
        <ele>228.2</ele>
        <time>2022-07-11T12:44:02Z</time>
      </trkpt>
      <trkpt lat="46.54694" lon="5.34475">
        <ele>228.6</ele>
        <time>2022-07-11T12:44:07Z</time>
      </trkpt>
      <trkpt lat="46.54745" lon="5.34461">
        <ele>228.2</ele>
        <time>2022-07-11T12:44:15Z</time>
      </trkpt>
      <trkpt lat="46.54793" lon="5.34446">
        <ele>225.8</ele>
        <time>2022-07-11T12:44:22Z</time>
      </trkpt>
      <trkpt lat="46.54851" lon="5.34425">
        <ele>227.4</ele>
        <time>2022-07-11T12:44:31Z</time>
      </trkpt>
      <trkpt lat="46.54884" lon="5.34406">
        <ele>227.8</ele>
        <time>2022-07-11T12:44:37Z</time>
      </trkpt>
      <trkpt lat="46.54889" lon="5.34401">
        <ele>228</ele>
        <time>2022-07-11T12:44:38Z</time>
      </trkpt>
      <trkpt lat="46.54894" lon="5.34395">
        <ele>228.2</ele>
        <time>2022-07-11T12:44:39Z</time>
      </trkpt>
      <trkpt lat="46.54908" lon="5.3438">
        <ele>228.4</ele>
        <time>2022-07-11T12:44:42Z</time>
      </trkpt>
      <trkpt lat="46.54918" lon="5.3437">
        <ele>228.6</ele>
        <time>2022-07-11T12:44:44Z</time>
      </trkpt>
      <trkpt lat="46.54928" lon="5.3436">
        <ele>228.8</ele>
        <time>2022-07-11T12:44:46Z</time>
      </trkpt>
      <trkpt lat="46.54937" lon="5.34348">
        <ele>229</ele>
        <time>2022-07-11T12:44:48Z</time>
      </trkpt>
      <trkpt lat="46.54968" lon="5.34314">
        <ele>229.2</ele>
        <time>2022-07-11T12:44:54Z</time>
      </trkpt>
      <trkpt lat="46.55007" lon="5.34261">
        <ele>228.8</ele>
        <time>2022-07-11T12:45:02Z</time>
      </trkpt>
      <trkpt lat="46.5505" lon="5.34209">
        <ele>227.8</ele>
        <time>2022-07-11T12:45:10Z</time>
      </trkpt>
      <trkpt lat="46.55062" lon="5.34197">
        <ele>227.8</ele>
        <time>2022-07-11T12:45:12Z</time>
      </trkpt>
      <trkpt lat="46.55079" lon="5.34179">
        <ele>227.4</ele>
        <time>2022-07-11T12:45:15Z</time>
      </trkpt>
      <trkpt lat="46.55107" lon="5.34151">
        <ele>227</ele>
        <time>2022-07-11T12:45:20Z</time>
      </trkpt>
      <trkpt lat="46.55118" lon="5.34139">
        <ele>226.8</ele>
        <time>2022-07-11T12:45:22Z</time>
      </trkpt>
      <trkpt lat="46.55132" lon="5.3412">
        <ele>226.8</ele>
        <time>2022-07-11T12:45:25Z</time>
      </trkpt>
      <trkpt lat="46.55168" lon="5.34071">
        <ele>227</ele>
        <time>2022-07-11T12:45:33Z</time>
      </trkpt>
      <trkpt lat="46.55184" lon="5.34055">
        <ele>226.8</ele>
        <time>2022-07-11T12:45:37Z</time>
      </trkpt>
      <trkpt lat="46.55188" lon="5.3404">
        <ele>226.4</ele>
        <time>2022-07-11T12:45:40Z</time>
      </trkpt>
      <trkpt lat="46.55189" lon="5.34022">
        <ele>226.2</ele>
        <time>2022-07-11T12:45:42Z</time>
      </trkpt>
      <trkpt lat="46.55192" lon="5.34014">
        <ele>226.2</ele>
        <time>2022-07-11T12:45:43Z</time>
      </trkpt>
      <trkpt lat="46.55195" lon="5.34005">
        <ele>226</ele>
        <time>2022-07-11T12:45:44Z</time>
      </trkpt>
      <trkpt lat="46.55208" lon="5.33983">
        <ele>225.4</ele>
        <time>2022-07-11T12:45:47Z</time>
      </trkpt>
      <trkpt lat="46.55223" lon="5.33962">
        <ele>225</ele>
        <time>2022-07-11T12:45:50Z</time>
      </trkpt>
      <trkpt lat="46.55239" lon="5.33941">
        <ele>225</ele>
        <time>2022-07-11T12:45:53Z</time>
      </trkpt>
      <trkpt lat="46.55269" lon="5.33889">
        <ele>225.6</ele>
        <time>2022-07-11T12:46:00Z</time>
      </trkpt>
      <trkpt lat="46.55296" lon="5.33844">
        <ele>225.8</ele>
        <time>2022-07-11T12:46:06Z</time>
      </trkpt>
      <trkpt lat="46.55313" lon="5.33824">
        <ele>226</ele>
        <time>2022-07-11T12:46:09Z</time>
      </trkpt>
      <trkpt lat="46.55336" lon="5.33799">
        <ele>226.2</ele>
        <time>2022-07-11T12:46:13Z</time>
      </trkpt>
      <trkpt lat="46.55377" lon="5.33761">
        <ele>225.6</ele>
        <time>2022-07-11T12:46:20Z</time>
      </trkpt>
      <trkpt lat="46.55416" lon="5.33727">
        <ele>225.6</ele>
        <time>2022-07-11T12:46:27Z</time>
      </trkpt>
      <trkpt lat="46.55459" lon="5.33669">
        <ele>225.2</ele>
        <time>2022-07-11T12:46:36Z</time>
      </trkpt>
      <trkpt lat="46.55468" lon="5.33656">
        <ele>225</ele>
        <time>2022-07-11T12:46:38Z</time>
      </trkpt>
      <trkpt lat="46.55509" lon="5.33602">
        <ele>224.4</ele>
        <time>2022-07-11T12:46:46Z</time>
      </trkpt>
      <trkpt lat="46.55536" lon="5.33564">
        <ele>223.8</ele>
        <time>2022-07-11T12:46:51Z</time>
      </trkpt>
      <trkpt lat="46.55542" lon="5.33557">
        <ele>223.6</ele>
        <time>2022-07-11T12:46:52Z</time>
      </trkpt>
      <trkpt lat="46.55571" lon="5.33517">
        <ele>222.8</ele>
        <time>2022-07-11T12:46:57Z</time>
      </trkpt>
      <trkpt lat="46.55577" lon="5.33509">
        <ele>222.4</ele>
        <time>2022-07-11T12:46:58Z</time>
      </trkpt>
      <trkpt lat="46.55582" lon="5.33499">
        <ele>222.2</ele>
        <time>2022-07-11T12:46:59Z</time>
      </trkpt>
      <trkpt lat="46.55586" lon="5.33489">
        <ele>221.8</ele>
        <time>2022-07-11T12:47:00Z</time>
      </trkpt>
      <trkpt lat="46.5559" lon="5.33476">
        <ele>221.8</ele>
        <time>2022-07-11T12:47:01Z</time>
      </trkpt>
      <trkpt lat="46.55592" lon="5.33466">
        <ele>221.2</ele>
        <time>2022-07-11T12:47:02Z</time>
      </trkpt>
      <trkpt lat="46.55594" lon="5.33453">
        <ele>220.6</ele>
        <time>2022-07-11T12:47:03Z</time>
      </trkpt>
      <trkpt lat="46.55596" lon="5.33426">
        <ele>219.6</ele>
        <time>2022-07-11T12:47:05Z</time>
      </trkpt>
      <trkpt lat="46.55598" lon="5.33399">
        <ele>219</ele>
        <time>2022-07-11T12:47:07Z</time>
      </trkpt>
      <trkpt lat="46.55601" lon="5.33369">
        <ele>218.6</ele>
        <time>2022-07-11T12:47:09Z</time>
      </trkpt>
      <trkpt lat="46.55604" lon="5.33356">
        <ele>218.4</ele>
        <time>2022-07-11T12:47:10Z</time>
      </trkpt>
      <trkpt lat="46.55609" lon="5.33333">
        <ele>218</ele>
        <time>2022-07-11T12:47:12Z</time>
      </trkpt>
      <trkpt lat="46.55622" lon="5.33285">
        <ele>217.4</ele>
        <time>2022-07-11T12:47:16Z</time>
      </trkpt>
      <trkpt lat="46.55633" lon="5.33248">
        <ele>216.8</ele>
        <time>2022-07-11T12:47:19Z</time>
      </trkpt>
      <trkpt lat="46.55647" lon="5.33204">
        <ele>216.2</ele>
        <time>2022-07-11T12:47:23Z</time>
      </trkpt>
      <trkpt lat="46.55659" lon="5.3316">
        <ele>216</ele>
        <time>2022-07-11T12:47:27Z</time>
      </trkpt>
      <trkpt lat="46.55676" lon="5.33085">
        <ele>215.8</ele>
        <time>2022-07-11T12:47:34Z</time>
      </trkpt>
      <trkpt lat="46.55693" lon="5.33001">
        <ele>215.6</ele>
        <time>2022-07-11T12:47:42Z</time>
      </trkpt>
      <trkpt lat="46.55706" lon="5.32921">
        <ele>215.6</ele>
        <time>2022-07-11T12:47:50Z</time>
      </trkpt>
      <trkpt lat="46.55718" lon="5.3285">
        <ele>216</ele>
        <time>2022-07-11T12:47:57Z</time>
      </trkpt>
      <trkpt lat="46.5573" lon="5.32792">
        <ele>216.2</ele>
        <time>2022-07-11T12:48:03Z</time>
      </trkpt>
      <trkpt lat="46.55749" lon="5.32713">
        <ele>216.2</ele>
        <time>2022-07-11T12:48:11Z</time>
      </trkpt>
      <trkpt lat="46.55752" lon="5.32706">
        <ele>216.4</ele>
        <time>2022-07-11T12:48:12Z</time>
      </trkpt>
      <trkpt lat="46.55756" lon="5.32697">
        <ele>216.4</ele>
        <time>2022-07-11T12:48:13Z</time>
      </trkpt>
      <trkpt lat="46.5576" lon="5.32689">
        <ele>216.2</ele>
        <time>2022-07-11T12:48:14Z</time>
      </trkpt>
      <trkpt lat="46.55772" lon="5.32678">
        <ele>216.2</ele>
        <time>2022-07-11T12:48:16Z</time>
      </trkpt>
      <trkpt lat="46.55785" lon="5.3267">
        <ele>216</ele>
        <time>2022-07-11T12:48:18Z</time>
      </trkpt>
      <trkpt lat="46.55798" lon="5.32665">
        <ele>216</ele>
        <time>2022-07-11T12:48:20Z</time>
      </trkpt>
      <trkpt lat="46.55804" lon="5.32664">
        <ele>216</ele>
        <time>2022-07-11T12:48:21Z</time>
      </trkpt>
      <trkpt lat="46.5583" lon="5.32662">
        <ele>216</ele>
        <time>2022-07-11T12:48:25Z</time>
      </trkpt>
      <trkpt lat="46.55873" lon="5.32651">
        <ele>216.2</ele>
        <time>2022-07-11T12:48:32Z</time>
      </trkpt>
      <trkpt lat="46.55895" lon="5.32634">
        <ele>216.4</ele>
        <time>2022-07-11T12:48:36Z</time>
      </trkpt>
      <trkpt lat="46.559" lon="5.32628">
        <ele>216.4</ele>
        <time>2022-07-11T12:48:37Z</time>
      </trkpt>
      <trkpt lat="46.5592" lon="5.32595">
        <ele>216.6</ele>
        <time>2022-07-11T12:48:42Z</time>
      </trkpt>
      <trkpt lat="46.55948" lon="5.32527">
        <ele>216.6</ele>
        <time>2022-07-11T12:48:51Z</time>
      </trkpt>
      <trkpt lat="46.55974" lon="5.32466">
        <ele>216.8</ele>
        <time>2022-07-11T12:48:59Z</time>
      </trkpt>
      <trkpt lat="46.56003" lon="5.32399">
        <ele>217.2</ele>
        <time>2022-07-11T12:49:08Z</time>
      </trkpt>
      <trkpt lat="46.56034" lon="5.32347">
        <ele>217.4</ele>
        <time>2022-07-11T12:49:16Z</time>
      </trkpt>
      <trkpt lat="46.56038" lon="5.32341">
        <ele>217.4</ele>
        <time>2022-07-11T12:49:17Z</time>
      </trkpt>
      <trkpt lat="46.56067" lon="5.32305">
        <ele>218</ele>
        <time>2022-07-11T12:49:24Z</time>
      </trkpt>
      <trkpt lat="46.5608" lon="5.3229">
        <ele>218.6</ele>
        <time>2022-07-11T12:49:27Z</time>
      </trkpt>
      <trkpt lat="46.561" lon="5.32266">
        <ele>219.4</ele>
        <time>2022-07-11T12:49:32Z</time>
      </trkpt>
      <trkpt lat="46.56108" lon="5.32256">
        <ele>219.8</ele>
        <time>2022-07-11T12:49:34Z</time>
      </trkpt>
      <trkpt lat="46.56119" lon="5.3224">
        <ele>220.2</ele>
        <time>2022-07-11T12:49:37Z</time>
      </trkpt>
      <trkpt lat="46.56124" lon="5.32234">
        <ele>220.4</ele>
        <time>2022-07-11T12:49:38Z</time>
      </trkpt>
      <trkpt lat="46.56142" lon="5.32214">
        <ele>221</ele>
        <time>2022-07-11T12:49:42Z</time>
      </trkpt>
      <trkpt lat="46.56155" lon="5.32198">
        <ele>221.8</ele>
        <time>2022-07-11T12:49:45Z</time>
      </trkpt>
      <trkpt lat="46.56159" lon="5.32193">
        <ele>222</ele>
        <time>2022-07-11T12:49:46Z</time>
      </trkpt>
      <trkpt lat="46.56189" lon="5.32156">
        <ele>222.8</ele>
        <time>2022-07-11T12:49:53Z</time>
      </trkpt>
      <trkpt lat="46.56205" lon="5.32134">
        <ele>223</ele>
        <time>2022-07-11T12:49:57Z</time>
      </trkpt>
      <trkpt lat="46.56217" lon="5.32119">
        <ele>223.2</ele>
        <time>2022-07-11T12:50:00Z</time>
      </trkpt>
      <trkpt lat="46.56257" lon="5.3207">
        <ele>224</ele>
        <time>2022-07-11T12:50:09Z</time>
      </trkpt>
      <trkpt lat="46.56292" lon="5.32041">
        <ele>224</ele>
        <time>2022-07-11T12:50:15Z</time>
      </trkpt>
      <trkpt lat="46.56341" lon="5.32007">
        <ele>223.4</ele>
        <time>2022-07-11T12:50:23Z</time>
      </trkpt>
      <trkpt lat="46.56347" lon="5.32002">
        <ele>223.4</ele>
        <time>2022-07-11T12:50:24Z</time>
      </trkpt>
      <trkpt lat="46.56389" lon="5.31973">
        <ele>222.8</ele>
        <time>2022-07-11T12:50:31Z</time>
      </trkpt>
      <trkpt lat="46.56427" lon="5.31961">
        <ele>223</ele>
        <time>2022-07-11T12:50:37Z</time>
      </trkpt>
      <trkpt lat="46.56483" lon="5.3196">
        <ele>223.4</ele>
        <time>2022-07-11T12:50:46Z</time>
      </trkpt>
      <trkpt lat="46.56489" lon="5.3196">
        <ele>223.6</ele>
        <time>2022-07-11T12:50:47Z</time>
      </trkpt>
      <trkpt lat="46.56528" lon="5.31955">
        <ele>223.8</ele>
        <time>2022-07-11T12:50:53Z</time>
      </trkpt>
      <trkpt lat="46.56542" lon="5.31954">
        <ele>223.8</ele>
        <time>2022-07-11T12:50:55Z</time>
      </trkpt>
      <trkpt lat="46.56574" lon="5.31945">
        <ele>223.6</ele>
        <time>2022-07-11T12:51:00Z</time>
      </trkpt>
      <trkpt lat="46.56609" lon="5.31921">
        <ele>223.4</ele>
        <time>2022-07-11T12:51:05Z</time>
      </trkpt>
      <trkpt lat="46.56653" lon="5.31877">
        <ele>223</ele>
        <time>2022-07-11T12:51:12Z</time>
      </trkpt>
      <trkpt lat="46.56701" lon="5.31829">
        <ele>222.8</ele>
        <time>2022-07-11T12:51:20Z</time>
      </trkpt>
      <trkpt lat="46.5675" lon="5.31784">
        <ele>223.4</ele>
        <time>2022-07-11T12:51:29Z</time>
      </trkpt>
      <trkpt lat="46.56793" lon="5.31742">
        <ele>224.2</ele>
        <time>2022-07-11T12:51:37Z</time>
      </trkpt>
      <trkpt lat="46.56809" lon="5.31726">
        <ele>224.2</ele>
        <time>2022-07-11T12:51:40Z</time>
      </trkpt>
      <trkpt lat="46.56843" lon="5.31695">
        <ele>223.8</ele>
        <time>2022-07-11T12:51:46Z</time>
      </trkpt>
      <trkpt lat="46.5685" lon="5.31691">
        <ele>223.6</ele>
        <time>2022-07-11T12:51:47Z</time>
      </trkpt>
      <trkpt lat="46.56862" lon="5.31687">
        <ele>223.6</ele>
        <time>2022-07-11T12:51:49Z</time>
      </trkpt>
      <trkpt lat="46.56881" lon="5.31685">
        <ele>223.4</ele>
        <time>2022-07-11T12:51:52Z</time>
      </trkpt>
      <trkpt lat="46.56926" lon="5.31686">
        <ele>223.2</ele>
        <time>2022-07-11T12:51:59Z</time>
      </trkpt>
      <trkpt lat="46.56947" lon="5.31685">
        <ele>223</ele>
        <time>2022-07-11T12:52:02Z</time>
      </trkpt>
      <trkpt lat="46.56995" lon="5.31679">
        <ele>223</ele>
        <time>2022-07-11T12:52:09Z</time>
      </trkpt>
      <trkpt lat="46.57046" lon="5.3167">
        <ele>223</ele>
        <time>2022-07-11T12:52:17Z</time>
      </trkpt>
      <trkpt lat="46.57104" lon="5.31664">
        <ele>223</ele>
        <time>2022-07-11T12:52:26Z</time>
      </trkpt>
      <trkpt lat="46.57111" lon="5.31663">
        <ele>223</ele>
        <time>2022-07-11T12:52:27Z</time>
      </trkpt>
      <trkpt lat="46.57156" lon="5.31661">
        <ele>222.8</ele>
        <time>2022-07-11T12:52:34Z</time>
      </trkpt>
      <trkpt lat="46.572" lon="5.31658">
        <ele>223.6</ele>
        <time>2022-07-11T12:52:41Z</time>
      </trkpt>
      <trkpt lat="46.57258" lon="5.31654">
        <ele>224</ele>
        <time>2022-07-11T12:52:50Z</time>
      </trkpt>
      <trkpt lat="46.57314" lon="5.31643">
        <ele>223.6</ele>
        <time>2022-07-11T12:52:59Z</time>
      </trkpt>
      <trkpt lat="46.57371" lon="5.31628">
        <ele>223.4</ele>
        <time>2022-07-11T12:53:08Z</time>
      </trkpt>
      <trkpt lat="46.57377" lon="5.31626">
        <ele>223.4</ele>
        <time>2022-07-11T12:53:09Z</time>
      </trkpt>
      <trkpt lat="46.57424" lon="5.31618">
        <ele>223.4</ele>
        <time>2022-07-11T12:53:16Z</time>
      </trkpt>
      <trkpt lat="46.57481" lon="5.31615">
        <ele>223.6</ele>
        <time>2022-07-11T12:53:25Z</time>
      </trkpt>
      <trkpt lat="46.57536" lon="5.31607">
        <ele>223.2</ele>
        <time>2022-07-11T12:53:34Z</time>
      </trkpt>
      <trkpt lat="46.57542" lon="5.31607">
        <ele>223.2</ele>
        <time>2022-07-11T12:53:35Z</time>
      </trkpt>
      <trkpt lat="46.57599" lon="5.31599">
        <ele>223.4</ele>
        <time>2022-07-11T12:53:44Z</time>
      </trkpt>
      <trkpt lat="46.57612" lon="5.31597">
        <ele>223.4</ele>
        <time>2022-07-11T12:53:46Z</time>
      </trkpt>
      <trkpt lat="46.57657" lon="5.3159">
        <ele>223.4</ele>
        <time>2022-07-11T12:53:53Z</time>
      </trkpt>
      <trkpt lat="46.57704" lon="5.31579">
        <ele>223.6</ele>
        <time>2022-07-11T12:54:00Z</time>
      </trkpt>
      <trkpt lat="46.5774" lon="5.31556">
        <ele>223.6</ele>
        <time>2022-07-11T12:54:06Z</time>
      </trkpt>
      <trkpt lat="46.57785" lon="5.31521">
        <ele>223</ele>
        <time>2022-07-11T12:54:13Z</time>
      </trkpt>
      <trkpt lat="46.57818" lon="5.31499">
        <ele>222.6</ele>
        <time>2022-07-11T12:54:18Z</time>
      </trkpt>
      <trkpt lat="46.57832" lon="5.31492">
        <ele>222.2</ele>
        <time>2022-07-11T12:54:20Z</time>
      </trkpt>
      <trkpt lat="46.57869" lon="5.31479">
        <ele>221.8</ele>
        <time>2022-07-11T12:54:25Z</time>
      </trkpt>
      <trkpt lat="46.57928" lon="5.31461">
        <ele>221.2</ele>
        <time>2022-07-11T12:54:33Z</time>
      </trkpt>
      <trkpt lat="46.57957" lon="5.31452">
        <ele>220.6</ele>
        <time>2022-07-11T12:54:37Z</time>
      </trkpt>
      <trkpt lat="46.58001" lon="5.31439">
        <ele>220</ele>
        <time>2022-07-11T12:54:43Z</time>
      </trkpt>
      <trkpt lat="46.58036" lon="5.3143">
        <ele>219.6</ele>
        <time>2022-07-11T12:54:48Z</time>
      </trkpt>
      <trkpt lat="46.58078" lon="5.31431">
        <ele>219.4</ele>
        <time>2022-07-11T12:54:54Z</time>
      </trkpt>
      <trkpt lat="46.58125" lon="5.31434">
        <ele>219.4</ele>
        <time>2022-07-11T12:55:01Z</time>
      </trkpt>
      <trkpt lat="46.58131" lon="5.31432">
        <ele>219.4</ele>
        <time>2022-07-11T12:55:02Z</time>
      </trkpt>
      <trkpt lat="46.58138" lon="5.31429">
        <ele>219.4</ele>
        <time>2022-07-11T12:55:03Z</time>
      </trkpt>
      <trkpt lat="46.5815" lon="5.31421">
        <ele>219.4</ele>
        <time>2022-07-11T12:55:05Z</time>
      </trkpt>
      <trkpt lat="46.58156" lon="5.31417">
        <ele>219.4</ele>
        <time>2022-07-11T12:55:06Z</time>
      </trkpt>
      <trkpt lat="46.58194" lon="5.31387">
        <ele>219.2</ele>
        <time>2022-07-11T12:55:12Z</time>
      </trkpt>
      <trkpt lat="46.5822" lon="5.31366">
        <ele>218.8</ele>
        <time>2022-07-11T12:55:16Z</time>
      </trkpt>
      <trkpt lat="46.58253" lon="5.31339">
        <ele>218.2</ele>
        <time>2022-07-11T12:55:21Z</time>
      </trkpt>
      <trkpt lat="46.58267" lon="5.31328">
        <ele>217.8</ele>
        <time>2022-07-11T12:55:23Z</time>
      </trkpt>
      <trkpt lat="46.58313" lon="5.3129">
        <ele>217</ele>
        <time>2022-07-11T12:55:30Z</time>
      </trkpt>
      <trkpt lat="46.58321" lon="5.31284">
        <ele>217</ele>
        <time>2022-07-11T12:55:31Z</time>
      </trkpt>
      <trkpt lat="46.58363" lon="5.31261">
        <ele>216.2</ele>
        <time>2022-07-11T12:55:37Z</time>
      </trkpt>
      <trkpt lat="46.58376" lon="5.31255">
        <ele>216</ele>
        <time>2022-07-11T12:55:39Z</time>
      </trkpt>
      <trkpt lat="46.58416" lon="5.31238">
        <ele>215.8</ele>
        <time>2022-07-11T12:55:45Z</time>
      </trkpt>
      <trkpt lat="46.5847" lon="5.31215">
        <ele>215.8</ele>
        <time>2022-07-11T12:55:53Z</time>
      </trkpt>
      <trkpt lat="46.58477" lon="5.31212">
        <ele>216</ele>
        <time>2022-07-11T12:55:54Z</time>
      </trkpt>
      <trkpt lat="46.58524" lon="5.3119">
        <ele>215.6</ele>
        <time>2022-07-11T12:56:01Z</time>
      </trkpt>
      <trkpt lat="46.58537" lon="5.31183">
        <ele>215.6</ele>
        <time>2022-07-11T12:56:03Z</time>
      </trkpt>
      <trkpt lat="46.58582" lon="5.31146">
        <ele>215.4</ele>
        <time>2022-07-11T12:56:10Z</time>
      </trkpt>
      <trkpt lat="46.58626" lon="5.31101">
        <ele>215</ele>
        <time>2022-07-11T12:56:17Z</time>
      </trkpt>
      <trkpt lat="46.58638" lon="5.31088">
        <ele>214.8</ele>
        <time>2022-07-11T12:56:19Z</time>
      </trkpt>
      <trkpt lat="46.58685" lon="5.31039">
        <ele>214.2</ele>
        <time>2022-07-11T12:56:27Z</time>
      </trkpt>
      <trkpt lat="46.58731" lon="5.30993">
        <ele>214</ele>
        <time>2022-07-11T12:56:35Z</time>
      </trkpt>
      <trkpt lat="46.58742" lon="5.30981">
        <ele>214</ele>
        <time>2022-07-11T12:56:37Z</time>
      </trkpt>
      <trkpt lat="46.58778" lon="5.30946">
        <ele>214.8</ele>
        <time>2022-07-11T12:56:44Z</time>
      </trkpt>
      <trkpt lat="46.58806" lon="5.30916">
        <ele>215.8</ele>
        <time>2022-07-11T12:56:50Z</time>
      </trkpt>
      <trkpt lat="46.58818" lon="5.3091">
        <ele>216.2</ele>
        <time>2022-07-11T12:56:52Z</time>
      </trkpt>
      <trkpt lat="46.58852" lon="5.30902">
        <ele>217.4</ele>
        <time>2022-07-11T12:56:58Z</time>
      </trkpt>
      <trkpt lat="46.58858" lon="5.30901">
        <ele>217.6</ele>
        <time>2022-07-11T12:56:59Z</time>
      </trkpt>
      <trkpt lat="46.58879" lon="5.30896">
        <ele>217.8</ele>
        <time>2022-07-11T12:57:02Z</time>
      </trkpt>
      <trkpt lat="46.58886" lon="5.30895">
        <ele>217.8</ele>
        <time>2022-07-11T12:57:03Z</time>
      </trkpt>
      <trkpt lat="46.58941" lon="5.3089">
        <ele>217.8</ele>
        <time>2022-07-11T12:57:10Z</time>
      </trkpt>
      <trkpt lat="46.58947" lon="5.30889">
        <ele>217.8</ele>
        <time>2022-07-11T12:57:11Z</time>
      </trkpt>
      <trkpt lat="46.59006" lon="5.30882">
        <ele>217.6</ele>
        <time>2022-07-11T12:57:18Z</time>
      </trkpt>
      <trkpt lat="46.59021" lon="5.3088">
        <ele>217.2</ele>
        <time>2022-07-11T12:57:20Z</time>
      </trkpt>
      <trkpt lat="46.59058" lon="5.30874">
        <ele>216.2</ele>
        <time>2022-07-11T12:57:24Z</time>
      </trkpt>
      <trkpt lat="46.5907" lon="5.30873">
        <ele>215.4</ele>
        <time>2022-07-11T12:57:25Z</time>
      </trkpt>
      <trkpt lat="46.59078" lon="5.30872">
        <ele>215</ele>
        <time>2022-07-11T12:57:26Z</time>
      </trkpt>
      <trkpt lat="46.59107" lon="5.30868">
        <ele>213.8</ele>
        <time>2022-07-11T12:57:29Z</time>
      </trkpt>
      <trkpt lat="46.59128" lon="5.30865">
        <ele>212.8</ele>
        <time>2022-07-11T12:57:31Z</time>
      </trkpt>
      <trkpt lat="46.59136" lon="5.30864">
        <ele>212.4</ele>
        <time>2022-07-11T12:57:32Z</time>
      </trkpt>
      <trkpt lat="46.59157" lon="5.30861">
        <ele>211.8</ele>
        <time>2022-07-11T12:57:34Z</time>
      </trkpt>
      <trkpt lat="46.59215" lon="5.30854">
        <ele>210.8</ele>
        <time>2022-07-11T12:57:40Z</time>
      </trkpt>
      <trkpt lat="46.59224" lon="5.30853">
        <ele>210.4</ele>
        <time>2022-07-11T12:57:41Z</time>
      </trkpt>
      <trkpt lat="46.59243" lon="5.30851">
        <ele>209.6</ele>
        <time>2022-07-11T12:57:43Z</time>
      </trkpt>
      <trkpt lat="46.5927" lon="5.30847">
        <ele>208.6</ele>
        <time>2022-07-11T12:57:46Z</time>
      </trkpt>
      <trkpt lat="46.5929" lon="5.30845">
        <ele>207.6</ele>
        <time>2022-07-11T12:57:48Z</time>
      </trkpt>
      <trkpt lat="46.59301" lon="5.30843">
        <ele>207</ele>
        <time>2022-07-11T12:57:49Z</time>
      </trkpt>
      <trkpt lat="46.59309" lon="5.30842">
        <ele>206.2</ele>
        <time>2022-07-11T12:57:50Z</time>
      </trkpt>
      <trkpt lat="46.59329" lon="5.30839">
        <ele>205.2</ele>
        <time>2022-07-11T12:57:52Z</time>
      </trkpt>
      <trkpt lat="46.59345" lon="5.30837">
        <ele>203.8</ele>
        <time>2022-07-11T12:57:54Z</time>
      </trkpt>
      <trkpt lat="46.59384" lon="5.30832">
        <ele>202.8</ele>
        <time>2022-07-11T12:57:58Z</time>
      </trkpt>
      <trkpt lat="46.5942" lon="5.30828">
        <ele>201.8</ele>
        <time>2022-07-11T12:58:02Z</time>
      </trkpt>
      <trkpt lat="46.59428" lon="5.30826">
        <ele>201.8</ele>
        <time>2022-07-11T12:58:03Z</time>
      </trkpt>
      <trkpt lat="46.59485" lon="5.30819">
        <ele>200.6</ele>
        <time>2022-07-11T12:58:10Z</time>
      </trkpt>
      <trkpt lat="46.59494" lon="5.30818">
        <ele>200.6</ele>
        <time>2022-07-11T12:58:11Z</time>
      </trkpt>
      <trkpt lat="46.59552" lon="5.30809">
        <ele>200</ele>
        <time>2022-07-11T12:58:19Z</time>
      </trkpt>
      <trkpt lat="46.59565" lon="5.30808">
        <ele>199.6</ele>
        <time>2022-07-11T12:58:21Z</time>
      </trkpt>
      <trkpt lat="46.59623" lon="5.30801">
        <ele>198.8</ele>
        <time>2022-07-11T12:58:29Z</time>
      </trkpt>
      <trkpt lat="46.59667" lon="5.30795">
        <ele>199.2</ele>
        <time>2022-07-11T12:58:36Z</time>
      </trkpt>
      <trkpt lat="46.59703" lon="5.30793">
        <ele>199.6</ele>
        <time>2022-07-11T12:58:42Z</time>
      </trkpt>
      <trkpt lat="46.5973" lon="5.30792">
        <ele>200.8</ele>
        <time>2022-07-11T12:58:47Z</time>
      </trkpt>
      <trkpt lat="46.59736" lon="5.30791">
        <ele>201.2</ele>
        <time>2022-07-11T12:58:48Z</time>
      </trkpt>
      <trkpt lat="46.59756" lon="5.30789">
        <ele>202</ele>
        <time>2022-07-11T12:58:52Z</time>
      </trkpt>
      <trkpt lat="46.59766" lon="5.30789">
        <ele>202.6</ele>
        <time>2022-07-11T12:58:54Z</time>
      </trkpt>
      <trkpt lat="46.59771" lon="5.30789">
        <ele>203</ele>
        <time>2022-07-11T12:58:55Z</time>
      </trkpt>
      <trkpt lat="46.59785" lon="5.30792">
        <ele>203.8</ele>
        <time>2022-07-11T12:58:58Z</time>
      </trkpt>
      <trkpt lat="46.59793" lon="5.30796">
        <ele>204.2</ele>
        <time>2022-07-11T12:59:00Z</time>
      </trkpt>
      <trkpt lat="46.59817" lon="5.30806">
        <ele>205.4</ele>
        <time>2022-07-11T12:59:05Z</time>
      </trkpt>
      <trkpt lat="46.59833" lon="5.30813">
        <ele>206</ele>
        <time>2022-07-11T12:59:08Z</time>
      </trkpt>
      <trkpt lat="46.59849" lon="5.30817">
        <ele>206.6</ele>
        <time>2022-07-11T12:59:11Z</time>
      </trkpt>
      <trkpt lat="46.59876" lon="5.30823">
        <ele>207</ele>
        <time>2022-07-11T12:59:16Z</time>
      </trkpt>
      <trkpt lat="46.59882" lon="5.30824">
        <ele>207</ele>
        <time>2022-07-11T12:59:17Z</time>
      </trkpt>
      <trkpt lat="46.59904" lon="5.30829">
        <ele>207.6</ele>
        <time>2022-07-11T12:59:21Z</time>
      </trkpt>
      <trkpt lat="46.59914" lon="5.30831">
        <ele>207.8</ele>
        <time>2022-07-11T12:59:23Z</time>
      </trkpt>
      <trkpt lat="46.59952" lon="5.30838">
        <ele>208.6</ele>
        <time>2022-07-11T12:59:30Z</time>
      </trkpt>
      <trkpt lat="46.59961" lon="5.30842">
        <ele>208.8</ele>
        <time>2022-07-11T12:59:32Z</time>
      </trkpt>
      <trkpt lat="46.59966" lon="5.30846">
        <ele>208.8</ele>
        <time>2022-07-11T12:59:33Z</time>
      </trkpt>
      <trkpt lat="46.59971" lon="5.3085">
        <ele>208.8</ele>
        <time>2022-07-11T12:59:34Z</time>
      </trkpt>
      <trkpt lat="46.59988" lon="5.30869">
        <ele>209.6</ele>
        <time>2022-07-11T12:59:38Z</time>
      </trkpt>
      <trkpt lat="46.59993" lon="5.30873">
        <ele>209.8</ele>
        <time>2022-07-11T12:59:39Z</time>
      </trkpt>
      <trkpt lat="46.60013" lon="5.30898">
        <ele>210.8</ele>
        <time>2022-07-11T12:59:44Z</time>
      </trkpt>
      <trkpt lat="46.60021" lon="5.30907">
        <ele>211.2</ele>
        <time>2022-07-11T12:59:46Z</time>
      </trkpt>
      <trkpt lat="46.6004" lon="5.30932">
        <ele>211.8</ele>
        <time>2022-07-11T12:59:51Z</time>
      </trkpt>
      <trkpt lat="46.60068" lon="5.30962">
        <ele>212.8</ele>
        <time>2022-07-11T12:59:57Z</time>
      </trkpt>
      <trkpt lat="46.60081" lon="5.30976">
        <ele>213.4</ele>
        <time>2022-07-11T13:00:00Z</time>
      </trkpt>
      <trkpt lat="46.60085" lon="5.3098">
        <ele>213.4</ele>
        <time>2022-07-11T13:00:01Z</time>
      </trkpt>
      <trkpt lat="46.60095" lon="5.30991">
        <ele>213.8</ele>
        <time>2022-07-11T13:00:04Z</time>
      </trkpt>
      <trkpt lat="46.60099" lon="5.30994">
        <ele>214</ele>
        <time>2022-07-11T13:00:05Z</time>
      </trkpt>
      <trkpt lat="46.60104" lon="5.31">
        <ele>214</ele>
        <time>2022-07-11T13:00:07Z</time>
      </trkpt>
      <trkpt lat="46.60106" lon="5.31004">
        <ele>214</ele>
        <time>2022-07-11T13:00:08Z</time>
      </trkpt>
      <trkpt lat="46.60107" lon="5.31007">
        <ele>214.2</ele>
        <time>2022-07-11T13:00:09Z</time>
      </trkpt>
      <trkpt lat="46.60116" lon="5.31012">
        <ele>214.2</ele>
        <time>2022-07-11T13:00:12Z</time>
      </trkpt>
      <trkpt lat="46.60138" lon="5.31015">
        <ele>214.2</ele>
        <time>2022-07-11T13:00:16Z</time>
      </trkpt>
      <trkpt lat="46.60182" lon="5.31027">
        <ele>213.6</ele>
        <time>2022-07-11T13:00:23Z</time>
      </trkpt>
      <trkpt lat="46.60214" lon="5.31036">
        <ele>213.4</ele>
        <time>2022-07-11T13:00:28Z</time>
      </trkpt>
      <trkpt lat="46.60228" lon="5.31042">
        <ele>213.2</ele>
        <time>2022-07-11T13:00:30Z</time>
      </trkpt>
      <trkpt lat="46.60256" lon="5.31055">
        <ele>212.8</ele>
        <time>2022-07-11T13:00:34Z</time>
      </trkpt>
      <trkpt lat="46.60262" lon="5.31059">
        <ele>212.8</ele>
        <time>2022-07-11T13:00:35Z</time>
      </trkpt>
      <trkpt lat="46.60299" lon="5.31079">
        <ele>211.8</ele>
        <time>2022-07-11T13:00:40Z</time>
      </trkpt>
      <trkpt lat="46.60313" lon="5.31088">
        <ele>211.6</ele>
        <time>2022-07-11T13:00:42Z</time>
      </trkpt>
      <trkpt lat="46.6034" lon="5.3111">
        <ele>211.2</ele>
        <time>2022-07-11T13:00:46Z</time>
      </trkpt>
      <trkpt lat="46.60345" lon="5.31117">
        <ele>211.2</ele>
        <time>2022-07-11T13:00:47Z</time>
      </trkpt>
      <trkpt lat="46.6036" lon="5.31142">
        <ele>210.6</ele>
        <time>2022-07-11T13:00:50Z</time>
      </trkpt>
      <trkpt lat="46.60364" lon="5.31151">
        <ele>210.6</ele>
        <time>2022-07-11T13:00:51Z</time>
      </trkpt>
      <trkpt lat="46.60367" lon="5.31161">
        <ele>210.2</ele>
        <time>2022-07-11T13:00:52Z</time>
      </trkpt>
      <trkpt lat="46.60375" lon="5.31214">
        <ele>209.8</ele>
        <time>2022-07-11T13:00:57Z</time>
      </trkpt>
      <trkpt lat="46.60369" lon="5.31277">
        <ele>210</ele>
        <time>2022-07-11T13:01:03Z</time>
      </trkpt>
      <trkpt lat="46.60364" lon="5.31346">
        <ele>210.8</ele>
        <time>2022-07-11T13:01:10Z</time>
      </trkpt>
      <trkpt lat="46.60368" lon="5.31385">
        <ele>211</ele>
        <time>2022-07-11T13:01:14Z</time>
      </trkpt>
      <trkpt lat="46.60371" lon="5.31394">
        <ele>211.2</ele>
        <time>2022-07-11T13:01:15Z</time>
      </trkpt>
      <trkpt lat="46.60374" lon="5.31404">
        <ele>211.4</ele>
        <time>2022-07-11T13:01:16Z</time>
      </trkpt>
      <trkpt lat="46.60385" lon="5.31419">
        <ele>211.4</ele>
        <time>2022-07-11T13:01:18Z</time>
      </trkpt>
      <trkpt lat="46.60424" lon="5.31462">
        <ele>211.4</ele>
        <time>2022-07-11T13:01:24Z</time>
      </trkpt>
      <trkpt lat="46.60462" lon="5.31517">
        <ele>211.2</ele>
        <time>2022-07-11T13:01:31Z</time>
      </trkpt>
      <trkpt lat="46.60494" lon="5.31557">
        <ele>211.2</ele>
        <time>2022-07-11T13:01:37Z</time>
      </trkpt>
      <trkpt lat="46.60529" lon="5.31588">
        <ele>211.6</ele>
        <time>2022-07-11T13:01:44Z</time>
      </trkpt>
      <trkpt lat="46.60534" lon="5.31593">
        <ele>211.8</ele>
        <time>2022-07-11T13:01:45Z</time>
      </trkpt>
      <trkpt lat="46.6057" lon="5.31627">
        <ele>212.2</ele>
        <time>2022-07-11T13:01:53Z</time>
      </trkpt>
      <trkpt lat="46.60583" lon="5.31639">
        <ele>213</ele>
        <time>2022-07-11T13:01:56Z</time>
      </trkpt>
      <trkpt lat="46.60607" lon="5.31657">
        <ele>213.4</ele>
        <time>2022-07-11T13:02:01Z</time>
      </trkpt>
      <trkpt lat="46.60617" lon="5.31662">
        <ele>214</ele>
        <time>2022-07-11T13:02:03Z</time>
      </trkpt>
      <trkpt lat="46.60623" lon="5.31665">
        <ele>214</ele>
        <time>2022-07-11T13:02:04Z</time>
      </trkpt>
      <trkpt lat="46.60658" lon="5.3168">
        <ele>214.4</ele>
        <time>2022-07-11T13:02:10Z</time>
      </trkpt>
      <trkpt lat="46.60715" lon="5.31702">
        <ele>214.2</ele>
        <time>2022-07-11T13:02:19Z</time>
      </trkpt>
      <trkpt lat="46.60751" lon="5.31726">
        <ele>214</ele>
        <time>2022-07-11T13:02:25Z</time>
      </trkpt>
      <trkpt lat="46.60757" lon="5.31732">
        <ele>214</ele>
        <time>2022-07-11T13:02:26Z</time>
      </trkpt>
      <trkpt lat="46.60776" lon="5.31762">
        <ele>213.8</ele>
        <time>2022-07-11T13:02:30Z</time>
      </trkpt>
      <trkpt lat="46.60796" lon="5.31809">
        <ele>213.4</ele>
        <time>2022-07-11T13:02:35Z</time>
      </trkpt>
      <trkpt lat="46.60805" lon="5.3184">
        <ele>212.6</ele>
        <time>2022-07-11T13:02:38Z</time>
      </trkpt>
      <trkpt lat="46.60813" lon="5.31869">
        <ele>212.2</ele>
        <time>2022-07-11T13:02:41Z</time>
      </trkpt>
      <trkpt lat="46.60819" lon="5.31894">
        <ele>211.8</ele>
        <time>2022-07-11T13:02:44Z</time>
      </trkpt>
      <trkpt lat="46.60824" lon="5.31919">
        <ele>211.4</ele>
        <time>2022-07-11T13:02:47Z</time>
      </trkpt>
      <trkpt lat="46.60827" lon="5.31935">
        <ele>211.6</ele>
        <time>2022-07-11T13:02:49Z</time>
      </trkpt>
      <trkpt lat="46.60828" lon="5.31961">
        <ele>212</ele>
        <time>2022-07-11T13:02:52Z</time>
      </trkpt>
      <trkpt lat="46.60833" lon="5.32019">
        <ele>212.8</ele>
        <time>2022-07-11T13:02:58Z</time>
      </trkpt>
      <trkpt lat="46.60833" lon="5.3203">
        <ele>212.8</ele>
        <time>2022-07-11T13:02:59Z</time>
      </trkpt>
      <trkpt lat="46.60839" lon="5.32075">
        <ele>212.2</ele>
        <time>2022-07-11T13:03:03Z</time>
      </trkpt>
      <trkpt lat="46.60842" lon="5.32085">
        <ele>212</ele>
        <time>2022-07-11T13:03:04Z</time>
      </trkpt>
      <trkpt lat="46.60846" lon="5.32095">
        <ele>211.6</ele>
        <time>2022-07-11T13:03:05Z</time>
      </trkpt>
      <trkpt lat="46.60851" lon="5.32104">
        <ele>211.4</ele>
        <time>2022-07-11T13:03:06Z</time>
      </trkpt>
      <trkpt lat="46.60856" lon="5.32112">
        <ele>211.4</ele>
        <time>2022-07-11T13:03:07Z</time>
      </trkpt>
      <trkpt lat="46.60861" lon="5.32119">
        <ele>211.2</ele>
        <time>2022-07-11T13:03:08Z</time>
      </trkpt>
      <trkpt lat="46.60887" lon="5.32152">
        <ele>211.2</ele>
        <time>2022-07-11T13:03:13Z</time>
      </trkpt>
      <trkpt lat="46.60902" lon="5.3217">
        <ele>211.2</ele>
        <time>2022-07-11T13:03:16Z</time>
      </trkpt>
      <trkpt lat="46.60915" lon="5.32187">
        <ele>211.6</ele>
        <time>2022-07-11T13:03:19Z</time>
      </trkpt>
      <trkpt lat="46.60924" lon="5.32198">
        <ele>211.8</ele>
        <time>2022-07-11T13:03:21Z</time>
      </trkpt>
      <trkpt lat="46.60944" lon="5.32212">
        <ele>212.2</ele>
        <time>2022-07-11T13:03:25Z</time>
      </trkpt>
      <trkpt lat="46.60955" lon="5.32217">
        <ele>212.4</ele>
        <time>2022-07-11T13:03:27Z</time>
      </trkpt>
      <trkpt lat="46.60961" lon="5.32219">
        <ele>212.4</ele>
        <time>2022-07-11T13:03:28Z</time>
      </trkpt>
      <trkpt lat="46.60973" lon="5.3222">
        <ele>212.8</ele>
        <time>2022-07-11T13:03:30Z</time>
      </trkpt>
      <trkpt lat="46.61017" lon="5.32221">
        <ele>213</ele>
        <time>2022-07-11T13:03:37Z</time>
      </trkpt>
      <trkpt lat="46.6106" lon="5.32221">
        <ele>212.8</ele>
        <time>2022-07-11T13:03:43Z</time>
      </trkpt>
      <trkpt lat="46.61115" lon="5.32223">
        <ele>211.4</ele>
        <time>2022-07-11T13:03:50Z</time>
      </trkpt>
      <trkpt lat="46.61123" lon="5.32223">
        <ele>211.2</ele>
        <time>2022-07-11T13:03:51Z</time>
      </trkpt>
      <trkpt lat="46.61168" lon="5.32219">
        <ele>210.6</ele>
        <time>2022-07-11T13:03:57Z</time>
      </trkpt>
      <trkpt lat="46.61175" lon="5.32217">
        <ele>210.6</ele>
        <time>2022-07-11T13:03:58Z</time>
      </trkpt>
      <trkpt lat="46.61188" lon="5.3221">
        <ele>210.4</ele>
        <time>2022-07-11T13:04:00Z</time>
      </trkpt>
      <trkpt lat="46.61195" lon="5.32204">
        <ele>210.4</ele>
        <time>2022-07-11T13:04:01Z</time>
      </trkpt>
      <trkpt lat="46.61201" lon="5.32199">
        <ele>210.4</ele>
        <time>2022-07-11T13:04:02Z</time>
      </trkpt>
      <trkpt lat="46.61211" lon="5.3219">
        <ele>210.2</ele>
        <time>2022-07-11T13:04:04Z</time>
      </trkpt>
      <trkpt lat="46.6123" lon="5.32179">
        <ele>210.4</ele>
        <time>2022-07-11T13:04:07Z</time>
      </trkpt>
      <trkpt lat="46.61249" lon="5.32173">
        <ele>210.6</ele>
        <time>2022-07-11T13:04:10Z</time>
      </trkpt>
      <trkpt lat="46.61262" lon="5.32172">
        <ele>210.6</ele>
        <time>2022-07-11T13:04:12Z</time>
      </trkpt>
      <trkpt lat="46.61289" lon="5.32178">
        <ele>210.6</ele>
        <time>2022-07-11T13:04:16Z</time>
      </trkpt>
      <trkpt lat="46.61296" lon="5.32181">
        <ele>210.6</ele>
        <time>2022-07-11T13:04:17Z</time>
      </trkpt>
      <trkpt lat="46.61342" lon="5.32201">
        <ele>209.6</ele>
        <time>2022-07-11T13:04:23Z</time>
      </trkpt>
      <trkpt lat="46.6135" lon="5.32204">
        <ele>209.2</ele>
        <time>2022-07-11T13:04:24Z</time>
      </trkpt>
      <trkpt lat="46.61356" lon="5.32205">
        <ele>209</ele>
        <time>2022-07-11T13:04:25Z</time>
      </trkpt>
      <trkpt lat="46.61364" lon="5.32205">
        <ele>208.8</ele>
        <time>2022-07-11T13:04:26Z</time>
      </trkpt>
      <trkpt lat="46.61389" lon="5.32201">
        <ele>208.2</ele>
        <time>2022-07-11T13:04:29Z</time>
      </trkpt>
      <trkpt lat="46.61427" lon="5.32184">
        <ele>207.2</ele>
        <time>2022-07-11T13:04:34Z</time>
      </trkpt>
      <trkpt lat="46.61432" lon="5.32179">
        <ele>207.2</ele>
        <time>2022-07-11T13:04:35Z</time>
      </trkpt>
      <trkpt lat="46.61467" lon="5.32155">
        <ele>206.2</ele>
        <time>2022-07-11T13:04:40Z</time>
      </trkpt>
      <trkpt lat="46.61483" lon="5.3215">
        <ele>206</ele>
        <time>2022-07-11T13:04:42Z</time>
      </trkpt>
      <trkpt lat="46.61499" lon="5.32151">
        <ele>205.6</ele>
        <time>2022-07-11T13:04:44Z</time>
      </trkpt>
      <trkpt lat="46.61507" lon="5.32153">
        <ele>205.4</ele>
        <time>2022-07-11T13:04:45Z</time>
      </trkpt>
      <trkpt lat="46.61516" lon="5.32158">
        <ele>205.2</ele>
        <time>2022-07-11T13:04:46Z</time>
      </trkpt>
      <trkpt lat="46.61523" lon="5.32163">
        <ele>204.8</ele>
        <time>2022-07-11T13:04:47Z</time>
      </trkpt>
      <trkpt lat="46.61535" lon="5.32175">
        <ele>204.6</ele>
        <time>2022-07-11T13:04:49Z</time>
      </trkpt>
      <trkpt lat="46.61545" lon="5.32191">
        <ele>204.6</ele>
        <time>2022-07-11T13:04:51Z</time>
      </trkpt>
      <trkpt lat="46.61582" lon="5.32253">
        <ele>204.6</ele>
        <time>2022-07-11T13:04:59Z</time>
      </trkpt>
      <trkpt lat="46.61591" lon="5.32269">
        <ele>204.6</ele>
        <time>2022-07-11T13:05:01Z</time>
      </trkpt>
      <trkpt lat="46.61599" lon="5.32295">
        <ele>204.8</ele>
        <time>2022-07-11T13:05:04Z</time>
      </trkpt>
      <trkpt lat="46.61607" lon="5.32349">
        <ele>205.4</ele>
        <time>2022-07-11T13:05:10Z</time>
      </trkpt>
      <trkpt lat="46.61609" lon="5.32357">
        <ele>205.4</ele>
        <time>2022-07-11T13:05:11Z</time>
      </trkpt>
      <trkpt lat="46.61614" lon="5.32372">
        <ele>205.6</ele>
        <time>2022-07-11T13:05:13Z</time>
      </trkpt>
      <trkpt lat="46.61617" lon="5.3238">
        <ele>205.6</ele>
        <time>2022-07-11T13:05:14Z</time>
      </trkpt>
      <trkpt lat="46.61625" lon="5.32394">
        <ele>205.6</ele>
        <time>2022-07-11T13:05:16Z</time>
      </trkpt>
      <trkpt lat="46.61638" lon="5.32411">
        <ele>206</ele>
        <time>2022-07-11T13:05:19Z</time>
      </trkpt>
      <trkpt lat="46.61648" lon="5.3242">
        <ele>206.2</ele>
        <time>2022-07-11T13:05:21Z</time>
      </trkpt>
      <trkpt lat="46.61663" lon="5.3243">
        <ele>206.2</ele>
        <time>2022-07-11T13:05:24Z</time>
      </trkpt>
      <trkpt lat="46.61705" lon="5.32453">
        <ele>207</ele>
        <time>2022-07-11T13:05:32Z</time>
      </trkpt>
      <trkpt lat="46.61715" lon="5.32458">
        <ele>207.4</ele>
        <time>2022-07-11T13:05:34Z</time>
      </trkpt>
      <trkpt lat="46.61735" lon="5.3247">
        <ele>208.4</ele>
        <time>2022-07-11T13:05:38Z</time>
      </trkpt>
      <trkpt lat="46.61745" lon="5.32476">
        <ele>208.8</ele>
        <time>2022-07-11T13:05:40Z</time>
      </trkpt>
      <trkpt lat="46.61777" lon="5.32499">
        <ele>209.6</ele>
        <time>2022-07-11T13:05:47Z</time>
      </trkpt>
      <trkpt lat="46.61781" lon="5.32502">
        <ele>209.8</ele>
        <time>2022-07-11T13:05:48Z</time>
      </trkpt>
      <trkpt lat="46.61798" lon="5.32518">
        <ele>210.6</ele>
        <time>2022-07-11T13:05:52Z</time>
      </trkpt>
      <trkpt lat="46.6183" lon="5.32546">
        <ele>211.8</ele>
        <time>2022-07-11T13:05:59Z</time>
      </trkpt>
      <trkpt lat="46.61872" lon="5.32584">
        <ele>212.8</ele>
        <time>2022-07-11T13:06:08Z</time>
      </trkpt>
      <trkpt lat="46.61907" lon="5.32627">
        <ele>213.6</ele>
        <time>2022-07-11T13:06:16Z</time>
      </trkpt>
      <trkpt lat="46.61947" lon="5.32683">
        <ele>213.6</ele>
        <time>2022-07-11T13:06:25Z</time>
      </trkpt>
      <trkpt lat="46.61953" lon="5.32691">
        <ele>213.6</ele>
        <time>2022-07-11T13:06:26Z</time>
      </trkpt>
      <trkpt lat="46.61975" lon="5.32724">
        <ele>213.6</ele>
        <time>2022-07-11T13:06:31Z</time>
      </trkpt>
      <trkpt lat="46.61987" lon="5.32744">
        <ele>213.6</ele>
        <time>2022-07-11T13:06:34Z</time>
      </trkpt>
      <trkpt lat="46.62025" lon="5.32801">
        <ele>213.6</ele>
        <time>2022-07-11T13:06:43Z</time>
      </trkpt>
      <trkpt lat="46.62046" lon="5.32832">
        <ele>214.2</ele>
        <time>2022-07-11T13:06:48Z</time>
      </trkpt>
      <trkpt lat="46.62062" lon="5.32857">
        <ele>214.6</ele>
        <time>2022-07-11T13:06:52Z</time>
      </trkpt>
      <trkpt lat="46.62091" lon="5.32892">
        <ele>215</ele>
        <time>2022-07-11T13:06:58Z</time>
      </trkpt>
      <trkpt lat="46.62096" lon="5.32896">
        <ele>215.4</ele>
        <time>2022-07-11T13:06:59Z</time>
      </trkpt>
      <trkpt lat="46.62136" lon="5.32924">
        <ele>215.6</ele>
        <time>2022-07-11T13:07:06Z</time>
      </trkpt>
      <trkpt lat="46.62158" lon="5.32936">
        <ele>215.6</ele>
        <time>2022-07-11T13:07:10Z</time>
      </trkpt>
      <trkpt lat="46.6217" lon="5.32937">
        <ele>215.4</ele>
        <time>2022-07-11T13:07:12Z</time>
      </trkpt>
      <trkpt lat="46.62196" lon="5.32928">
        <ele>214.8</ele>
        <time>2022-07-11T13:07:16Z</time>
      </trkpt>
      <trkpt lat="46.6221" lon="5.32922">
        <ele>214.6</ele>
        <time>2022-07-11T13:07:18Z</time>
      </trkpt>
      <trkpt lat="46.62225" lon="5.32919">
        <ele>214.2</ele>
        <time>2022-07-11T13:07:20Z</time>
      </trkpt>
      <trkpt lat="46.62234" lon="5.32918">
        <ele>214.2</ele>
        <time>2022-07-11T13:07:21Z</time>
      </trkpt>
      <trkpt lat="46.62249" lon="5.32917">
        <ele>213</ele>
        <time>2022-07-11T13:07:23Z</time>
      </trkpt>
      <trkpt lat="46.62276" lon="5.32917">
        <ele>211.8</ele>
        <time>2022-07-11T13:07:26Z</time>
      </trkpt>
      <trkpt lat="46.62293" lon="5.32916">
        <ele>211.6</ele>
        <time>2022-07-11T13:07:28Z</time>
      </trkpt>
      <trkpt lat="46.62311" lon="5.32915">
        <ele>210.8</ele>
        <time>2022-07-11T13:07:30Z</time>
      </trkpt>
      <trkpt lat="46.62332" lon="5.32914">
        <ele>209.8</ele>
        <time>2022-07-11T13:07:32Z</time>
      </trkpt>
      <trkpt lat="46.62369" lon="5.3291">
        <ele>208.2</ele>
        <time>2022-07-11T13:07:36Z</time>
      </trkpt>
      <trkpt lat="46.62398" lon="5.32907">
        <ele>207.2</ele>
        <time>2022-07-11T13:07:39Z</time>
      </trkpt>
      <trkpt lat="46.62427" lon="5.32902">
        <ele>206</ele>
        <time>2022-07-11T13:07:42Z</time>
      </trkpt>
      <trkpt lat="46.62446" lon="5.32899">
        <ele>204.8</ele>
        <time>2022-07-11T13:07:44Z</time>
      </trkpt>
      <trkpt lat="46.62473" lon="5.32895">
        <ele>203.4</ele>
        <time>2022-07-11T13:07:47Z</time>
      </trkpt>
      <trkpt lat="46.625" lon="5.32891">
        <ele>202.4</ele>
        <time>2022-07-11T13:07:50Z</time>
      </trkpt>
      <trkpt lat="46.62525" lon="5.32886">
        <ele>201.8</ele>
        <time>2022-07-11T13:07:53Z</time>
      </trkpt>
      <trkpt lat="46.62556" lon="5.32878">
        <ele>201.4</ele>
        <time>2022-07-11T13:07:57Z</time>
      </trkpt>
      <trkpt lat="46.62564" lon="5.32876">
        <ele>201.2</ele>
        <time>2022-07-11T13:07:58Z</time>
      </trkpt>
      <trkpt lat="46.62587" lon="5.32873">
        <ele>201</ele>
        <time>2022-07-11T13:08:02Z</time>
      </trkpt>
      <trkpt lat="46.62601" lon="5.32877">
        <ele>201</ele>
        <time>2022-07-11T13:08:04Z</time>
      </trkpt>
      <trkpt lat="46.62613" lon="5.32888">
        <ele>200.4</ele>
        <time>2022-07-11T13:08:06Z</time>
      </trkpt>
      <trkpt lat="46.62618" lon="5.32896">
        <ele>200.4</ele>
        <time>2022-07-11T13:08:07Z</time>
      </trkpt>
      <trkpt lat="46.62635" lon="5.3294">
        <ele>200.8</ele>
        <time>2022-07-11T13:08:12Z</time>
      </trkpt>
      <trkpt lat="46.62655" lon="5.32982">
        <ele>201.4</ele>
        <time>2022-07-11T13:08:18Z</time>
      </trkpt>
      <trkpt lat="46.62664" lon="5.32991">
        <ele>202</ele>
        <time>2022-07-11T13:08:20Z</time>
      </trkpt>
      <trkpt lat="46.62674" lon="5.32997">
        <ele>202.8</ele>
        <time>2022-07-11T13:08:22Z</time>
      </trkpt>
      <trkpt lat="46.62684" lon="5.32999">
        <ele>203.2</ele>
        <time>2022-07-11T13:08:24Z</time>
      </trkpt>
      <trkpt lat="46.62693" lon="5.32999">
        <ele>203.8</ele>
        <time>2022-07-11T13:08:26Z</time>
      </trkpt>
      <trkpt lat="46.62707" lon="5.32998">
        <ele>204.8</ele>
        <time>2022-07-11T13:08:29Z</time>
      </trkpt>
      <trkpt lat="46.62716" lon="5.32998">
        <ele>205.4</ele>
        <time>2022-07-11T13:08:31Z</time>
      </trkpt>
      <trkpt lat="46.62725" lon="5.32999">
        <ele>206.2</ele>
        <time>2022-07-11T13:08:33Z</time>
      </trkpt>
      <trkpt lat="46.62742" lon="5.33004">
        <ele>207.2</ele>
        <time>2022-07-11T13:08:37Z</time>
      </trkpt>
      <trkpt lat="46.6276" lon="5.33011">
        <ele>207.8</ele>
        <time>2022-07-11T13:08:41Z</time>
      </trkpt>
      <trkpt lat="46.62769" lon="5.33015">
        <ele>208.2</ele>
        <time>2022-07-11T13:08:43Z</time>
      </trkpt>
      <trkpt lat="46.62799" lon="5.33024">
        <ele>209.4</ele>
        <time>2022-07-11T13:08:50Z</time>
      </trkpt>
      <trkpt lat="46.62847" lon="5.33037">
        <ele>209.6</ele>
        <time>2022-07-11T13:09:00Z</time>
      </trkpt>
      <trkpt lat="46.62886" lon="5.33052">
        <ele>210.4</ele>
        <time>2022-07-11T13:09:08Z</time>
      </trkpt>
      <trkpt lat="46.6289" lon="5.33055">
        <ele>210.4</ele>
        <time>2022-07-11T13:09:09Z</time>
      </trkpt>
      <trkpt lat="46.62894" lon="5.33058">
        <ele>210.4</ele>
        <time>2022-07-11T13:09:10Z</time>
      </trkpt>
      <trkpt lat="46.62915" lon="5.33081">
        <ele>210.8</ele>
        <time>2022-07-11T13:09:15Z</time>
      </trkpt>
      <trkpt lat="46.62936" lon="5.33103">
        <ele>211.2</ele>
        <time>2022-07-11T13:09:20Z</time>
      </trkpt>
      <trkpt lat="46.6294" lon="5.33106">
        <ele>211.4</ele>
        <time>2022-07-11T13:09:21Z</time>
      </trkpt>
      <trkpt lat="46.62945" lon="5.33109">
        <ele>211.8</ele>
        <time>2022-07-11T13:09:22Z</time>
      </trkpt>
      <trkpt lat="46.62974" lon="5.33118">
        <ele>212.6</ele>
        <time>2022-07-11T13:09:28Z</time>
      </trkpt>
      <trkpt lat="46.62983" lon="5.33121">
        <ele>212.8</ele>
        <time>2022-07-11T13:09:30Z</time>
      </trkpt>
      <trkpt lat="46.63004" lon="5.33127">
        <ele>213.6</ele>
        <time>2022-07-11T13:09:35Z</time>
      </trkpt>
      <trkpt lat="46.63016" lon="5.33131">
        <ele>214.2</ele>
        <time>2022-07-11T13:09:38Z</time>
      </trkpt>
      <trkpt lat="46.63029" lon="5.33138">
        <ele>214.8</ele>
        <time>2022-07-11T13:09:41Z</time>
      </trkpt>
      <trkpt lat="46.63046" lon="5.3315">
        <ele>216</ele>
        <time>2022-07-11T13:09:45Z</time>
      </trkpt>
      <trkpt lat="46.63054" lon="5.33157">
        <ele>216.2</ele>
        <time>2022-07-11T13:09:47Z</time>
      </trkpt>
      <trkpt lat="46.63067" lon="5.33169">
        <ele>217</ele>
        <time>2022-07-11T13:09:50Z</time>
      </trkpt>
      <trkpt lat="46.63085" lon="5.33184">
        <ele>217.4</ele>
        <time>2022-07-11T13:09:54Z</time>
      </trkpt>
      <trkpt lat="46.63105" lon="5.33205">
        <ele>218</ele>
        <time>2022-07-11T13:09:59Z</time>
      </trkpt>
      <trkpt lat="46.63119" lon="5.33218">
        <ele>218.4</ele>
        <time>2022-07-11T13:10:02Z</time>
      </trkpt>
      <trkpt lat="46.63162" lon="5.33256">
        <ele>218.6</ele>
        <time>2022-07-11T13:10:11Z</time>
      </trkpt>
      <trkpt lat="46.63212" lon="5.33298">
        <ele>218.6</ele>
        <time>2022-07-11T13:10:21Z</time>
      </trkpt>
      <trkpt lat="46.63217" lon="5.33302">
        <ele>218.6</ele>
        <time>2022-07-11T13:10:22Z</time>
      </trkpt>
      <trkpt lat="46.63264" lon="5.33331">
        <ele>218.6</ele>
        <time>2022-07-11T13:10:31Z</time>
      </trkpt>
      <trkpt lat="46.63317" lon="5.33345">
        <ele>218.4</ele>
        <time>2022-07-11T13:10:40Z</time>
      </trkpt>
      <trkpt lat="46.6336" lon="5.33362">
        <ele>218.2</ele>
        <time>2022-07-11T13:10:47Z</time>
      </trkpt>
      <trkpt lat="46.63401" lon="5.33393">
        <ele>218</ele>
        <time>2022-07-11T13:10:54Z</time>
      </trkpt>
      <trkpt lat="46.63451" lon="5.33435">
        <ele>218.4</ele>
        <time>2022-07-11T13:11:03Z</time>
      </trkpt>
      <trkpt lat="46.63457" lon="5.3344">
        <ele>218.6</ele>
        <time>2022-07-11T13:11:04Z</time>
      </trkpt>
      <trkpt lat="46.63509" lon="5.33483">
        <ele>218.2</ele>
        <time>2022-07-11T13:11:13Z</time>
      </trkpt>
      <trkpt lat="46.63532" lon="5.335">
        <ele>218</ele>
        <time>2022-07-11T13:11:17Z</time>
      </trkpt>
      <trkpt lat="46.63543" lon="5.33504">
        <ele>218</ele>
        <time>2022-07-11T13:11:19Z</time>
      </trkpt>
      <trkpt lat="46.6355" lon="5.33507">
        <ele>218</ele>
        <time>2022-07-11T13:11:20Z</time>
      </trkpt>
      <trkpt lat="46.6358" lon="5.33511">
        <ele>218</ele>
        <time>2022-07-11T13:11:25Z</time>
      </trkpt>
      <trkpt lat="46.6364" lon="5.33519">
        <ele>217.6</ele>
        <time>2022-07-11T13:11:34Z</time>
      </trkpt>
      <trkpt lat="46.63646" lon="5.3352">
        <ele>217.6</ele>
        <time>2022-07-11T13:11:35Z</time>
      </trkpt>
      <trkpt lat="46.63694" lon="5.3354">
        <ele>217.4</ele>
        <time>2022-07-11T13:11:42Z</time>
      </trkpt>
      <trkpt lat="46.63713" lon="5.33549">
        <ele>216.8</ele>
        <time>2022-07-11T13:11:45Z</time>
      </trkpt>
      <trkpt lat="46.63721" lon="5.33553">
        <ele>216.8</ele>
        <time>2022-07-11T13:11:46Z</time>
      </trkpt>
      <trkpt lat="46.6374" lon="5.33563">
        <ele>216.8</ele>
        <time>2022-07-11T13:11:49Z</time>
      </trkpt>
      <trkpt lat="46.63793" lon="5.33589">
        <ele>216.8</ele>
        <time>2022-07-11T13:11:57Z</time>
      </trkpt>
      <trkpt lat="46.63799" lon="5.33591">
        <ele>216.8</ele>
        <time>2022-07-11T13:11:58Z</time>
      </trkpt>
      <trkpt lat="46.63835" lon="5.33609">
        <ele>216.8</ele>
        <time>2022-07-11T13:12:03Z</time>
      </trkpt>
      <trkpt lat="46.6388" lon="5.33631">
        <ele>216.2</ele>
        <time>2022-07-11T13:12:09Z</time>
      </trkpt>
      <trkpt lat="46.63911" lon="5.33645">
        <ele>215.4</ele>
        <time>2022-07-11T13:12:13Z</time>
      </trkpt>
      <trkpt lat="46.63951" lon="5.33665">
        <ele>214.6</ele>
        <time>2022-07-11T13:12:18Z</time>
      </trkpt>
      <trkpt lat="46.63959" lon="5.33669">
        <ele>214.4</ele>
        <time>2022-07-11T13:12:19Z</time>
      </trkpt>
      <trkpt lat="46.64005" lon="5.3369">
        <ele>213.2</ele>
        <time>2022-07-11T13:12:25Z</time>
      </trkpt>
      <trkpt lat="46.6403" lon="5.33702">
        <ele>212.4</ele>
        <time>2022-07-11T13:12:28Z</time>
      </trkpt>
      <trkpt lat="46.64038" lon="5.33706">
        <ele>211.8</ele>
        <time>2022-07-11T13:12:29Z</time>
      </trkpt>
      <trkpt lat="46.64066" lon="5.33719">
        <ele>210.8</ele>
        <time>2022-07-11T13:12:32Z</time>
      </trkpt>
      <trkpt lat="46.641" lon="5.33735">
        <ele>209.4</ele>
        <time>2022-07-11T13:12:36Z</time>
      </trkpt>
      <trkpt lat="46.64109" lon="5.33739">
        <ele>209.2</ele>
        <time>2022-07-11T13:12:37Z</time>
      </trkpt>
      <trkpt lat="46.64127" lon="5.33747">
        <ele>208.2</ele>
        <time>2022-07-11T13:12:39Z</time>
      </trkpt>
      <trkpt lat="46.64162" lon="5.33765">
        <ele>207</ele>
        <time>2022-07-11T13:12:43Z</time>
      </trkpt>
      <trkpt lat="46.64189" lon="5.33777">
        <ele>205.6</ele>
        <time>2022-07-11T13:12:46Z</time>
      </trkpt>
      <trkpt lat="46.64221" lon="5.33792">
        <ele>204.4</ele>
        <time>2022-07-11T13:12:50Z</time>
      </trkpt>
      <trkpt lat="46.64229" lon="5.33796">
        <ele>204</ele>
        <time>2022-07-11T13:12:51Z</time>
      </trkpt>
      <trkpt lat="46.64236" lon="5.33799">
        <ele>204</ele>
        <time>2022-07-11T13:12:52Z</time>
      </trkpt>
      <trkpt lat="46.64247" lon="5.33812">
        <ele>203.6</ele>
        <time>2022-07-11T13:12:54Z</time>
      </trkpt>
      <trkpt lat="46.6425" lon="5.33819">
        <ele>203.2</ele>
        <time>2022-07-11T13:12:55Z</time>
      </trkpt>
      <trkpt lat="46.64252" lon="5.33827">
        <ele>203.2</ele>
        <time>2022-07-11T13:12:56Z</time>
      </trkpt>
      <trkpt lat="46.64253" lon="5.33835">
        <ele>203.2</ele>
        <time>2022-07-11T13:12:57Z</time>
      </trkpt>
      <trkpt lat="46.64254" lon="5.33844">
        <ele>203.2</ele>
        <time>2022-07-11T13:12:58Z</time>
      </trkpt>
      <trkpt lat="46.64254" lon="5.33874">
        <ele>203</ele>
        <time>2022-07-11T13:13:01Z</time>
      </trkpt>
      <trkpt lat="46.64258" lon="5.3394">
        <ele>203</ele>
        <time>2022-07-11T13:13:07Z</time>
      </trkpt>
      <trkpt lat="46.64267" lon="5.34026">
        <ele>203</ele>
        <time>2022-07-11T13:13:15Z</time>
      </trkpt>
      <trkpt lat="46.64269" lon="5.34036">
        <ele>203</ele>
        <time>2022-07-11T13:13:16Z</time>
      </trkpt>
      <trkpt lat="46.6428" lon="5.34098">
        <ele>203.4</ele>
        <time>2022-07-11T13:13:22Z</time>
      </trkpt>
      <trkpt lat="46.64291" lon="5.34147">
        <ele>203.6</ele>
        <time>2022-07-11T13:13:27Z</time>
      </trkpt>
      <trkpt lat="46.64309" lon="5.34226">
        <ele>204.4</ele>
        <time>2022-07-11T13:13:35Z</time>
      </trkpt>
      <trkpt lat="46.64329" lon="5.34306">
        <ele>204.8</ele>
        <time>2022-07-11T13:13:44Z</time>
      </trkpt>
      <trkpt lat="46.64336" lon="5.34337">
        <ele>205</ele>
        <time>2022-07-11T13:13:49Z</time>
      </trkpt>
      <trkpt lat="46.64336" lon="5.34339">
        <ele>205.4</ele>
        <time>2022-07-11T13:13:52Z</time>
      </trkpt>
      <trkpt lat="46.64336" lon="5.34339">
        <ele>205.4</ele>
        <time>2022-07-11T13:13:54Z</time>
      </trkpt>
      <trkpt lat="46.64338" lon="5.34346">
        <ele>205.4</ele>
        <time>2022-07-11T13:14:35Z</time>
      </trkpt>
      <trkpt lat="46.64341" lon="5.34354">
        <ele>205.4</ele>
        <time>2022-07-11T13:14:37Z</time>
      </trkpt>
      <trkpt lat="46.64343" lon="5.34361">
        <ele>205.4</ele>
        <time>2022-07-11T13:14:38Z</time>
      </trkpt>
      <trkpt lat="46.64348" lon="5.34374">
        <ele>205.6</ele>
        <time>2022-07-11T13:14:40Z</time>
      </trkpt>
      <trkpt lat="46.64362" lon="5.34415">
        <ele>205.8</ele>
        <time>2022-07-11T13:14:45Z</time>
      </trkpt>
      <trkpt lat="46.64365" lon="5.34424">
        <ele>205.8</ele>
        <time>2022-07-11T13:14:46Z</time>
      </trkpt>
      <trkpt lat="46.6439" lon="5.34485">
        <ele>206.6</ele>
        <time>2022-07-11T13:14:53Z</time>
      </trkpt>
      <trkpt lat="46.64394" lon="5.34493">
        <ele>206.6</ele>
        <time>2022-07-11T13:14:54Z</time>
      </trkpt>
      <trkpt lat="46.64422" lon="5.34553">
        <ele>207</ele>
        <time>2022-07-11T13:15:01Z</time>
      </trkpt>
      <trkpt lat="46.64455" lon="5.34621">
        <ele>206.8</ele>
        <time>2022-07-11T13:15:09Z</time>
      </trkpt>
      <trkpt lat="46.6446" lon="5.34632">
        <ele>206.8</ele>
        <time>2022-07-11T13:15:10Z</time>
      </trkpt>
      <trkpt lat="46.64495" lon="5.34704">
        <ele>206</ele>
        <time>2022-07-11T13:15:18Z</time>
      </trkpt>
      <trkpt lat="46.645" lon="5.34713">
        <ele>206</ele>
        <time>2022-07-11T13:15:19Z</time>
      </trkpt>
      <trkpt lat="46.64523" lon="5.34766">
        <ele>205.4</ele>
        <time>2022-07-11T13:15:25Z</time>
      </trkpt>
      <trkpt lat="46.64535" lon="5.34797">
        <ele>205.4</ele>
        <time>2022-07-11T13:15:28Z</time>
      </trkpt>
      <trkpt lat="46.6456" lon="5.34878">
        <ele>204.6</ele>
        <time>2022-07-11T13:15:36Z</time>
      </trkpt>
      <trkpt lat="46.64562" lon="5.34888">
        <ele>204.4</ele>
        <time>2022-07-11T13:15:37Z</time>
      </trkpt>
      <trkpt lat="46.64581" lon="5.34971">
        <ele>204</ele>
        <time>2022-07-11T13:15:45Z</time>
      </trkpt>
      <trkpt lat="46.64586" lon="5.34992">
        <ele>204</ele>
        <time>2022-07-11T13:15:47Z</time>
      </trkpt>
      <trkpt lat="46.64604" lon="5.35068">
        <ele>204</ele>
        <time>2022-07-11T13:15:55Z</time>
      </trkpt>
      <trkpt lat="46.64606" lon="5.35078">
        <ele>203.8</ele>
        <time>2022-07-11T13:15:56Z</time>
      </trkpt>
      <trkpt lat="46.6462" lon="5.35135">
        <ele>204</ele>
        <time>2022-07-11T13:16:02Z</time>
      </trkpt>
      <trkpt lat="46.64635" lon="5.35209">
        <ele>204.4</ele>
        <time>2022-07-11T13:16:10Z</time>
      </trkpt>
      <trkpt lat="46.64644" lon="5.3529">
        <ele>204.4</ele>
        <time>2022-07-11T13:16:18Z</time>
      </trkpt>
      <trkpt lat="46.64647" lon="5.35336">
        <ele>204</ele>
        <time>2022-07-11T13:16:23Z</time>
      </trkpt>
      <trkpt lat="46.64646" lon="5.35357">
        <ele>203.8</ele>
        <time>2022-07-11T13:16:26Z</time>
      </trkpt>
      <trkpt lat="46.64645" lon="5.35362">
        <ele>203.6</ele>
        <time>2022-07-11T13:16:27Z</time>
      </trkpt>
      <trkpt lat="46.64645" lon="5.35375">
        <ele>203.4</ele>
        <time>2022-07-11T13:16:29Z</time>
      </trkpt>
      <trkpt lat="46.64646" lon="5.35382">
        <ele>203.4</ele>
        <time>2022-07-11T13:16:30Z</time>
      </trkpt>
      <trkpt lat="46.64648" lon="5.3539">
        <ele>203.4</ele>
        <time>2022-07-11T13:16:31Z</time>
      </trkpt>
      <trkpt lat="46.64648" lon="5.35399">
        <ele>203.2</ele>
        <time>2022-07-11T13:16:32Z</time>
      </trkpt>
      <trkpt lat="46.64648" lon="5.35426">
        <ele>203</ele>
        <time>2022-07-11T13:16:35Z</time>
      </trkpt>
      <trkpt lat="46.6465" lon="5.35498">
        <ele>203.6</ele>
        <time>2022-07-11T13:16:42Z</time>
      </trkpt>
      <trkpt lat="46.64654" lon="5.35573">
        <ele>204.6</ele>
        <time>2022-07-11T13:16:50Z</time>
      </trkpt>
      <trkpt lat="46.64655" lon="5.35583">
        <ele>204.6</ele>
        <time>2022-07-11T13:16:51Z</time>
      </trkpt>
      <trkpt lat="46.64664" lon="5.35647">
        <ele>204.8</ele>
        <time>2022-07-11T13:16:58Z</time>
      </trkpt>
      <trkpt lat="46.6468" lon="5.35719">
        <ele>204.8</ele>
        <time>2022-07-11T13:17:06Z</time>
      </trkpt>
      <trkpt lat="46.64696" lon="5.3577">
        <ele>205</ele>
        <time>2022-07-11T13:17:12Z</time>
      </trkpt>
      <trkpt lat="46.64699" lon="5.35778">
        <ele>205.2</ele>
        <time>2022-07-11T13:17:13Z</time>
      </trkpt>
      <trkpt lat="46.6472" lon="5.35834">
        <ele>205.8</ele>
        <time>2022-07-11T13:17:20Z</time>
      </trkpt>
      <trkpt lat="46.64723" lon="5.35842">
        <ele>205.8</ele>
        <time>2022-07-11T13:17:21Z</time>
      </trkpt>
      <trkpt lat="46.64741" lon="5.3589">
        <ele>206.2</ele>
        <time>2022-07-11T13:17:27Z</time>
      </trkpt>
      <trkpt lat="46.64762" lon="5.35943">
        <ele>206.4</ele>
        <time>2022-07-11T13:17:33Z</time>
      </trkpt>
      <trkpt lat="46.6478" lon="5.35991">
        <ele>206.4</ele>
        <time>2022-07-11T13:17:38Z</time>
      </trkpt>
      <trkpt lat="46.64802" lon="5.3604">
        <ele>206.2</ele>
        <time>2022-07-11T13:17:43Z</time>
      </trkpt>
      <trkpt lat="46.64829" lon="5.3611">
        <ele>206</ele>
        <time>2022-07-11T13:17:50Z</time>
      </trkpt>
      <trkpt lat="46.64832" lon="5.36118">
        <ele>206</ele>
        <time>2022-07-11T13:17:51Z</time>
      </trkpt>
      <trkpt lat="46.64854" lon="5.36171">
        <ele>206</ele>
        <time>2022-07-11T13:17:57Z</time>
      </trkpt>
      <trkpt lat="46.6486" lon="5.36188">
        <ele>206</ele>
        <time>2022-07-11T13:17:59Z</time>
      </trkpt>
      <trkpt lat="46.64869" lon="5.36215">
        <ele>206</ele>
        <time>2022-07-11T13:18:02Z</time>
      </trkpt>
      <trkpt lat="46.64877" lon="5.36242">
        <ele>206.2</ele>
        <time>2022-07-11T13:18:05Z</time>
      </trkpt>
      <trkpt lat="46.64883" lon="5.36261">
        <ele>206.2</ele>
        <time>2022-07-11T13:18:07Z</time>
      </trkpt>
      <trkpt lat="46.64885" lon="5.3627">
        <ele>206.4</ele>
        <time>2022-07-11T13:18:08Z</time>
      </trkpt>
      <trkpt lat="46.64895" lon="5.36299">
        <ele>206.8</ele>
        <time>2022-07-11T13:18:11Z</time>
      </trkpt>
      <trkpt lat="46.64898" lon="5.3631">
        <ele>207</ele>
        <time>2022-07-11T13:18:12Z</time>
      </trkpt>
      <trkpt lat="46.6491" lon="5.36366">
        <ele>207.4</ele>
        <time>2022-07-11T13:18:18Z</time>
      </trkpt>
      <trkpt lat="46.64929" lon="5.36426">
        <ele>207.2</ele>
        <time>2022-07-11T13:18:24Z</time>
      </trkpt>
      <trkpt lat="46.64945" lon="5.36492">
        <ele>206.6</ele>
        <time>2022-07-11T13:18:30Z</time>
      </trkpt>
      <trkpt lat="46.64966" lon="5.36572">
        <ele>205.8</ele>
        <time>2022-07-11T13:18:38Z</time>
      </trkpt>
      <trkpt lat="46.64986" lon="5.36651">
        <ele>205.8</ele>
        <time>2022-07-11T13:18:46Z</time>
      </trkpt>
      <trkpt lat="46.64999" lon="5.36699">
        <ele>206</ele>
        <time>2022-07-11T13:18:51Z</time>
      </trkpt>
      <trkpt lat="46.65002" lon="5.36707">
        <ele>206</ele>
        <time>2022-07-11T13:18:52Z</time>
      </trkpt>
      <trkpt lat="46.65007" lon="5.36722">
        <ele>206</ele>
        <time>2022-07-11T13:18:54Z</time>
      </trkpt>
      <trkpt lat="46.65009" lon="5.36736">
        <ele>206.2</ele>
        <time>2022-07-11T13:18:56Z</time>
      </trkpt>
      <trkpt lat="46.65015" lon="5.36767">
        <ele>206.4</ele>
        <time>2022-07-11T13:19:00Z</time>
      </trkpt>
      <trkpt lat="46.65017" lon="5.36776">
        <ele>206.4</ele>
        <time>2022-07-11T13:19:01Z</time>
      </trkpt>
      <trkpt lat="46.65031" lon="5.36825">
        <ele>206.6</ele>
        <time>2022-07-11T13:19:06Z</time>
      </trkpt>
      <trkpt lat="46.65049" lon="5.36899">
        <ele>206.8</ele>
        <time>2022-07-11T13:19:13Z</time>
      </trkpt>
      <trkpt lat="46.65067" lon="5.36973">
        <ele>206.8</ele>
        <time>2022-07-11T13:19:20Z</time>
      </trkpt>
      <trkpt lat="46.6507" lon="5.36984">
        <ele>206.6</ele>
        <time>2022-07-11T13:19:21Z</time>
      </trkpt>
      <trkpt lat="46.65089" lon="5.37055">
        <ele>207</ele>
        <time>2022-07-11T13:19:28Z</time>
      </trkpt>
      <trkpt lat="46.65109" lon="5.37132">
        <ele>207</ele>
        <time>2022-07-11T13:19:36Z</time>
      </trkpt>
      <trkpt lat="46.65111" lon="5.37142">
        <ele>207</ele>
        <time>2022-07-11T13:19:37Z</time>
      </trkpt>
      <trkpt lat="46.65131" lon="5.37218">
        <ele>207.2</ele>
        <time>2022-07-11T13:19:45Z</time>
      </trkpt>
      <trkpt lat="46.65145" lon="5.373">
        <ele>207.6</ele>
        <time>2022-07-11T13:19:53Z</time>
      </trkpt>
      <trkpt lat="46.65146" lon="5.3731">
        <ele>207.8</ele>
        <time>2022-07-11T13:19:54Z</time>
      </trkpt>
      <trkpt lat="46.65151" lon="5.37393">
        <ele>207.8</ele>
        <time>2022-07-11T13:20:02Z</time>
      </trkpt>
      <trkpt lat="46.65151" lon="5.37477">
        <ele>207.8</ele>
        <time>2022-07-11T13:20:10Z</time>
      </trkpt>
      <trkpt lat="46.65151" lon="5.37488">
        <ele>207.8</ele>
        <time>2022-07-11T13:20:11Z</time>
      </trkpt>
      <trkpt lat="46.6515" lon="5.37566">
        <ele>207.8</ele>
        <time>2022-07-11T13:20:18Z</time>
      </trkpt>
      <trkpt lat="46.6515" lon="5.37577">
        <ele>207.8</ele>
        <time>2022-07-11T13:20:19Z</time>
      </trkpt>
      <trkpt lat="46.6515" lon="5.37588">
        <ele>208</ele>
        <time>2022-07-11T13:20:20Z</time>
      </trkpt>
      <trkpt lat="46.65149" lon="5.37675">
        <ele>208.4</ele>
        <time>2022-07-11T13:20:28Z</time>
      </trkpt>
      <trkpt lat="46.65149" lon="5.37706">
        <ele>208.4</ele>
        <time>2022-07-11T13:20:31Z</time>
      </trkpt>
      <trkpt lat="46.65156" lon="5.3778">
        <ele>208.8</ele>
        <time>2022-07-11T13:20:38Z</time>
      </trkpt>
      <trkpt lat="46.65171" lon="5.37861">
        <ele>208.8</ele>
        <time>2022-07-11T13:20:46Z</time>
      </trkpt>
      <trkpt lat="46.65173" lon="5.37871">
        <ele>209</ele>
        <time>2022-07-11T13:20:47Z</time>
      </trkpt>
      <trkpt lat="46.65198" lon="5.37946">
        <ele>209.6</ele>
        <time>2022-07-11T13:20:55Z</time>
      </trkpt>
      <trkpt lat="46.6522" lon="5.38007">
        <ele>210</ele>
        <time>2022-07-11T13:21:02Z</time>
      </trkpt>
      <trkpt lat="46.65242" lon="5.38084">
        <ele>210.6</ele>
        <time>2022-07-11T13:21:10Z</time>
      </trkpt>
      <trkpt lat="46.65257" lon="5.38147">
        <ele>210.6</ele>
        <time>2022-07-11T13:21:16Z</time>
      </trkpt>
      <trkpt lat="46.6526" lon="5.38166">
        <ele>210.6</ele>
        <time>2022-07-11T13:21:18Z</time>
      </trkpt>
      <trkpt lat="46.65272" lon="5.38252">
        <ele>210.4</ele>
        <time>2022-07-11T13:21:26Z</time>
      </trkpt>
      <trkpt lat="46.65276" lon="5.38332">
        <ele>210.2</ele>
        <time>2022-07-11T13:21:34Z</time>
      </trkpt>
      <trkpt lat="46.65276" lon="5.38342">
        <ele>210.4</ele>
        <time>2022-07-11T13:21:35Z</time>
      </trkpt>
      <trkpt lat="46.65274" lon="5.38423">
        <ele>210.4</ele>
        <time>2022-07-11T13:21:43Z</time>
      </trkpt>
      <trkpt lat="46.65274" lon="5.3843">
        <ele>210.4</ele>
        <time>2022-07-11T13:21:44Z</time>
      </trkpt>
      <trkpt lat="46.65271" lon="5.38471">
        <ele>210.2</ele>
        <time>2022-07-11T13:21:49Z</time>
      </trkpt>
      <trkpt lat="46.65267" lon="5.38501">
        <ele>210.2</ele>
        <time>2022-07-11T13:21:54Z</time>
      </trkpt>
      <trkpt lat="46.65265" lon="5.38522">
        <ele>210.2</ele>
        <time>2022-07-11T13:21:57Z</time>
      </trkpt>
      <trkpt lat="46.65264" lon="5.3853">
        <ele>210.2</ele>
        <time>2022-07-11T13:21:58Z</time>
      </trkpt>
      <trkpt lat="46.65252" lon="5.38583">
        <ele>211</ele>
        <time>2022-07-11T13:22:04Z</time>
      </trkpt>
      <trkpt lat="46.6525" lon="5.38593">
        <ele>211.2</ele>
        <time>2022-07-11T13:22:05Z</time>
      </trkpt>
      <trkpt lat="46.65241" lon="5.38631">
        <ele>211.6</ele>
        <time>2022-07-11T13:22:09Z</time>
      </trkpt>
      <trkpt lat="46.65239" lon="5.38638">
        <ele>211.6</ele>
        <time>2022-07-11T13:22:10Z</time>
      </trkpt>
      <trkpt lat="46.65234" lon="5.38657">
        <ele>211.8</ele>
        <time>2022-07-11T13:22:12Z</time>
      </trkpt>
      <trkpt lat="46.6523" lon="5.38677">
        <ele>212</ele>
        <time>2022-07-11T13:22:14Z</time>
      </trkpt>
      <trkpt lat="46.65211" lon="5.38733">
        <ele>212.2</ele>
        <time>2022-07-11T13:22:20Z</time>
      </trkpt>
      <trkpt lat="46.65185" lon="5.38808">
        <ele>212</ele>
        <time>2022-07-11T13:22:29Z</time>
      </trkpt>
      <trkpt lat="46.65166" lon="5.38863">
        <ele>212</ele>
        <time>2022-07-11T13:22:36Z</time>
      </trkpt>
      <trkpt lat="46.65164" lon="5.38871">
        <ele>212.2</ele>
        <time>2022-07-11T13:22:37Z</time>
      </trkpt>
      <trkpt lat="46.65151" lon="5.38913">
        <ele>213</ele>
        <time>2022-07-11T13:22:42Z</time>
      </trkpt>
      <trkpt lat="46.65144" lon="5.38931">
        <ele>213.2</ele>
        <time>2022-07-11T13:22:44Z</time>
      </trkpt>
      <trkpt lat="46.65139" lon="5.38947">
        <ele>213.4</ele>
        <time>2022-07-11T13:22:46Z</time>
      </trkpt>
      <trkpt lat="46.65127" lon="5.38984">
        <ele>213.8</ele>
        <time>2022-07-11T13:22:50Z</time>
      </trkpt>
      <trkpt lat="46.65124" lon="5.38991">
        <ele>213.8</ele>
        <time>2022-07-11T13:22:51Z</time>
      </trkpt>
      <trkpt lat="46.65118" lon="5.39007">
        <ele>213.8</ele>
        <time>2022-07-11T13:22:53Z</time>
      </trkpt>
      <trkpt lat="46.65116" lon="5.39015">
        <ele>213.8</ele>
        <time>2022-07-11T13:22:54Z</time>
      </trkpt>
      <trkpt lat="46.6511" lon="5.39034">
        <ele>213.8</ele>
        <time>2022-07-11T13:22:56Z</time>
      </trkpt>
      <trkpt lat="46.65103" lon="5.39052">
        <ele>213.8</ele>
        <time>2022-07-11T13:22:58Z</time>
      </trkpt>
      <trkpt lat="46.65078" lon="5.39106">
        <ele>213.6</ele>
        <time>2022-07-11T13:23:04Z</time>
      </trkpt>
      <trkpt lat="46.65068" lon="5.39128">
        <ele>213.4</ele>
        <time>2022-07-11T13:23:06Z</time>
      </trkpt>
      <trkpt lat="46.65046" lon="5.39159">
        <ele>213.4</ele>
        <time>2022-07-11T13:23:10Z</time>
      </trkpt>
      <trkpt lat="46.65016" lon="5.39204">
        <ele>213.4</ele>
        <time>2022-07-11T13:23:16Z</time>
      </trkpt>
      <trkpt lat="46.64978" lon="5.39268">
        <ele>213.4</ele>
        <time>2022-07-11T13:23:24Z</time>
      </trkpt>
      <trkpt lat="46.64947" lon="5.39336">
        <ele>213.2</ele>
        <time>2022-07-11T13:23:32Z</time>
      </trkpt>
      <trkpt lat="46.64943" lon="5.39345">
        <ele>213.2</ele>
        <time>2022-07-11T13:23:33Z</time>
      </trkpt>
      <trkpt lat="46.64937" lon="5.3937">
        <ele>213</ele>
        <time>2022-07-11T13:23:36Z</time>
      </trkpt>
      <trkpt lat="46.64933" lon="5.39386">
        <ele>213</ele>
        <time>2022-07-11T13:23:38Z</time>
      </trkpt>
      <trkpt lat="46.64927" lon="5.39408">
        <ele>213</ele>
        <time>2022-07-11T13:23:41Z</time>
      </trkpt>
      <trkpt lat="46.64917" lon="5.39452">
        <ele>213</ele>
        <time>2022-07-11T13:23:46Z</time>
      </trkpt>
      <trkpt lat="46.64913" lon="5.39472">
        <ele>213</ele>
        <time>2022-07-11T13:23:48Z</time>
      </trkpt>
      <trkpt lat="46.64908" lon="5.39509">
        <ele>213</ele>
        <time>2022-07-11T13:23:52Z</time>
      </trkpt>
      <trkpt lat="46.64907" lon="5.39569">
        <ele>213.2</ele>
        <time>2022-07-11T13:23:58Z</time>
      </trkpt>
      <trkpt lat="46.64908" lon="5.39645">
        <ele>213</ele>
        <time>2022-07-11T13:24:06Z</time>
      </trkpt>
      <trkpt lat="46.64914" lon="5.39691">
        <ele>213</ele>
        <time>2022-07-11T13:24:11Z</time>
      </trkpt>
      <trkpt lat="46.64915" lon="5.39699">
        <ele>213.2</ele>
        <time>2022-07-11T13:24:12Z</time>
      </trkpt>
      <trkpt lat="46.64931" lon="5.39772">
        <ele>213.2</ele>
        <time>2022-07-11T13:24:20Z</time>
      </trkpt>
      <trkpt lat="46.64955" lon="5.39842">
        <ele>213.6</ele>
        <time>2022-07-11T13:24:28Z</time>
      </trkpt>
      <trkpt lat="46.6498" lon="5.39896">
        <ele>213.8</ele>
        <time>2022-07-11T13:24:34Z</time>
      </trkpt>
      <trkpt lat="46.65021" lon="5.39958">
        <ele>214.2</ele>
        <time>2022-07-11T13:24:42Z</time>
      </trkpt>
      <trkpt lat="46.6506" lon="5.40004">
        <ele>214.4</ele>
        <time>2022-07-11T13:24:49Z</time>
      </trkpt>
      <trkpt lat="46.65103" lon="5.40047">
        <ele>214.2</ele>
        <time>2022-07-11T13:24:56Z</time>
      </trkpt>
      <trkpt lat="46.65152" lon="5.40094">
        <ele>214.2</ele>
        <time>2022-07-11T13:25:04Z</time>
      </trkpt>
      <trkpt lat="46.65181" lon="5.40122">
        <ele>214.2</ele>
        <time>2022-07-11T13:25:09Z</time>
      </trkpt>
      <trkpt lat="46.65227" lon="5.40175">
        <ele>214.2</ele>
        <time>2022-07-11T13:25:17Z</time>
      </trkpt>
      <trkpt lat="46.65258" lon="5.40225">
        <ele>214.2</ele>
        <time>2022-07-11T13:25:24Z</time>
      </trkpt>
      <trkpt lat="46.65288" lon="5.40287">
        <ele>214</ele>
        <time>2022-07-11T13:25:32Z</time>
      </trkpt>
      <trkpt lat="46.65311" lon="5.40354">
        <ele>213.6</ele>
        <time>2022-07-11T13:25:40Z</time>
      </trkpt>
      <trkpt lat="46.65327" lon="5.40427">
        <ele>213.4</ele>
        <time>2022-07-11T13:25:48Z</time>
      </trkpt>
      <trkpt lat="46.65335" lon="5.40496">
        <ele>213.4</ele>
        <time>2022-07-11T13:25:56Z</time>
      </trkpt>
      <trkpt lat="46.6534" lon="5.4056">
        <ele>213</ele>
        <time>2022-07-11T13:26:03Z</time>
      </trkpt>
      <trkpt lat="46.6534" lon="5.40591">
        <ele>213</ele>
        <time>2022-07-11T13:26:06Z</time>
      </trkpt>
      <trkpt lat="46.6534" lon="5.40632">
        <ele>213.2</ele>
        <time>2022-07-11T13:26:10Z</time>
      </trkpt>
      <trkpt lat="46.65341" lon="5.40713">
        <ele>213.4</ele>
        <time>2022-07-11T13:26:18Z</time>
      </trkpt>
      <trkpt lat="46.65341" lon="5.40733">
        <ele>213.4</ele>
        <time>2022-07-11T13:26:20Z</time>
      </trkpt>
      <trkpt lat="46.65342" lon="5.40811">
        <ele>213.6</ele>
        <time>2022-07-11T13:26:28Z</time>
      </trkpt>
      <trkpt lat="46.65342" lon="5.40898">
        <ele>213</ele>
        <time>2022-07-11T13:26:37Z</time>
      </trkpt>
      <trkpt lat="46.65341" lon="5.40954">
        <ele>213</ele>
        <time>2022-07-11T13:26:43Z</time>
      </trkpt>
      <trkpt lat="46.65342" lon="5.40963">
        <ele>213</ele>
        <time>2022-07-11T13:26:44Z</time>
      </trkpt>
      <trkpt lat="46.65351" lon="5.41018">
        <ele>213</ele>
        <time>2022-07-11T13:26:50Z</time>
      </trkpt>
      <trkpt lat="46.65361" lon="5.41066">
        <ele>213.4</ele>
        <time>2022-07-11T13:26:55Z</time>
      </trkpt>
      <trkpt lat="46.65371" lon="5.41102">
        <ele>213.6</ele>
        <time>2022-07-11T13:26:59Z</time>
      </trkpt>
      <trkpt lat="46.65374" lon="5.41111">
        <ele>213.6</ele>
        <time>2022-07-11T13:27:00Z</time>
      </trkpt>
      <trkpt lat="46.65393" lon="5.41163">
        <ele>214.2</ele>
        <time>2022-07-11T13:27:06Z</time>
      </trkpt>
      <trkpt lat="46.65396" lon="5.4117">
        <ele>214.2</ele>
        <time>2022-07-11T13:27:07Z</time>
      </trkpt>
      <trkpt lat="46.65412" lon="5.41201">
        <ele>214.6</ele>
        <time>2022-07-11T13:27:11Z</time>
      </trkpt>
      <trkpt lat="46.65417" lon="5.41209">
        <ele>214.6</ele>
        <time>2022-07-11T13:27:12Z</time>
      </trkpt>
      <trkpt lat="46.65426" lon="5.41223">
        <ele>214.8</ele>
        <time>2022-07-11T13:27:14Z</time>
      </trkpt>
      <trkpt lat="46.65441" lon="5.41244">
        <ele>215</ele>
        <time>2022-07-11T13:27:17Z</time>
      </trkpt>
      <trkpt lat="46.6545" lon="5.41258">
        <ele>215.2</ele>
        <time>2022-07-11T13:27:19Z</time>
      </trkpt>
      <trkpt lat="46.65465" lon="5.41275">
        <ele>215.2</ele>
        <time>2022-07-11T13:27:22Z</time>
      </trkpt>
      <trkpt lat="46.65472" lon="5.41278">
        <ele>215.4</ele>
        <time>2022-07-11T13:27:23Z</time>
      </trkpt>
      <trkpt lat="46.65478" lon="5.41278">
        <ele>215.4</ele>
        <time>2022-07-11T13:27:24Z</time>
      </trkpt>
      <trkpt lat="46.65496" lon="5.41272">
        <ele>215.8</ele>
        <time>2022-07-11T13:27:27Z</time>
      </trkpt>
      <trkpt lat="46.65526" lon="5.41262">
        <ele>216.2</ele>
        <time>2022-07-11T13:27:32Z</time>
      </trkpt>
      <trkpt lat="46.65531" lon="5.4126">
        <ele>216.2</ele>
        <time>2022-07-11T13:27:33Z</time>
      </trkpt>
      <trkpt lat="46.65541" lon="5.41255">
        <ele>216.6</ele>
        <time>2022-07-11T13:27:35Z</time>
      </trkpt>
      <trkpt lat="46.65554" lon="5.41252">
        <ele>217.2</ele>
        <time>2022-07-11T13:27:38Z</time>
      </trkpt>
      <trkpt lat="46.65558" lon="5.41251">
        <ele>217.6</ele>
        <time>2022-07-11T13:27:39Z</time>
      </trkpt>
      <trkpt lat="46.65566" lon="5.41253">
        <ele>218.2</ele>
        <time>2022-07-11T13:27:41Z</time>
      </trkpt>
      <trkpt lat="46.65573" lon="5.41258">
        <ele>218.8</ele>
        <time>2022-07-11T13:27:43Z</time>
      </trkpt>
      <trkpt lat="46.65584" lon="5.41271">
        <ele>220.2</ele>
        <time>2022-07-11T13:27:46Z</time>
      </trkpt>
      <trkpt lat="46.65591" lon="5.41281">
        <ele>220.8</ele>
        <time>2022-07-11T13:27:48Z</time>
      </trkpt>
      <trkpt lat="46.65595" lon="5.41287">
        <ele>221.2</ele>
        <time>2022-07-11T13:27:49Z</time>
      </trkpt>
      <trkpt lat="46.6561" lon="5.41308">
        <ele>222.2</ele>
        <time>2022-07-11T13:27:53Z</time>
      </trkpt>
      <trkpt lat="46.65615" lon="5.41313">
        <ele>222.2</ele>
        <time>2022-07-11T13:27:54Z</time>
      </trkpt>
      <trkpt lat="46.65635" lon="5.41342">
        <ele>223.4</ele>
        <time>2022-07-11T13:27:59Z</time>
      </trkpt>
      <trkpt lat="46.65647" lon="5.41358">
        <ele>223.6</ele>
        <time>2022-07-11T13:28:02Z</time>
      </trkpt>
      <trkpt lat="46.65668" lon="5.41387">
        <ele>224.4</ele>
        <time>2022-07-11T13:28:07Z</time>
      </trkpt>
      <trkpt lat="46.6568" lon="5.41403">
        <ele>224.6</ele>
        <time>2022-07-11T13:28:10Z</time>
      </trkpt>
      <trkpt lat="46.65698" lon="5.41432">
        <ele>225.2</ele>
        <time>2022-07-11T13:28:15Z</time>
      </trkpt>
      <trkpt lat="46.65708" lon="5.41453">
        <ele>225.4</ele>
        <time>2022-07-11T13:28:18Z</time>
      </trkpt>
      <trkpt lat="46.65719" lon="5.41482">
        <ele>225.6</ele>
        <time>2022-07-11T13:28:22Z</time>
      </trkpt>
      <trkpt lat="46.65724" lon="5.41508">
        <ele>225.8</ele>
        <time>2022-07-11T13:28:25Z</time>
      </trkpt>
      <trkpt lat="46.65736" lon="5.4157">
        <ele>225.8</ele>
        <time>2022-07-11T13:28:32Z</time>
      </trkpt>
      <trkpt lat="46.65753" lon="5.41622">
        <ele>226</ele>
        <time>2022-07-11T13:28:38Z</time>
      </trkpt>
      <trkpt lat="46.65778" lon="5.41679">
        <ele>226.2</ele>
        <time>2022-07-11T13:28:45Z</time>
      </trkpt>
      <trkpt lat="46.65783" lon="5.41686">
        <ele>226.2</ele>
        <time>2022-07-11T13:28:46Z</time>
      </trkpt>
      <trkpt lat="46.65788" lon="5.41691">
        <ele>226.4</ele>
        <time>2022-07-11T13:28:47Z</time>
      </trkpt>
      <trkpt lat="46.65794" lon="5.41695">
        <ele>226.4</ele>
        <time>2022-07-11T13:28:48Z</time>
      </trkpt>
      <trkpt lat="46.65805" lon="5.41703">
        <ele>226.8</ele>
        <time>2022-07-11T13:28:50Z</time>
      </trkpt>
      <trkpt lat="46.65816" lon="5.4171">
        <ele>227.2</ele>
        <time>2022-07-11T13:28:52Z</time>
      </trkpt>
      <trkpt lat="46.65831" lon="5.41725">
        <ele>227.4</ele>
        <time>2022-07-11T13:28:55Z</time>
      </trkpt>
      <trkpt lat="46.65838" lon="5.41739">
        <ele>228</ele>
        <time>2022-07-11T13:28:57Z</time>
      </trkpt>
      <trkpt lat="46.65839" lon="5.41747">
        <ele>228</ele>
        <time>2022-07-11T13:28:58Z</time>
      </trkpt>
      <trkpt lat="46.65839" lon="5.41754">
        <ele>228.2</ele>
        <time>2022-07-11T13:28:59Z</time>
      </trkpt>
      <trkpt lat="46.65833" lon="5.41769">
        <ele>228.4</ele>
        <time>2022-07-11T13:29:01Z</time>
      </trkpt>
      <trkpt lat="46.65813" lon="5.4181">
        <ele>228</ele>
        <time>2022-07-11T13:29:06Z</time>
      </trkpt>
      <trkpt lat="46.65787" lon="5.41868">
        <ele>227</ele>
        <time>2022-07-11T13:29:12Z</time>
      </trkpt>
      <trkpt lat="46.65783" lon="5.41876">
        <ele>226.6</ele>
        <time>2022-07-11T13:29:13Z</time>
      </trkpt>
      <trkpt lat="46.65775" lon="5.41884">
        <ele>225.6</ele>
        <time>2022-07-11T13:29:15Z</time>
      </trkpt>
      <trkpt lat="46.65766" lon="5.41881">
        <ele>224.6</ele>
        <time>2022-07-11T13:29:17Z</time>
      </trkpt>
      <trkpt lat="46.65762" lon="5.41875">
        <ele>224.2</ele>
        <time>2022-07-11T13:29:18Z</time>
      </trkpt>
      <trkpt lat="46.65752" lon="5.41861">
        <ele>222.4</ele>
        <time>2022-07-11T13:29:20Z</time>
      </trkpt>
      <trkpt lat="46.65741" lon="5.41846">
        <ele>222</ele>
        <time>2022-07-11T13:29:22Z</time>
      </trkpt>
      <trkpt lat="46.65722" lon="5.41812">
        <ele>221.4</ele>
        <time>2022-07-11T13:29:26Z</time>
      </trkpt>
      <trkpt lat="46.65717" lon="5.41803">
        <ele>221.2</ele>
        <time>2022-07-11T13:29:27Z</time>
      </trkpt>
      <trkpt lat="46.65693" lon="5.41758">
        <ele>220.4</ele>
        <time>2022-07-11T13:29:32Z</time>
      </trkpt>
      <trkpt lat="46.65678" lon="5.4173">
        <ele>220</ele>
        <time>2022-07-11T13:29:35Z</time>
      </trkpt>
      <trkpt lat="46.65644" lon="5.41677">
        <ele>219.4</ele>
        <time>2022-07-11T13:29:42Z</time>
      </trkpt>
      <trkpt lat="46.6564" lon="5.41678">
        <ele>219.2</ele>
        <time>2022-07-11T13:29:43Z</time>
      </trkpt>
      <trkpt lat="46.65638" lon="5.41684">
        <ele>219.2</ele>
        <time>2022-07-11T13:29:44Z</time>
      </trkpt>
      <trkpt lat="46.6564" lon="5.41701">
        <ele>218.8</ele>
        <time>2022-07-11T13:29:46Z</time>
      </trkpt>
      <trkpt lat="46.65645" lon="5.4172">
        <ele>218.2</ele>
        <time>2022-07-11T13:29:48Z</time>
      </trkpt>
      <trkpt lat="46.65657" lon="5.41756">
        <ele>217.6</ele>
        <time>2022-07-11T13:29:52Z</time>
      </trkpt>
      <trkpt lat="46.65688" lon="5.41817">
        <ele>217.8</ele>
        <time>2022-07-11T13:29:59Z</time>
      </trkpt>
      <trkpt lat="46.65727" lon="5.41876">
        <ele>218.4</ele>
        <time>2022-07-11T13:30:06Z</time>
      </trkpt>
      <trkpt lat="46.65733" lon="5.41884">
        <ele>218.6</ele>
        <time>2022-07-11T13:30:07Z</time>
      </trkpt>
      <trkpt lat="46.65774" lon="5.41941">
        <ele>218.6</ele>
        <time>2022-07-11T13:30:14Z</time>
      </trkpt>
      <trkpt lat="46.65796" lon="5.41971">
        <ele>218.6</ele>
        <time>2022-07-11T13:30:18Z</time>
      </trkpt>
      <trkpt lat="46.65834" lon="5.42025">
        <ele>218.4</ele>
        <time>2022-07-11T13:30:25Z</time>
      </trkpt>
      <trkpt lat="46.65869" lon="5.42097">
        <ele>218.4</ele>
        <time>2022-07-11T13:30:33Z</time>
      </trkpt>
      <trkpt lat="46.65895" lon="5.42174">
        <ele>218.2</ele>
        <time>2022-07-11T13:30:41Z</time>
      </trkpt>
      <trkpt lat="46.6591" lon="5.42246">
        <ele>218.2</ele>
        <time>2022-07-11T13:30:48Z</time>
      </trkpt>
      <trkpt lat="46.65924" lon="5.42329">
        <ele>218.2</ele>
        <time>2022-07-11T13:30:56Z</time>
      </trkpt>
      <trkpt lat="46.65925" lon="5.42339">
        <ele>218.2</ele>
        <time>2022-07-11T13:30:57Z</time>
      </trkpt>
      <trkpt lat="46.65942" lon="5.42422">
        <ele>218</ele>
        <time>2022-07-11T13:31:05Z</time>
      </trkpt>
      <trkpt lat="46.65969" lon="5.425">
        <ele>217.8</ele>
        <time>2022-07-11T13:31:13Z</time>
      </trkpt>
      <trkpt lat="46.66005" lon="5.42569">
        <ele>218.2</ele>
        <time>2022-07-11T13:31:21Z</time>
      </trkpt>
      <trkpt lat="46.66042" lon="5.4263">
        <ele>218.4</ele>
        <time>2022-07-11T13:31:29Z</time>
      </trkpt>
      <trkpt lat="46.66051" lon="5.42644">
        <ele>218.4</ele>
        <time>2022-07-11T13:31:31Z</time>
      </trkpt>
      <trkpt lat="46.66062" lon="5.42662">
        <ele>218.4</ele>
        <time>2022-07-11T13:31:34Z</time>
      </trkpt>
      <trkpt lat="46.66066" lon="5.42667">
        <ele>218.4</ele>
        <time>2022-07-11T13:31:35Z</time>
      </trkpt>
      <trkpt lat="46.6607" lon="5.42672">
        <ele>218.4</ele>
        <time>2022-07-11T13:31:36Z</time>
      </trkpt>
      <trkpt lat="46.66078" lon="5.42686">
        <ele>218.4</ele>
        <time>2022-07-11T13:31:38Z</time>
      </trkpt>
      <trkpt lat="46.66082" lon="5.42695">
        <ele>218.4</ele>
        <time>2022-07-11T13:31:39Z</time>
      </trkpt>
      <trkpt lat="46.66087" lon="5.42703">
        <ele>218.4</ele>
        <time>2022-07-11T13:31:40Z</time>
      </trkpt>
      <trkpt lat="46.66102" lon="5.4273">
        <ele>218.4</ele>
        <time>2022-07-11T13:31:43Z</time>
      </trkpt>
      <trkpt lat="46.66137" lon="5.42785">
        <ele>218.6</ele>
        <time>2022-07-11T13:31:49Z</time>
      </trkpt>
      <trkpt lat="46.66175" lon="5.4285">
        <ele>218.6</ele>
        <time>2022-07-11T13:31:56Z</time>
      </trkpt>
      <trkpt lat="46.6618" lon="5.42859">
        <ele>218.6</ele>
        <time>2022-07-11T13:31:57Z</time>
      </trkpt>
      <trkpt lat="46.66214" lon="5.42922">
        <ele>218.6</ele>
        <time>2022-07-11T13:32:04Z</time>
      </trkpt>
      <trkpt lat="46.6624" lon="5.42992">
        <ele>218.6</ele>
        <time>2022-07-11T13:32:11Z</time>
      </trkpt>
      <trkpt lat="46.66256" lon="5.43054">
        <ele>218.6</ele>
        <time>2022-07-11T13:32:17Z</time>
      </trkpt>
      <trkpt lat="46.66269" lon="5.4313">
        <ele>218.2</ele>
        <time>2022-07-11T13:32:24Z</time>
      </trkpt>
      <trkpt lat="46.66273" lon="5.4322">
        <ele>217.6</ele>
        <time>2022-07-11T13:32:32Z</time>
      </trkpt>
      <trkpt lat="46.6627" lon="5.43294">
        <ele>217.8</ele>
        <time>2022-07-11T13:32:39Z</time>
      </trkpt>
      <trkpt lat="46.66265" lon="5.43379">
        <ele>218.8</ele>
        <time>2022-07-11T13:32:47Z</time>
      </trkpt>
      <trkpt lat="46.66265" lon="5.43389">
        <ele>219</ele>
        <time>2022-07-11T13:32:48Z</time>
      </trkpt>
      <trkpt lat="46.66261" lon="5.4346">
        <ele>219.4</ele>
        <time>2022-07-11T13:32:55Z</time>
      </trkpt>
      <trkpt lat="46.66261" lon="5.43472">
        <ele>219.4</ele>
        <time>2022-07-11T13:32:56Z</time>
      </trkpt>
      <trkpt lat="46.66256" lon="5.4354">
        <ele>219.6</ele>
        <time>2022-07-11T13:33:03Z</time>
      </trkpt>
      <trkpt lat="46.66252" lon="5.43615">
        <ele>220.4</ele>
        <time>2022-07-11T13:33:11Z</time>
      </trkpt>
      <trkpt lat="46.66252" lon="5.43624">
        <ele>220.4</ele>
        <time>2022-07-11T13:33:12Z</time>
      </trkpt>
      <trkpt lat="46.66254" lon="5.43681">
        <ele>221.2</ele>
        <time>2022-07-11T13:33:18Z</time>
      </trkpt>
      <trkpt lat="46.66255" lon="5.43699">
        <ele>221.2</ele>
        <time>2022-07-11T13:33:20Z</time>
      </trkpt>
      <trkpt lat="46.66258" lon="5.43735">
        <ele>221.2</ele>
        <time>2022-07-11T13:33:24Z</time>
      </trkpt>
      <trkpt lat="46.66266" lon="5.43782">
        <ele>221.2</ele>
        <time>2022-07-11T13:33:30Z</time>
      </trkpt>
      <trkpt lat="46.6627" lon="5.4381">
        <ele>221.4</ele>
        <time>2022-07-11T13:33:34Z</time>
      </trkpt>
      <trkpt lat="46.66274" lon="5.43821">
        <ele>221.4</ele>
        <time>2022-07-11T13:33:36Z</time>
      </trkpt>
      <trkpt lat="46.66279" lon="5.43836">
        <ele>221.6</ele>
        <time>2022-07-11T13:33:38Z</time>
      </trkpt>
      <trkpt lat="46.66284" lon="5.43861">
        <ele>222</ele>
        <time>2022-07-11T13:33:41Z</time>
      </trkpt>
      <trkpt lat="46.66297" lon="5.43924">
        <ele>222</ele>
        <time>2022-07-11T13:33:48Z</time>
      </trkpt>
      <trkpt lat="46.66319" lon="5.43991">
        <ele>222</ele>
        <time>2022-07-11T13:33:55Z</time>
      </trkpt>
      <trkpt lat="46.6635" lon="5.44057">
        <ele>221.6</ele>
        <time>2022-07-11T13:34:03Z</time>
      </trkpt>
      <trkpt lat="46.66384" lon="5.44119">
        <ele>221.2</ele>
        <time>2022-07-11T13:34:11Z</time>
      </trkpt>
      <trkpt lat="46.66392" lon="5.44134">
        <ele>221.2</ele>
        <time>2022-07-11T13:34:13Z</time>
      </trkpt>
      <trkpt lat="46.66425" lon="5.44196">
        <ele>221.8</ele>
        <time>2022-07-11T13:34:21Z</time>
      </trkpt>
      <trkpt lat="46.66439" lon="5.44227">
        <ele>221.8</ele>
        <time>2022-07-11T13:34:25Z</time>
      </trkpt>
      <trkpt lat="46.66447" lon="5.44253">
        <ele>221.6</ele>
        <time>2022-07-11T13:34:28Z</time>
      </trkpt>
      <trkpt lat="46.6647" lon="5.44325">
        <ele>221.6</ele>
        <time>2022-07-11T13:34:36Z</time>
      </trkpt>
      <trkpt lat="46.66472" lon="5.44334">
        <ele>221.8</ele>
        <time>2022-07-11T13:34:37Z</time>
      </trkpt>
      <trkpt lat="46.66479" lon="5.44373">
        <ele>221.8</ele>
        <time>2022-07-11T13:34:41Z</time>
      </trkpt>
      <trkpt lat="46.66488" lon="5.44442">
        <ele>221.8</ele>
        <time>2022-07-11T13:34:48Z</time>
      </trkpt>
      <trkpt lat="46.66491" lon="5.44511">
        <ele>221.6</ele>
        <time>2022-07-11T13:34:55Z</time>
      </trkpt>
      <trkpt lat="46.66493" lon="5.44531">
        <ele>221.8</ele>
        <time>2022-07-11T13:34:57Z</time>
      </trkpt>
      <trkpt lat="46.66497" lon="5.44597">
        <ele>222</ele>
        <time>2022-07-11T13:35:04Z</time>
      </trkpt>
      <trkpt lat="46.66502" lon="5.44674">
        <ele>222.2</ele>
        <time>2022-07-11T13:35:12Z</time>
      </trkpt>
      <trkpt lat="46.66508" lon="5.44741">
        <ele>222.4</ele>
        <time>2022-07-11T13:35:19Z</time>
      </trkpt>
      <trkpt lat="46.66511" lon="5.4482">
        <ele>222.2</ele>
        <time>2022-07-11T13:35:27Z</time>
      </trkpt>
      <trkpt lat="46.66511" lon="5.44841">
        <ele>222.6</ele>
        <time>2022-07-11T13:35:29Z</time>
      </trkpt>
      <trkpt lat="46.66508" lon="5.44894">
        <ele>223.2</ele>
        <time>2022-07-11T13:35:34Z</time>
      </trkpt>
      <trkpt lat="46.66501" lon="5.44978">
        <ele>223</ele>
        <time>2022-07-11T13:35:42Z</time>
      </trkpt>
      <trkpt lat="46.665" lon="5.44985">
        <ele>223</ele>
        <time>2022-07-11T13:35:43Z</time>
      </trkpt>
      <trkpt lat="46.66491" lon="5.45074">
        <ele>223.4</ele>
        <time>2022-07-11T13:35:52Z</time>
      </trkpt>
      <trkpt lat="46.66486" lon="5.45129">
        <ele>223.8</ele>
        <time>2022-07-11T13:35:58Z</time>
      </trkpt>
      <trkpt lat="46.66483" lon="5.45147">
        <ele>224</ele>
        <time>2022-07-11T13:36:00Z</time>
      </trkpt>
      <trkpt lat="46.66478" lon="5.45224">
        <ele>224.6</ele>
        <time>2022-07-11T13:36:08Z</time>
      </trkpt>
      <trkpt lat="46.66477" lon="5.45232">
        <ele>224.8</ele>
        <time>2022-07-11T13:36:09Z</time>
      </trkpt>
      <trkpt lat="46.66474" lon="5.4529">
        <ele>225.4</ele>
        <time>2022-07-11T13:36:15Z</time>
      </trkpt>
      <trkpt lat="46.66469" lon="5.45365">
        <ele>225.2</ele>
        <time>2022-07-11T13:36:23Z</time>
      </trkpt>
      <trkpt lat="46.66466" lon="5.45419">
        <ele>225.8</ele>
        <time>2022-07-11T13:36:29Z</time>
      </trkpt>
      <trkpt lat="46.66464" lon="5.45446">
        <ele>226.4</ele>
        <time>2022-07-11T13:36:32Z</time>
      </trkpt>
      <trkpt lat="46.66462" lon="5.45473">
        <ele>226.8</ele>
        <time>2022-07-11T13:36:35Z</time>
      </trkpt>
      <trkpt lat="46.66459" lon="5.45518">
        <ele>227.8</ele>
        <time>2022-07-11T13:36:40Z</time>
      </trkpt>
      <trkpt lat="46.66459" lon="5.45527">
        <ele>228</ele>
        <time>2022-07-11T13:36:41Z</time>
      </trkpt>
      <trkpt lat="46.66453" lon="5.45611">
        <ele>228.2</ele>
        <time>2022-07-11T13:36:50Z</time>
      </trkpt>
      <trkpt lat="46.66452" lon="5.45628">
        <ele>228.2</ele>
        <time>2022-07-11T13:36:52Z</time>
      </trkpt>
      <trkpt lat="46.66448" lon="5.45693">
        <ele>228.4</ele>
        <time>2022-07-11T13:36:59Z</time>
      </trkpt>
      <trkpt lat="46.66444" lon="5.45748">
        <ele>229</ele>
        <time>2022-07-11T13:37:05Z</time>
      </trkpt>
      <trkpt lat="46.66444" lon="5.45766">
        <ele>229.2</ele>
        <time>2022-07-11T13:37:07Z</time>
      </trkpt>
      <trkpt lat="46.66444" lon="5.45782">
        <ele>229.2</ele>
        <time>2022-07-11T13:37:09Z</time>
      </trkpt>
      <trkpt lat="46.66442" lon="5.45813">
        <ele>229</ele>
        <time>2022-07-11T13:37:14Z</time>
      </trkpt>
      <trkpt lat="46.66439" lon="5.45817">
        <ele>228.8</ele>
        <time>2022-07-11T13:37:16Z</time>
      </trkpt>
      <trkpt lat="46.66438" lon="5.45817">
        <ele>228.8</ele>
        <time>2022-07-11T13:37:17Z</time>
      </trkpt>
      <trkpt lat="46.66436" lon="5.45816">
        <ele>228.8</ele>
        <time>2022-07-11T13:37:18Z</time>
      </trkpt>
      <trkpt lat="46.6643" lon="5.45805">
        <ele>228.6</ele>
        <time>2022-07-11T13:37:21Z</time>
      </trkpt>
      <trkpt lat="46.66417" lon="5.4578">
        <ele>228.6</ele>
        <time>2022-07-11T13:37:25Z</time>
      </trkpt>
      <trkpt lat="46.66408" lon="5.45763">
        <ele>228.6</ele>
        <time>2022-07-11T13:37:27Z</time>
      </trkpt>
      <trkpt lat="46.66396" lon="5.4574">
        <ele>228.4</ele>
        <time>2022-07-11T13:37:30Z</time>
      </trkpt>
      <trkpt lat="46.66373" lon="5.4569">
        <ele>228.4</ele>
        <time>2022-07-11T13:37:36Z</time>
      </trkpt>
      <trkpt lat="46.6634" lon="5.45627">
        <ele>229.4</ele>
        <time>2022-07-11T13:37:44Z</time>
      </trkpt>
      <trkpt lat="46.66327" lon="5.45607">
        <ele>229.8</ele>
        <time>2022-07-11T13:37:47Z</time>
      </trkpt>
      <trkpt lat="46.66317" lon="5.45592">
        <ele>230.2</ele>
        <time>2022-07-11T13:37:49Z</time>
      </trkpt>
      <trkpt lat="46.66285" lon="5.4556">
        <ele>230.8</ele>
        <time>2022-07-11T13:37:55Z</time>
      </trkpt>
      <trkpt lat="46.66273" lon="5.45549">
        <ele>231</ele>
        <time>2022-07-11T13:37:57Z</time>
      </trkpt>
      <trkpt lat="46.66241" lon="5.45524">
        <ele>230.8</ele>
        <time>2022-07-11T13:38:02Z</time>
      </trkpt>
      <trkpt lat="46.66193" lon="5.45502">
        <ele>230.4</ele>
        <time>2022-07-11T13:38:09Z</time>
      </trkpt>
      <trkpt lat="46.6614" lon="5.45479">
        <ele>231</ele>
        <time>2022-07-11T13:38:17Z</time>
      </trkpt>
      <trkpt lat="46.66134" lon="5.45476">
        <ele>231.2</ele>
        <time>2022-07-11T13:38:18Z</time>
      </trkpt>
      <trkpt lat="46.66121" lon="5.4547">
        <ele>231.2</ele>
        <time>2022-07-11T13:38:20Z</time>
      </trkpt>
      <trkpt lat="46.66098" lon="5.45453">
        <ele>231.4</ele>
        <time>2022-07-11T13:38:24Z</time>
      </trkpt>
      <trkpt lat="46.66067" lon="5.45411">
        <ele>232</ele>
        <time>2022-07-11T13:38:31Z</time>
      </trkpt>
      <trkpt lat="46.66054" lon="5.45392">
        <ele>232.4</ele>
        <time>2022-07-11T13:38:34Z</time>
      </trkpt>
      <trkpt lat="46.66029" lon="5.45351">
        <ele>233.4</ele>
        <time>2022-07-11T13:38:40Z</time>
      </trkpt>
      <trkpt lat="46.66025" lon="5.45344">
        <ele>233.6</ele>
        <time>2022-07-11T13:38:41Z</time>
      </trkpt>
      <trkpt lat="46.66008" lon="5.45315">
        <ele>234</ele>
        <time>2022-07-11T13:38:45Z</time>
      </trkpt>
      <trkpt lat="46.65999" lon="5.4529">
        <ele>234</ele>
        <time>2022-07-11T13:38:48Z</time>
      </trkpt>
      <trkpt lat="46.65988" lon="5.45262">
        <ele>233.8</ele>
        <time>2022-07-11T13:38:51Z</time>
      </trkpt>
      <trkpt lat="46.65971" lon="5.45232">
        <ele>233.8</ele>
        <time>2022-07-11T13:38:55Z</time>
      </trkpt>
      <trkpt lat="46.6596" lon="5.4522">
        <ele>233.8</ele>
        <time>2022-07-11T13:38:57Z</time>
      </trkpt>
      <trkpt lat="46.65938" lon="5.45199">
        <ele>234</ele>
        <time>2022-07-11T13:39:01Z</time>
      </trkpt>
      <trkpt lat="46.65908" lon="5.45169">
        <ele>234.2</ele>
        <time>2022-07-11T13:39:06Z</time>
      </trkpt>
      <trkpt lat="46.65903" lon="5.45162">
        <ele>234.2</ele>
        <time>2022-07-11T13:39:07Z</time>
      </trkpt>
      <trkpt lat="46.65868" lon="5.45112">
        <ele>234</ele>
        <time>2022-07-11T13:39:14Z</time>
      </trkpt>
      <trkpt lat="46.65828" lon="5.45071">
        <ele>233.4</ele>
        <time>2022-07-11T13:39:20Z</time>
      </trkpt>
      <trkpt lat="46.65794" lon="5.45034">
        <ele>232.4</ele>
        <time>2022-07-11T13:39:25Z</time>
      </trkpt>
      <trkpt lat="46.65781" lon="5.45016">
        <ele>232.2</ele>
        <time>2022-07-11T13:39:27Z</time>
      </trkpt>
      <trkpt lat="46.65773" lon="5.44996">
        <ele>231.8</ele>
        <time>2022-07-11T13:39:29Z</time>
      </trkpt>
      <trkpt lat="46.65771" lon="5.44986">
        <ele>231.8</ele>
        <time>2022-07-11T13:39:30Z</time>
      </trkpt>
      <trkpt lat="46.6577" lon="5.44978">
        <ele>231.8</ele>
        <time>2022-07-11T13:39:31Z</time>
      </trkpt>
      <trkpt lat="46.65768" lon="5.44937">
        <ele>232.4</ele>
        <time>2022-07-11T13:39:35Z</time>
      </trkpt>
      <trkpt lat="46.65766" lon="5.44898">
        <ele>233.6</ele>
        <time>2022-07-11T13:39:39Z</time>
      </trkpt>
      <trkpt lat="46.65763" lon="5.44869">
        <ele>234</ele>
        <time>2022-07-11T13:39:42Z</time>
      </trkpt>
      <trkpt lat="46.65755" lon="5.44834">
        <ele>234.6</ele>
        <time>2022-07-11T13:39:46Z</time>
      </trkpt>
      <trkpt lat="46.65747" lon="5.44807">
        <ele>234.8</ele>
        <time>2022-07-11T13:39:49Z</time>
      </trkpt>
      <trkpt lat="46.65735" lon="5.44746">
        <ele>235.4</ele>
        <time>2022-07-11T13:39:55Z</time>
      </trkpt>
      <trkpt lat="46.65726" lon="5.44697">
        <ele>235.4</ele>
        <time>2022-07-11T13:40:00Z</time>
      </trkpt>
      <trkpt lat="46.65718" lon="5.4468">
        <ele>235.4</ele>
        <time>2022-07-11T13:40:02Z</time>
      </trkpt>
      <trkpt lat="46.65679" lon="5.44625">
        <ele>235.2</ele>
        <time>2022-07-11T13:40:09Z</time>
      </trkpt>
      <trkpt lat="46.65635" lon="5.44567">
        <ele>234.4</ele>
        <time>2022-07-11T13:40:17Z</time>
      </trkpt>
      <trkpt lat="46.65592" lon="5.44519">
        <ele>234.2</ele>
        <time>2022-07-11T13:40:24Z</time>
      </trkpt>
      <trkpt lat="46.65586" lon="5.44513">
        <ele>234.2</ele>
        <time>2022-07-11T13:40:25Z</time>
      </trkpt>
      <trkpt lat="46.65565" lon="5.44497">
        <ele>234</ele>
        <time>2022-07-11T13:40:28Z</time>
      </trkpt>
      <trkpt lat="46.65558" lon="5.44495">
        <ele>234</ele>
        <time>2022-07-11T13:40:29Z</time>
      </trkpt>
      <trkpt lat="46.65527" lon="5.44489">
        <ele>234</ele>
        <time>2022-07-11T13:40:33Z</time>
      </trkpt>
      <trkpt lat="46.65517" lon="5.44485">
        <ele>233.8</ele>
        <time>2022-07-11T13:40:34Z</time>
      </trkpt>
      <trkpt lat="46.6551" lon="5.44481">
        <ele>233.6</ele>
        <time>2022-07-11T13:40:35Z</time>
      </trkpt>
      <trkpt lat="46.65458" lon="5.44446">
        <ele>232.8</ele>
        <time>2022-07-11T13:40:42Z</time>
      </trkpt>
      <trkpt lat="46.65444" lon="5.44429">
        <ele>232.6</ele>
        <time>2022-07-11T13:40:44Z</time>
      </trkpt>
      <trkpt lat="46.65434" lon="5.44412">
        <ele>232.4</ele>
        <time>2022-07-11T13:40:46Z</time>
      </trkpt>
      <trkpt lat="46.65409" lon="5.44372">
        <ele>232.6</ele>
        <time>2022-07-11T13:40:51Z</time>
      </trkpt>
      <trkpt lat="46.65374" lon="5.44331">
        <ele>233.2</ele>
        <time>2022-07-11T13:40:57Z</time>
      </trkpt>
      <trkpt lat="46.6535" lon="5.44306">
        <ele>233.6</ele>
        <time>2022-07-11T13:41:01Z</time>
      </trkpt>
      <trkpt lat="46.65331" lon="5.44289">
        <ele>233.8</ele>
        <time>2022-07-11T13:41:04Z</time>
      </trkpt>
      <trkpt lat="46.65282" lon="5.44255">
        <ele>233.6</ele>
        <time>2022-07-11T13:41:11Z</time>
      </trkpt>
      <trkpt lat="46.65245" lon="5.44224">
        <ele>233.4</ele>
        <time>2022-07-11T13:41:17Z</time>
      </trkpt>
      <trkpt lat="46.6524" lon="5.44216">
        <ele>233.4</ele>
        <time>2022-07-11T13:41:18Z</time>
      </trkpt>
      <trkpt lat="46.65211" lon="5.44171">
        <ele>233.4</ele>
        <time>2022-07-11T13:41:24Z</time>
      </trkpt>
      <trkpt lat="46.65205" lon="5.44164">
        <ele>233.4</ele>
        <time>2022-07-11T13:41:25Z</time>
      </trkpt>
      <trkpt lat="46.65195" lon="5.44148">
        <ele>233.4</ele>
        <time>2022-07-11T13:41:27Z</time>
      </trkpt>
      <trkpt lat="46.65182" lon="5.44123">
        <ele>233.2</ele>
        <time>2022-07-11T13:41:30Z</time>
      </trkpt>
      <trkpt lat="46.6515" lon="5.44074">
        <ele>233</ele>
        <time>2022-07-11T13:41:36Z</time>
      </trkpt>
      <trkpt lat="46.65106" lon="5.44017">
        <ele>233.2</ele>
        <time>2022-07-11T13:41:44Z</time>
      </trkpt>
      <trkpt lat="46.65086" lon="5.44007">
        <ele>233</ele>
        <time>2022-07-11T13:41:47Z</time>
      </trkpt>
      <trkpt lat="46.65079" lon="5.44006">
        <ele>233</ele>
        <time>2022-07-11T13:41:48Z</time>
      </trkpt>
      <trkpt lat="46.65048" lon="5.44005">
        <ele>233</ele>
        <time>2022-07-11T13:41:52Z</time>
      </trkpt>
      <trkpt lat="46.6504" lon="5.44003">
        <ele>233</ele>
        <time>2022-07-11T13:41:53Z</time>
      </trkpt>
      <trkpt lat="46.65033" lon="5.43999">
        <ele>233</ele>
        <time>2022-07-11T13:41:54Z</time>
      </trkpt>
      <trkpt lat="46.65012" lon="5.43981">
        <ele>232.8</ele>
        <time>2022-07-11T13:41:57Z</time>
      </trkpt>
      <trkpt lat="46.64992" lon="5.43961">
        <ele>232.6</ele>
        <time>2022-07-11T13:42:00Z</time>
      </trkpt>
      <trkpt lat="46.64959" lon="5.43927">
        <ele>231.8</ele>
        <time>2022-07-11T13:42:05Z</time>
      </trkpt>
      <trkpt lat="46.64946" lon="5.43914">
        <ele>231.6</ele>
        <time>2022-07-11T13:42:07Z</time>
      </trkpt>
      <trkpt lat="46.64908" lon="5.43879">
        <ele>230.4</ele>
        <time>2022-07-11T13:42:13Z</time>
      </trkpt>
      <trkpt lat="46.64897" lon="5.43872">
        <ele>230.2</ele>
        <time>2022-07-11T13:42:15Z</time>
      </trkpt>
      <trkpt lat="46.64886" lon="5.43859">
        <ele>230</ele>
        <time>2022-07-11T13:42:17Z</time>
      </trkpt>
      <trkpt lat="46.64863" lon="5.43837">
        <ele>229.4</ele>
        <time>2022-07-11T13:42:21Z</time>
      </trkpt>
      <trkpt lat="46.64858" lon="5.43833">
        <ele>229.2</ele>
        <time>2022-07-11T13:42:22Z</time>
      </trkpt>
      <trkpt lat="46.64851" lon="5.43828">
        <ele>229.2</ele>
        <time>2022-07-11T13:42:23Z</time>
      </trkpt>
      <trkpt lat="46.64833" lon="5.43811">
        <ele>229.2</ele>
        <time>2022-07-11T13:42:26Z</time>
      </trkpt>
      <trkpt lat="46.64823" lon="5.43796">
        <ele>229.6</ele>
        <time>2022-07-11T13:42:28Z</time>
      </trkpt>
      <trkpt lat="46.64818" lon="5.43785">
        <ele>229.6</ele>
        <time>2022-07-11T13:42:29Z</time>
      </trkpt>
      <trkpt lat="46.64811" lon="5.43756">
        <ele>230</ele>
        <time>2022-07-11T13:42:32Z</time>
      </trkpt>
      <trkpt lat="46.64809" lon="5.43747">
        <ele>230.2</ele>
        <time>2022-07-11T13:42:33Z</time>
      </trkpt>
      <trkpt lat="46.64805" lon="5.43729">
        <ele>230.6</ele>
        <time>2022-07-11T13:42:35Z</time>
      </trkpt>
      <trkpt lat="46.64803" lon="5.4372">
        <ele>230.8</ele>
        <time>2022-07-11T13:42:36Z</time>
      </trkpt>
      <trkpt lat="46.64795" lon="5.43703">
        <ele>231.2</ele>
        <time>2022-07-11T13:42:38Z</time>
      </trkpt>
      <trkpt lat="46.64786" lon="5.4369">
        <ele>231.4</ele>
        <time>2022-07-11T13:42:40Z</time>
      </trkpt>
      <trkpt lat="46.64775" lon="5.43679">
        <ele>231.8</ele>
        <time>2022-07-11T13:42:42Z</time>
      </trkpt>
      <trkpt lat="46.64755" lon="5.43666">
        <ele>232</ele>
        <time>2022-07-11T13:42:45Z</time>
      </trkpt>
      <trkpt lat="46.64703" lon="5.43638">
        <ele>232.4</ele>
        <time>2022-07-11T13:42:52Z</time>
      </trkpt>
      <trkpt lat="46.64654" lon="5.43603">
        <ele>231</ele>
        <time>2022-07-11T13:42:58Z</time>
      </trkpt>
      <trkpt lat="46.64638" lon="5.43589">
        <ele>230.4</ele>
        <time>2022-07-11T13:43:00Z</time>
      </trkpt>
      <trkpt lat="46.64621" lon="5.43577">
        <ele>229.6</ele>
        <time>2022-07-11T13:43:02Z</time>
      </trkpt>
      <trkpt lat="46.64612" lon="5.43574">
        <ele>229.2</ele>
        <time>2022-07-11T13:43:03Z</time>
      </trkpt>
      <trkpt lat="46.64574" lon="5.4356">
        <ele>228.4</ele>
        <time>2022-07-11T13:43:07Z</time>
      </trkpt>
      <trkpt lat="46.64565" lon="5.43555">
        <ele>228.2</ele>
        <time>2022-07-11T13:43:08Z</time>
      </trkpt>
      <trkpt lat="46.64556" lon="5.43549">
        <ele>228.2</ele>
        <time>2022-07-11T13:43:09Z</time>
      </trkpt>
      <trkpt lat="46.64548" lon="5.43541">
        <ele>227.8</ele>
        <time>2022-07-11T13:43:10Z</time>
      </trkpt>
      <trkpt lat="46.64532" lon="5.43523">
        <ele>227.6</ele>
        <time>2022-07-11T13:43:12Z</time>
      </trkpt>
      <trkpt lat="46.645" lon="5.43491">
        <ele>227</ele>
        <time>2022-07-11T13:43:16Z</time>
      </trkpt>
      <trkpt lat="46.64484" lon="5.43474">
        <ele>226.8</ele>
        <time>2022-07-11T13:43:18Z</time>
      </trkpt>
      <trkpt lat="46.64443" lon="5.43442">
        <ele>226.4</ele>
        <time>2022-07-11T13:43:23Z</time>
      </trkpt>
      <trkpt lat="46.64416" lon="5.43431">
        <ele>226</ele>
        <time>2022-07-11T13:43:26Z</time>
      </trkpt>
      <trkpt lat="46.64397" lon="5.43425">
        <ele>225.8</ele>
        <time>2022-07-11T13:43:28Z</time>
      </trkpt>
      <trkpt lat="46.64342" lon="5.43399">
        <ele>225.4</ele>
        <time>2022-07-11T13:43:34Z</time>
      </trkpt>
      <trkpt lat="46.64312" lon="5.43367">
        <ele>225.2</ele>
        <time>2022-07-11T13:43:38Z</time>
      </trkpt>
      <trkpt lat="46.64283" lon="5.43324">
        <ele>225</ele>
        <time>2022-07-11T13:43:43Z</time>
      </trkpt>
      <trkpt lat="46.64252" lon="5.43274">
        <ele>226</ele>
        <time>2022-07-11T13:43:49Z</time>
      </trkpt>
      <trkpt lat="46.64225" lon="5.43224">
        <ele>227.2</ele>
        <time>2022-07-11T13:43:55Z</time>
      </trkpt>
      <trkpt lat="46.64222" lon="5.43218">
        <ele>227.4</ele>
        <time>2022-07-11T13:43:56Z</time>
      </trkpt>
      <trkpt lat="46.64205" lon="5.4318">
        <ele>228.4</ele>
        <time>2022-07-11T13:44:01Z</time>
      </trkpt>
      <trkpt lat="46.64199" lon="5.43165">
        <ele>228.8</ele>
        <time>2022-07-11T13:44:03Z</time>
      </trkpt>
      <trkpt lat="46.64191" lon="5.43141">
        <ele>229.2</ele>
        <time>2022-07-11T13:44:06Z</time>
      </trkpt>
      <trkpt lat="46.64187" lon="5.43113">
        <ele>229.4</ele>
        <time>2022-07-11T13:44:09Z</time>
      </trkpt>
      <trkpt lat="46.64188" lon="5.43092">
        <ele>229.4</ele>
        <time>2022-07-11T13:44:11Z</time>
      </trkpt>
      <trkpt lat="46.64191" lon="5.43073">
        <ele>229.4</ele>
        <time>2022-07-11T13:44:13Z</time>
      </trkpt>
      <trkpt lat="46.64209" lon="5.43012">
        <ele>229</ele>
        <time>2022-07-11T13:44:19Z</time>
      </trkpt>
      <trkpt lat="46.64211" lon="5.43001">
        <ele>229</ele>
        <time>2022-07-11T13:44:20Z</time>
      </trkpt>
      <trkpt lat="46.64213" lon="5.42978">
        <ele>228.8</ele>
        <time>2022-07-11T13:44:22Z</time>
      </trkpt>
      <trkpt lat="46.64212" lon="5.4297">
        <ele>228.8</ele>
        <time>2022-07-11T13:44:23Z</time>
      </trkpt>
      <trkpt lat="46.64209" lon="5.42959">
        <ele>228.4</ele>
        <time>2022-07-11T13:44:24Z</time>
      </trkpt>
      <trkpt lat="46.64197" lon="5.42928">
        <ele>228</ele>
        <time>2022-07-11T13:44:27Z</time>
      </trkpt>
      <trkpt lat="46.64183" lon="5.42885">
        <ele>227.4</ele>
        <time>2022-07-11T13:44:31Z</time>
      </trkpt>
      <trkpt lat="46.64171" lon="5.42854">
        <ele>227.2</ele>
        <time>2022-07-11T13:44:34Z</time>
      </trkpt>
      <trkpt lat="46.64146" lon="5.42807">
        <ele>226.8</ele>
        <time>2022-07-11T13:44:39Z</time>
      </trkpt>
      <trkpt lat="46.6414" lon="5.428">
        <ele>226.8</ele>
        <time>2022-07-11T13:44:40Z</time>
      </trkpt>
      <trkpt lat="46.64133" lon="5.42795">
        <ele>226.8</ele>
        <time>2022-07-11T13:44:41Z</time>
      </trkpt>
      <trkpt lat="46.64111" lon="5.42782">
        <ele>227</ele>
        <time>2022-07-11T13:44:44Z</time>
      </trkpt>
      <trkpt lat="46.64076" lon="5.42754">
        <ele>227</ele>
        <time>2022-07-11T13:44:49Z</time>
      </trkpt>
      <trkpt lat="46.64047" lon="5.42717">
        <ele>227</ele>
        <time>2022-07-11T13:44:54Z</time>
      </trkpt>
      <trkpt lat="46.64042" lon="5.42709">
        <ele>227.2</ele>
        <time>2022-07-11T13:44:55Z</time>
      </trkpt>
      <trkpt lat="46.64016" lon="5.42659">
        <ele>227.2</ele>
        <time>2022-07-11T13:45:01Z</time>
      </trkpt>
      <trkpt lat="46.64012" lon="5.4265">
        <ele>227.4</ele>
        <time>2022-07-11T13:45:02Z</time>
      </trkpt>
      <trkpt lat="46.64002" lon="5.42634">
        <ele>227.4</ele>
        <time>2022-07-11T13:45:04Z</time>
      </trkpt>
      <trkpt lat="46.63997" lon="5.42627">
        <ele>227.4</ele>
        <time>2022-07-11T13:45:05Z</time>
      </trkpt>
      <trkpt lat="46.63963" lon="5.42592">
        <ele>228.2</ele>
        <time>2022-07-11T13:45:11Z</time>
      </trkpt>
      <trkpt lat="46.63941" lon="5.42569">
        <ele>228.6</ele>
        <time>2022-07-11T13:45:15Z</time>
      </trkpt>
      <trkpt lat="46.6393" lon="5.42557">
        <ele>228.8</ele>
        <time>2022-07-11T13:45:17Z</time>
      </trkpt>
      <trkpt lat="46.63901" lon="5.42518">
        <ele>229.4</ele>
        <time>2022-07-11T13:45:23Z</time>
      </trkpt>
      <trkpt lat="46.63898" lon="5.4251">
        <ele>229.6</ele>
        <time>2022-07-11T13:45:24Z</time>
      </trkpt>
      <trkpt lat="46.63895" lon="5.42502">
        <ele>229.8</ele>
        <time>2022-07-11T13:45:25Z</time>
      </trkpt>
      <trkpt lat="46.63888" lon="5.42475">
        <ele>230</ele>
        <time>2022-07-11T13:45:28Z</time>
      </trkpt>
      <trkpt lat="46.63871" lon="5.42437">
        <ele>230.4</ele>
        <time>2022-07-11T13:45:33Z</time>
      </trkpt>
      <trkpt lat="46.63867" lon="5.42429">
        <ele>230.8</ele>
        <time>2022-07-11T13:45:34Z</time>
      </trkpt>
      <trkpt lat="46.63832" lon="5.42367">
        <ele>231.8</ele>
        <time>2022-07-11T13:45:42Z</time>
      </trkpt>
      <trkpt lat="46.63805" lon="5.42329">
        <ele>232.2</ele>
        <time>2022-07-11T13:45:47Z</time>
      </trkpt>
      <trkpt lat="46.63799" lon="5.42322">
        <ele>232.2</ele>
        <time>2022-07-11T13:45:48Z</time>
      </trkpt>
      <trkpt lat="46.63766" lon="5.4229">
        <ele>232</ele>
        <time>2022-07-11T13:45:53Z</time>
      </trkpt>
      <trkpt lat="46.63756" lon="5.42273">
        <ele>232</ele>
        <time>2022-07-11T13:45:55Z</time>
      </trkpt>
      <trkpt lat="46.63751" lon="5.42253">
        <ele>232</ele>
        <time>2022-07-11T13:45:57Z</time>
      </trkpt>
      <trkpt lat="46.63751" lon="5.42242">
        <ele>232</ele>
        <time>2022-07-11T13:45:58Z</time>
      </trkpt>
      <trkpt lat="46.6375" lon="5.42233">
        <ele>232</ele>
        <time>2022-07-11T13:45:59Z</time>
      </trkpt>
      <trkpt lat="46.63743" lon="5.42216">
        <ele>232</ele>
        <time>2022-07-11T13:46:01Z</time>
      </trkpt>
      <trkpt lat="46.63717" lon="5.42192">
        <ele>232</ele>
        <time>2022-07-11T13:46:05Z</time>
      </trkpt>
      <trkpt lat="46.63675" lon="5.4216">
        <ele>231.4</ele>
        <time>2022-07-11T13:46:11Z</time>
      </trkpt>
      <trkpt lat="46.63647" lon="5.42143">
        <ele>231.2</ele>
        <time>2022-07-11T13:46:15Z</time>
      </trkpt>
      <trkpt lat="46.63639" lon="5.42141">
        <ele>231.2</ele>
        <time>2022-07-11T13:46:16Z</time>
      </trkpt>
      <trkpt lat="46.63616" lon="5.42132">
        <ele>230.6</ele>
        <time>2022-07-11T13:46:19Z</time>
      </trkpt>
      <trkpt lat="46.63601" lon="5.42119">
        <ele>230.4</ele>
        <time>2022-07-11T13:46:21Z</time>
      </trkpt>
      <trkpt lat="46.63591" lon="5.42098">
        <ele>230.2</ele>
        <time>2022-07-11T13:46:23Z</time>
      </trkpt>
      <trkpt lat="46.63588" lon="5.42087">
        <ele>230</ele>
        <time>2022-07-11T13:46:24Z</time>
      </trkpt>
      <trkpt lat="46.63583" lon="5.42076">
        <ele>229.8</ele>
        <time>2022-07-11T13:46:25Z</time>
      </trkpt>
      <trkpt lat="46.63579" lon="5.42066">
        <ele>229.6</ele>
        <time>2022-07-11T13:46:26Z</time>
      </trkpt>
      <trkpt lat="46.63573" lon="5.42057">
        <ele>229.6</ele>
        <time>2022-07-11T13:46:27Z</time>
      </trkpt>
      <trkpt lat="46.63567" lon="5.42049">
        <ele>229.4</ele>
        <time>2022-07-11T13:46:28Z</time>
      </trkpt>
      <trkpt lat="46.6354" lon="5.42026">
        <ele>229</ele>
        <time>2022-07-11T13:46:32Z</time>
      </trkpt>
      <trkpt lat="46.63533" lon="5.42022">
        <ele>229.2</ele>
        <time>2022-07-11T13:46:33Z</time>
      </trkpt>
      <trkpt lat="46.63503" lon="5.42005">
        <ele>229.2</ele>
        <time>2022-07-11T13:46:37Z</time>
      </trkpt>
      <trkpt lat="46.63489" lon="5.41993">
        <ele>229.4</ele>
        <time>2022-07-11T13:46:39Z</time>
      </trkpt>
      <trkpt lat="46.63439" lon="5.41955">
        <ele>228.6</ele>
        <time>2022-07-11T13:46:46Z</time>
      </trkpt>
      <trkpt lat="46.634" lon="5.41933">
        <ele>228</ele>
        <time>2022-07-11T13:46:51Z</time>
      </trkpt>
      <trkpt lat="46.63369" lon="5.41907">
        <ele>227.6</ele>
        <time>2022-07-11T13:46:55Z</time>
      </trkpt>
      <trkpt lat="46.63355" lon="5.41891">
        <ele>227.2</ele>
        <time>2022-07-11T13:46:57Z</time>
      </trkpt>
      <trkpt lat="46.63312" lon="5.41829">
        <ele>226.8</ele>
        <time>2022-07-11T13:47:04Z</time>
      </trkpt>
      <trkpt lat="46.63306" lon="5.41821">
        <ele>226.8</ele>
        <time>2022-07-11T13:47:05Z</time>
      </trkpt>
      <trkpt lat="46.6328" lon="5.41781">
        <ele>227.2</ele>
        <time>2022-07-11T13:47:10Z</time>
      </trkpt>
      <trkpt lat="46.63242" lon="5.41733">
        <ele>228.4</ele>
        <time>2022-07-11T13:47:17Z</time>
      </trkpt>
      <trkpt lat="46.63226" lon="5.4171">
        <ele>228.4</ele>
        <time>2022-07-11T13:47:20Z</time>
      </trkpt>
      <trkpt lat="46.63211" lon="5.41682">
        <ele>228.4</ele>
        <time>2022-07-11T13:47:23Z</time>
      </trkpt>
      <trkpt lat="46.63181" lon="5.41613">
        <ele>228</ele>
        <time>2022-07-11T13:47:30Z</time>
      </trkpt>
      <trkpt lat="46.63149" lon="5.41547">
        <ele>228</ele>
        <time>2022-07-11T13:47:37Z</time>
      </trkpt>
      <trkpt lat="46.63145" lon="5.41538">
        <ele>228</ele>
        <time>2022-07-11T13:47:38Z</time>
      </trkpt>
      <trkpt lat="46.63116" lon="5.41474">
        <ele>228.4</ele>
        <time>2022-07-11T13:47:45Z</time>
      </trkpt>
      <trkpt lat="46.63085" lon="5.4143">
        <ele>228.4</ele>
        <time>2022-07-11T13:47:51Z</time>
      </trkpt>
      <trkpt lat="46.6304" lon="5.41376">
        <ele>228.4</ele>
        <time>2022-07-11T13:47:59Z</time>
      </trkpt>
      <trkpt lat="46.63034" lon="5.4137">
        <ele>228.4</ele>
        <time>2022-07-11T13:48:00Z</time>
      </trkpt>
      <trkpt lat="46.62996" lon="5.41348">
        <ele>228.2</ele>
        <time>2022-07-11T13:48:05Z</time>
      </trkpt>
      <trkpt lat="46.62942" lon="5.41325">
        <ele>226.2</ele>
        <time>2022-07-11T13:48:11Z</time>
      </trkpt>
      <trkpt lat="46.62912" lon="5.41311">
        <ele>224.8</ele>
        <time>2022-07-11T13:48:14Z</time>
      </trkpt>
      <trkpt lat="46.62882" lon="5.41299">
        <ele>223.6</ele>
        <time>2022-07-11T13:48:17Z</time>
      </trkpt>
      <trkpt lat="46.62851" lon="5.41286">
        <ele>222.4</ele>
        <time>2022-07-11T13:48:20Z</time>
      </trkpt>
      <trkpt lat="46.62819" lon="5.41272">
        <ele>221</ele>
        <time>2022-07-11T13:48:23Z</time>
      </trkpt>
      <trkpt lat="46.62798" lon="5.41263">
        <ele>219.6</ele>
        <time>2022-07-11T13:48:25Z</time>
      </trkpt>
      <trkpt lat="46.62787" lon="5.41258">
        <ele>219.2</ele>
        <time>2022-07-11T13:48:26Z</time>
      </trkpt>
      <trkpt lat="46.62776" lon="5.41254">
        <ele>218.4</ele>
        <time>2022-07-11T13:48:27Z</time>
      </trkpt>
      <trkpt lat="46.62744" lon="5.41239">
        <ele>217</ele>
        <time>2022-07-11T13:48:30Z</time>
      </trkpt>
      <trkpt lat="46.62701" lon="5.41221">
        <ele>216</ele>
        <time>2022-07-11T13:48:34Z</time>
      </trkpt>
      <trkpt lat="46.62648" lon="5.41198">
        <ele>215</ele>
        <time>2022-07-11T13:48:39Z</time>
      </trkpt>
      <trkpt lat="46.62638" lon="5.41194">
        <ele>215</ele>
        <time>2022-07-11T13:48:40Z</time>
      </trkpt>
      <trkpt lat="46.62628" lon="5.41189">
        <ele>214.6</ele>
        <time>2022-07-11T13:48:41Z</time>
      </trkpt>
      <trkpt lat="46.62597" lon="5.41176">
        <ele>213.6</ele>
        <time>2022-07-11T13:48:44Z</time>
      </trkpt>
      <trkpt lat="46.62557" lon="5.41159">
        <ele>212.6</ele>
        <time>2022-07-11T13:48:48Z</time>
      </trkpt>
      <trkpt lat="46.62547" lon="5.41154">
        <ele>212.4</ele>
        <time>2022-07-11T13:48:49Z</time>
      </trkpt>
      <trkpt lat="46.62516" lon="5.41141">
        <ele>211.6</ele>
        <time>2022-07-11T13:48:52Z</time>
      </trkpt>
      <trkpt lat="46.62488" lon="5.41123">
        <ele>210.8</ele>
        <time>2022-07-11T13:48:55Z</time>
      </trkpt>
      <trkpt lat="46.6248" lon="5.41114">
        <ele>210.6</ele>
        <time>2022-07-11T13:48:56Z</time>
      </trkpt>
      <trkpt lat="46.62465" lon="5.41094">
        <ele>210.4</ele>
        <time>2022-07-11T13:48:58Z</time>
      </trkpt>
      <trkpt lat="46.62442" lon="5.41046">
        <ele>209.8</ele>
        <time>2022-07-11T13:49:02Z</time>
      </trkpt>
      <trkpt lat="46.62428" lon="5.4101">
        <ele>209.6</ele>
        <time>2022-07-11T13:49:05Z</time>
      </trkpt>
      <trkpt lat="46.62405" lon="5.40951">
        <ele>209</ele>
        <time>2022-07-11T13:49:10Z</time>
      </trkpt>
      <trkpt lat="46.62395" lon="5.40931">
        <ele>208.8</ele>
        <time>2022-07-11T13:49:12Z</time>
      </trkpt>
      <trkpt lat="46.62382" lon="5.40914">
        <ele>208.6</ele>
        <time>2022-07-11T13:49:14Z</time>
      </trkpt>
      <trkpt lat="46.62361" lon="5.40894">
        <ele>208.4</ele>
        <time>2022-07-11T13:49:17Z</time>
      </trkpt>
      <trkpt lat="46.6234" lon="5.40875">
        <ele>208.4</ele>
        <time>2022-07-11T13:49:20Z</time>
      </trkpt>
      <trkpt lat="46.62327" lon="5.4086">
        <ele>208.4</ele>
        <time>2022-07-11T13:49:22Z</time>
      </trkpt>
      <trkpt lat="46.62317" lon="5.40842">
        <ele>208.2</ele>
        <time>2022-07-11T13:49:24Z</time>
      </trkpt>
      <trkpt lat="46.62285" lon="5.40794">
        <ele>208.2</ele>
        <time>2022-07-11T13:49:30Z</time>
      </trkpt>
      <trkpt lat="46.62236" lon="5.40745">
        <ele>207.8</ele>
        <time>2022-07-11T13:49:38Z</time>
      </trkpt>
      <trkpt lat="46.62193" lon="5.40704">
        <ele>207.4</ele>
        <time>2022-07-11T13:49:45Z</time>
      </trkpt>
      <trkpt lat="46.62165" lon="5.40667">
        <ele>207.2</ele>
        <time>2022-07-11T13:49:50Z</time>
      </trkpt>
      <trkpt lat="46.62152" lon="5.40627">
        <ele>207.2</ele>
        <time>2022-07-11T13:49:54Z</time>
      </trkpt>
      <trkpt lat="46.62139" lon="5.40576">
        <ele>206.8</ele>
        <time>2022-07-11T13:49:59Z</time>
      </trkpt>
      <trkpt lat="46.62116" lon="5.4052">
        <ele>206.6</ele>
        <time>2022-07-11T13:50:05Z</time>
      </trkpt>
      <trkpt lat="46.62097" lon="5.40483">
        <ele>206.4</ele>
        <time>2022-07-11T13:50:09Z</time>
      </trkpt>
      <trkpt lat="46.62083" lon="5.40455">
        <ele>206.4</ele>
        <time>2022-07-11T13:50:12Z</time>
      </trkpt>
      <trkpt lat="46.62063" lon="5.40405">
        <ele>206.2</ele>
        <time>2022-07-11T13:50:17Z</time>
      </trkpt>
      <trkpt lat="46.62045" lon="5.40331">
        <ele>206.6</ele>
        <time>2022-07-11T13:50:24Z</time>
      </trkpt>
      <trkpt lat="46.62041" lon="5.40321">
        <ele>206.4</ele>
        <time>2022-07-11T13:50:25Z</time>
      </trkpt>
      <trkpt lat="46.62031" lon="5.4029">
        <ele>206.2</ele>
        <time>2022-07-11T13:50:28Z</time>
      </trkpt>
      <trkpt lat="46.62023" lon="5.4027">
        <ele>206.2</ele>
        <time>2022-07-11T13:50:30Z</time>
      </trkpt>
      <trkpt lat="46.61995" lon="5.40214">
        <ele>206.2</ele>
        <time>2022-07-11T13:50:36Z</time>
      </trkpt>
      <trkpt lat="46.61961" lon="5.4015">
        <ele>205.8</ele>
        <time>2022-07-11T13:50:43Z</time>
      </trkpt>
      <trkpt lat="46.61946" lon="5.40123">
        <ele>206.2</ele>
        <time>2022-07-11T13:50:46Z</time>
      </trkpt>
      <trkpt lat="46.61913" lon="5.4006">
        <ele>206.8</ele>
        <time>2022-07-11T13:50:53Z</time>
      </trkpt>
      <trkpt lat="46.61899" lon="5.40033">
        <ele>206.6</ele>
        <time>2022-07-11T13:50:56Z</time>
      </trkpt>
      <trkpt lat="46.6187" lon="5.39968">
        <ele>206.4</ele>
        <time>2022-07-11T13:51:03Z</time>
      </trkpt>
      <trkpt lat="46.61851" lon="5.39917">
        <ele>206.2</ele>
        <time>2022-07-11T13:51:08Z</time>
      </trkpt>
      <trkpt lat="46.61826" lon="5.39846">
        <ele>206</ele>
        <time>2022-07-11T13:51:15Z</time>
      </trkpt>
      <trkpt lat="46.61808" lon="5.39796">
        <ele>205.8</ele>
        <time>2022-07-11T13:51:20Z</time>
      </trkpt>
      <trkpt lat="46.61783" lon="5.39717">
        <ele>205.4</ele>
        <time>2022-07-11T13:51:28Z</time>
      </trkpt>
      <trkpt lat="46.6178" lon="5.39706">
        <ele>205.4</ele>
        <time>2022-07-11T13:51:29Z</time>
      </trkpt>
      <trkpt lat="46.61767" lon="5.39631">
        <ele>205</ele>
        <time>2022-07-11T13:51:36Z</time>
      </trkpt>
      <trkpt lat="46.61757" lon="5.39547">
        <ele>205</ele>
        <time>2022-07-11T13:51:44Z</time>
      </trkpt>
      <trkpt lat="46.61756" lon="5.39537">
        <ele>205</ele>
        <time>2022-07-11T13:51:45Z</time>
      </trkpt>
      <trkpt lat="46.61749" lon="5.39519">
        <ele>205.2</ele>
        <time>2022-07-11T13:51:47Z</time>
      </trkpt>
      <trkpt lat="46.61744" lon="5.39512">
        <ele>205.2</ele>
        <time>2022-07-11T13:51:48Z</time>
      </trkpt>
      <trkpt lat="46.61738" lon="5.39507">
        <ele>205.2</ele>
        <time>2022-07-11T13:51:49Z</time>
      </trkpt>
      <trkpt lat="46.6172" lon="5.39491">
        <ele>205.8</ele>
        <time>2022-07-11T13:51:52Z</time>
      </trkpt>
      <trkpt lat="46.61714" lon="5.39484">
        <ele>206</ele>
        <time>2022-07-11T13:51:53Z</time>
      </trkpt>
      <trkpt lat="46.61704" lon="5.39469">
        <ele>206.4</ele>
        <time>2022-07-11T13:51:55Z</time>
      </trkpt>
      <trkpt lat="46.61695" lon="5.39453">
        <ele>206.8</ele>
        <time>2022-07-11T13:51:57Z</time>
      </trkpt>
      <trkpt lat="46.61662" lon="5.394">
        <ele>206.8</ele>
        <time>2022-07-11T13:52:03Z</time>
      </trkpt>
      <trkpt lat="46.61628" lon="5.39346">
        <ele>206.4</ele>
        <time>2022-07-11T13:52:09Z</time>
      </trkpt>
      <trkpt lat="46.61602" lon="5.39288">
        <ele>206</ele>
        <time>2022-07-11T13:52:15Z</time>
      </trkpt>
      <trkpt lat="46.6157" lon="5.39212">
        <ele>205.6</ele>
        <time>2022-07-11T13:52:23Z</time>
      </trkpt>
      <trkpt lat="46.61555" lon="5.39159">
        <ele>205.6</ele>
        <time>2022-07-11T13:52:28Z</time>
      </trkpt>
      <trkpt lat="46.61551" lon="5.39136">
        <ele>205.6</ele>
        <time>2022-07-11T13:52:30Z</time>
      </trkpt>
      <trkpt lat="46.61551" lon="5.39113">
        <ele>205.4</ele>
        <time>2022-07-11T13:52:32Z</time>
      </trkpt>
      <trkpt lat="46.61552" lon="5.39101">
        <ele>205.4</ele>
        <time>2022-07-11T13:52:33Z</time>
      </trkpt>
      <trkpt lat="46.61557" lon="5.39079">
        <ele>205.4</ele>
        <time>2022-07-11T13:52:35Z</time>
      </trkpt>
      <trkpt lat="46.61559" lon="5.39068">
        <ele>205.4</ele>
        <time>2022-07-11T13:52:36Z</time>
      </trkpt>
      <trkpt lat="46.61563" lon="5.39057">
        <ele>205.4</ele>
        <time>2022-07-11T13:52:37Z</time>
      </trkpt>
      <trkpt lat="46.61576" lon="5.39028">
        <ele>205</ele>
        <time>2022-07-11T13:52:40Z</time>
      </trkpt>
      <trkpt lat="46.6161" lon="5.38966">
        <ele>205.4</ele>
        <time>2022-07-11T13:52:47Z</time>
      </trkpt>
      <trkpt lat="46.61643" lon="5.38918">
        <ele>205.6</ele>
        <time>2022-07-11T13:52:53Z</time>
      </trkpt>
      <trkpt lat="46.61683" lon="5.38863">
        <ele>206.4</ele>
        <time>2022-07-11T13:53:00Z</time>
      </trkpt>
      <trkpt lat="46.61688" lon="5.38855">
        <ele>206.6</ele>
        <time>2022-07-11T13:53:01Z</time>
      </trkpt>
      <trkpt lat="46.61721" lon="5.38808">
        <ele>206.6</ele>
        <time>2022-07-11T13:53:07Z</time>
      </trkpt>
      <trkpt lat="46.61747" lon="5.38768">
        <ele>206.4</ele>
        <time>2022-07-11T13:53:12Z</time>
      </trkpt>
      <trkpt lat="46.61768" lon="5.38723">
        <ele>206.4</ele>
        <time>2022-07-11T13:53:17Z</time>
      </trkpt>
      <trkpt lat="46.61782" lon="5.387">
        <ele>206.6</ele>
        <time>2022-07-11T13:53:20Z</time>
      </trkpt>
      <trkpt lat="46.61785" lon="5.3869">
        <ele>206.8</ele>
        <time>2022-07-11T13:53:21Z</time>
      </trkpt>
      <trkpt lat="46.61786" lon="5.38681">
        <ele>206.8</ele>
        <time>2022-07-11T13:53:22Z</time>
      </trkpt>
      <trkpt lat="46.61783" lon="5.38671">
        <ele>206.8</ele>
        <time>2022-07-11T13:53:23Z</time>
      </trkpt>
      <trkpt lat="46.61779" lon="5.38662">
        <ele>206.8</ele>
        <time>2022-07-11T13:53:24Z</time>
      </trkpt>
      <trkpt lat="46.61768" lon="5.38645">
        <ele>206.8</ele>
        <time>2022-07-11T13:53:26Z</time>
      </trkpt>
      <trkpt lat="46.61763" lon="5.38635">
        <ele>206.8</ele>
        <time>2022-07-11T13:53:27Z</time>
      </trkpt>
      <trkpt lat="46.61757" lon="5.38614">
        <ele>206.6</ele>
        <time>2022-07-11T13:53:29Z</time>
      </trkpt>
      <trkpt lat="46.61752" lon="5.3856">
        <ele>206.4</ele>
        <time>2022-07-11T13:53:34Z</time>
      </trkpt>
      <trkpt lat="46.61752" lon="5.38549">
        <ele>206.4</ele>
        <time>2022-07-11T13:53:35Z</time>
      </trkpt>
      <trkpt lat="46.61762" lon="5.38497">
        <ele>206.2</ele>
        <time>2022-07-11T13:53:40Z</time>
      </trkpt>
      <trkpt lat="46.61776" lon="5.38416">
        <ele>206</ele>
        <time>2022-07-11T13:53:48Z</time>
      </trkpt>
      <trkpt lat="46.61781" lon="5.38377">
        <ele>206</ele>
        <time>2022-07-11T13:53:52Z</time>
      </trkpt>
      <trkpt lat="46.61789" lon="5.38361">
        <ele>206</ele>
        <time>2022-07-11T13:53:54Z</time>
      </trkpt>
      <trkpt lat="46.6181" lon="5.38339">
        <ele>206</ele>
        <time>2022-07-11T13:53:58Z</time>
      </trkpt>
      <trkpt lat="46.61821" lon="5.38327">
        <ele>206</ele>
        <time>2022-07-11T13:54:00Z</time>
      </trkpt>
      <trkpt lat="46.6183" lon="5.38312">
        <ele>206</ele>
        <time>2022-07-11T13:54:02Z</time>
      </trkpt>
      <trkpt lat="46.61859" lon="5.38261">
        <ele>206.6</ele>
        <time>2022-07-11T13:54:09Z</time>
      </trkpt>
      <trkpt lat="46.61864" lon="5.38256">
        <ele>206.6</ele>
        <time>2022-07-11T13:54:10Z</time>
      </trkpt>
      <trkpt lat="46.61869" lon="5.38251">
        <ele>206.6</ele>
        <time>2022-07-11T13:54:11Z</time>
      </trkpt>
      <trkpt lat="46.61882" lon="5.38248">
        <ele>206.8</ele>
        <time>2022-07-11T13:54:13Z</time>
      </trkpt>
      <trkpt lat="46.61895" lon="5.38252">
        <ele>206.8</ele>
        <time>2022-07-11T13:54:15Z</time>
      </trkpt>
      <trkpt lat="46.61907" lon="5.38261">
        <ele>206.6</ele>
        <time>2022-07-11T13:54:17Z</time>
      </trkpt>
      <trkpt lat="46.61939" lon="5.38292">
        <ele>206.8</ele>
        <time>2022-07-11T13:54:23Z</time>
      </trkpt>
      <trkpt lat="46.61951" lon="5.38296">
        <ele>207.2</ele>
        <time>2022-07-11T13:54:25Z</time>
      </trkpt>
      <trkpt lat="46.61957" lon="5.38296">
        <ele>207.4</ele>
        <time>2022-07-11T13:54:26Z</time>
      </trkpt>
      <trkpt lat="46.61963" lon="5.38292">
        <ele>207.4</ele>
        <time>2022-07-11T13:54:27Z</time>
      </trkpt>
      <trkpt lat="46.61967" lon="5.38286">
        <ele>207.6</ele>
        <time>2022-07-11T13:54:28Z</time>
      </trkpt>
      <trkpt lat="46.6197" lon="5.38279">
        <ele>207.6</ele>
        <time>2022-07-11T13:54:29Z</time>
      </trkpt>
      <trkpt lat="46.61974" lon="5.38262">
        <ele>207.8</ele>
        <time>2022-07-11T13:54:31Z</time>
      </trkpt>
      <trkpt lat="46.61988" lon="5.38181">
        <ele>208.6</ele>
        <time>2022-07-11T13:54:40Z</time>
      </trkpt>
      <trkpt lat="46.6199" lon="5.38172">
        <ele>208.8</ele>
        <time>2022-07-11T13:54:41Z</time>
      </trkpt>
      <trkpt lat="46.62002" lon="5.38124">
        <ele>209</ele>
        <time>2022-07-11T13:54:46Z</time>
      </trkpt>
      <trkpt lat="46.62024" lon="5.38047">
        <ele>208.6</ele>
        <time>2022-07-11T13:54:54Z</time>
      </trkpt>
      <trkpt lat="46.62029" lon="5.38028">
        <ele>208.6</ele>
        <time>2022-07-11T13:54:56Z</time>
      </trkpt>
      <trkpt lat="46.62038" lon="5.37982">
        <ele>208.6</ele>
        <time>2022-07-11T13:55:01Z</time>
      </trkpt>
      <trkpt lat="46.62054" lon="5.37905">
        <ele>208.8</ele>
        <time>2022-07-11T13:55:09Z</time>
      </trkpt>
      <trkpt lat="46.62056" lon="5.37896">
        <ele>208.8</ele>
        <time>2022-07-11T13:55:10Z</time>
      </trkpt>
      <trkpt lat="46.62075" lon="5.37824">
        <ele>208.6</ele>
        <time>2022-07-11T13:55:18Z</time>
      </trkpt>
      <trkpt lat="46.62088" lon="5.37794">
        <ele>208.6</ele>
        <time>2022-07-11T13:55:22Z</time>
      </trkpt>
      <trkpt lat="46.62113" lon="5.37761">
        <ele>209</ele>
        <time>2022-07-11T13:55:28Z</time>
      </trkpt>
      <trkpt lat="46.62134" lon="5.37735">
        <ele>210</ele>
        <time>2022-07-11T13:55:33Z</time>
      </trkpt>
      <trkpt lat="46.62155" lon="5.37707">
        <ele>210.8</ele>
        <time>2022-07-11T13:55:38Z</time>
      </trkpt>
      <trkpt lat="46.6216" lon="5.37701">
        <ele>211.2</ele>
        <time>2022-07-11T13:55:39Z</time>
      </trkpt>
      <trkpt lat="46.62194" lon="5.3765">
        <ele>212</ele>
        <time>2022-07-11T13:55:47Z</time>
      </trkpt>
      <trkpt lat="46.62204" lon="5.37627">
        <ele>212.2</ele>
        <time>2022-07-11T13:55:50Z</time>
      </trkpt>
      <trkpt lat="46.62206" lon="5.37619">
        <ele>212.2</ele>
        <time>2022-07-11T13:55:51Z</time>
      </trkpt>
      <trkpt lat="46.62208" lon="5.3761">
        <ele>212.2</ele>
        <time>2022-07-11T13:55:52Z</time>
      </trkpt>
      <trkpt lat="46.62211" lon="5.3758">
        <ele>212.4</ele>
        <time>2022-07-11T13:55:55Z</time>
      </trkpt>
      <trkpt lat="46.6221" lon="5.37562">
        <ele>212.4</ele>
        <time>2022-07-11T13:55:57Z</time>
      </trkpt>
      <trkpt lat="46.622" lon="5.37512">
        <ele>213</ele>
        <time>2022-07-11T13:56:02Z</time>
      </trkpt>
      <trkpt lat="46.62179" lon="5.37472">
        <ele>212.8</ele>
        <time>2022-07-11T13:56:07Z</time>
      </trkpt>
      <trkpt lat="46.62139" lon="5.37423">
        <ele>211.4</ele>
        <time>2022-07-11T13:56:14Z</time>
      </trkpt>
      <trkpt lat="46.62127" lon="5.3741">
        <ele>211.2</ele>
        <time>2022-07-11T13:56:16Z</time>
      </trkpt>
      <trkpt lat="46.62095" lon="5.37374">
        <ele>211.2</ele>
        <time>2022-07-11T13:56:21Z</time>
      </trkpt>
      <trkpt lat="46.62046" lon="5.37318">
        <ele>210.6</ele>
        <time>2022-07-11T13:56:28Z</time>
      </trkpt>
      <trkpt lat="46.62039" lon="5.37309">
        <ele>210.2</ele>
        <time>2022-07-11T13:56:29Z</time>
      </trkpt>
      <trkpt lat="46.62017" lon="5.37283">
        <ele>209.2</ele>
        <time>2022-07-11T13:56:32Z</time>
      </trkpt>
      <trkpt lat="46.61996" lon="5.37254">
        <ele>208.4</ele>
        <time>2022-07-11T13:56:35Z</time>
      </trkpt>
      <trkpt lat="46.6198" lon="5.37219">
        <ele>208.2</ele>
        <time>2022-07-11T13:56:38Z</time>
      </trkpt>
      <trkpt lat="46.61975" lon="5.37206">
        <ele>207.8</ele>
        <time>2022-07-11T13:56:39Z</time>
      </trkpt>
      <trkpt lat="46.61959" lon="5.37153">
        <ele>206.6</ele>
        <time>2022-07-11T13:56:43Z</time>
      </trkpt>
      <trkpt lat="46.61937" lon="5.37089">
        <ele>206.4</ele>
        <time>2022-07-11T13:56:48Z</time>
      </trkpt>
      <trkpt lat="46.6191" lon="5.37017">
        <ele>205.4</ele>
        <time>2022-07-11T13:56:54Z</time>
      </trkpt>
      <trkpt lat="46.619" lon="5.36981">
        <ele>204.8</ele>
        <time>2022-07-11T13:56:57Z</time>
      </trkpt>
      <trkpt lat="46.61897" lon="5.36969">
        <ele>204.6</ele>
        <time>2022-07-11T13:56:58Z</time>
      </trkpt>
      <trkpt lat="46.61893" lon="5.36932">
        <ele>204.4</ele>
        <time>2022-07-11T13:57:01Z</time>
      </trkpt>
      <trkpt lat="46.61895" lon="5.3687">
        <ele>204.2</ele>
        <time>2022-07-11T13:57:06Z</time>
      </trkpt>
      <trkpt lat="46.61907" lon="5.36814">
        <ele>204.6</ele>
        <time>2022-07-11T13:57:11Z</time>
      </trkpt>
      <trkpt lat="46.61926" lon="5.36745">
        <ele>205.2</ele>
        <time>2022-07-11T13:57:18Z</time>
      </trkpt>
      <trkpt lat="46.61944" lon="5.3669">
        <ele>205.6</ele>
        <time>2022-07-11T13:57:24Z</time>
      </trkpt>
      <trkpt lat="46.61946" lon="5.36682">
        <ele>205.8</ele>
        <time>2022-07-11T13:57:25Z</time>
      </trkpt>
      <trkpt lat="46.61958" lon="5.36633">
        <ele>206.2</ele>
        <time>2022-07-11T13:57:31Z</time>
      </trkpt>
      <trkpt lat="46.61959" lon="5.36626">
        <ele>206.4</ele>
        <time>2022-07-11T13:57:32Z</time>
      </trkpt>
      <trkpt lat="46.61959" lon="5.36613">
        <ele>206.6</ele>
        <time>2022-07-11T13:57:34Z</time>
      </trkpt>
      <trkpt lat="46.61957" lon="5.36606">
        <ele>206.8</ele>
        <time>2022-07-11T13:57:35Z</time>
      </trkpt>
      <trkpt lat="46.61955" lon="5.366">
        <ele>207</ele>
        <time>2022-07-11T13:57:36Z</time>
      </trkpt>
      <trkpt lat="46.6195" lon="5.36589">
        <ele>207.6</ele>
        <time>2022-07-11T13:57:38Z</time>
      </trkpt>
      <trkpt lat="46.61946" lon="5.36584">
        <ele>208.2</ele>
        <time>2022-07-11T13:57:39Z</time>
      </trkpt>
      <trkpt lat="46.61943" lon="5.36579">
        <ele>208.4</ele>
        <time>2022-07-11T13:57:40Z</time>
      </trkpt>
      <trkpt lat="46.6193" lon="5.36565">
        <ele>209.2</ele>
        <time>2022-07-11T13:57:43Z</time>
      </trkpt>
      <trkpt lat="46.61914" lon="5.36548">
        <ele>210.2</ele>
        <time>2022-07-11T13:57:47Z</time>
      </trkpt>
      <trkpt lat="46.6191" lon="5.36544">
        <ele>210.6</ele>
        <time>2022-07-11T13:57:48Z</time>
      </trkpt>
      <trkpt lat="46.61887" lon="5.36524">
        <ele>211.8</ele>
        <time>2022-07-11T13:57:53Z</time>
      </trkpt>
      <trkpt lat="46.61873" lon="5.36513">
        <ele>212.6</ele>
        <time>2022-07-11T13:57:56Z</time>
      </trkpt>
      <trkpt lat="46.61847" lon="5.36493">
        <ele>213</ele>
        <time>2022-07-11T13:58:01Z</time>
      </trkpt>
      <trkpt lat="46.61831" lon="5.36482">
        <ele>213</ele>
        <time>2022-07-11T13:58:04Z</time>
      </trkpt>
      <trkpt lat="46.61779" lon="5.3644">
        <ele>213.8</ele>
        <time>2022-07-11T13:58:14Z</time>
      </trkpt>
      <trkpt lat="46.61765" lon="5.36421">
        <ele>214</ele>
        <time>2022-07-11T13:58:17Z</time>
      </trkpt>
      <trkpt lat="46.61747" lon="5.36397">
        <ele>214.2</ele>
        <time>2022-07-11T13:58:21Z</time>
      </trkpt>
      <trkpt lat="46.61726" lon="5.36384">
        <ele>214.4</ele>
        <time>2022-07-11T13:58:25Z</time>
      </trkpt>
      <trkpt lat="46.61715" lon="5.36381">
        <ele>214.8</ele>
        <time>2022-07-11T13:58:27Z</time>
      </trkpt>
      <trkpt lat="46.61703" lon="5.36381">
        <ele>215</ele>
        <time>2022-07-11T13:58:29Z</time>
      </trkpt>
      <trkpt lat="46.61696" lon="5.36383">
        <ele>215.2</ele>
        <time>2022-07-11T13:58:30Z</time>
      </trkpt>
      <trkpt lat="46.61668" lon="5.36393">
        <ele>215.4</ele>
        <time>2022-07-11T13:58:34Z</time>
      </trkpt>
      <trkpt lat="46.61653" lon="5.36392">
        <ele>215.6</ele>
        <time>2022-07-11T13:58:36Z</time>
      </trkpt>
      <trkpt lat="46.61646" lon="5.36388">
        <ele>215.6</ele>
        <time>2022-07-11T13:58:37Z</time>
      </trkpt>
      <trkpt lat="46.6164" lon="5.36383">
        <ele>215.6</ele>
        <time>2022-07-11T13:58:38Z</time>
      </trkpt>
      <trkpt lat="46.61632" lon="5.36368">
        <ele>215.6</ele>
        <time>2022-07-11T13:58:40Z</time>
      </trkpt>
      <trkpt lat="46.61626" lon="5.36352">
        <ele>215.8</ele>
        <time>2022-07-11T13:58:42Z</time>
      </trkpt>
      <trkpt lat="46.61619" lon="5.36328">
        <ele>216</ele>
        <time>2022-07-11T13:58:45Z</time>
      </trkpt>
      <trkpt lat="46.61607" lon="5.36309">
        <ele>216.8</ele>
        <time>2022-07-11T13:58:48Z</time>
      </trkpt>
      <trkpt lat="46.61601" lon="5.36303">
        <ele>216.8</ele>
        <time>2022-07-11T13:58:49Z</time>
      </trkpt>
      <trkpt lat="46.61577" lon="5.36287">
        <ele>217.2</ele>
        <time>2022-07-11T13:58:53Z</time>
      </trkpt>
      <trkpt lat="46.61564" lon="5.36279">
        <ele>217.2</ele>
        <time>2022-07-11T13:58:55Z</time>
      </trkpt>
      <trkpt lat="46.61517" lon="5.36253">
        <ele>217.6</ele>
        <time>2022-07-11T13:59:02Z</time>
      </trkpt>
      <trkpt lat="46.61502" lon="5.36248">
        <ele>217.8</ele>
        <time>2022-07-11T13:59:04Z</time>
      </trkpt>
      <trkpt lat="46.61488" lon="5.36247">
        <ele>217.8</ele>
        <time>2022-07-11T13:59:06Z</time>
      </trkpt>
      <trkpt lat="46.61436" lon="5.36254">
        <ele>217.8</ele>
        <time>2022-07-11T13:59:13Z</time>
      </trkpt>
      <trkpt lat="46.61428" lon="5.36253">
        <ele>217.8</ele>
        <time>2022-07-11T13:59:14Z</time>
      </trkpt>
      <trkpt lat="46.61413" lon="5.36249">
        <ele>217.8</ele>
        <time>2022-07-11T13:59:16Z</time>
      </trkpt>
      <trkpt lat="46.61406" lon="5.36245">
        <ele>217.6</ele>
        <time>2022-07-11T13:59:17Z</time>
      </trkpt>
      <trkpt lat="46.61356" lon="5.36212">
        <ele>217.8</ele>
        <time>2022-07-11T13:59:24Z</time>
      </trkpt>
      <trkpt lat="46.61349" lon="5.36208">
        <ele>218</ele>
        <time>2022-07-11T13:59:25Z</time>
      </trkpt>
      <trkpt lat="46.613" lon="5.36192">
        <ele>217.4</ele>
        <time>2022-07-11T13:59:31Z</time>
      </trkpt>
      <trkpt lat="46.61292" lon="5.3619">
        <ele>217.2</ele>
        <time>2022-07-11T13:59:32Z</time>
      </trkpt>
      <trkpt lat="46.61276" lon="5.36183">
        <ele>216.8</ele>
        <time>2022-07-11T13:59:34Z</time>
      </trkpt>
      <trkpt lat="46.61261" lon="5.36172">
        <ele>216.6</ele>
        <time>2022-07-11T13:59:36Z</time>
      </trkpt>
      <trkpt lat="46.61231" lon="5.36136">
        <ele>216.6</ele>
        <time>2022-07-11T13:59:41Z</time>
      </trkpt>
      <trkpt lat="46.61209" lon="5.36091">
        <ele>217</ele>
        <time>2022-07-11T13:59:46Z</time>
      </trkpt>
      <trkpt lat="46.61191" lon="5.36053">
        <ele>217.2</ele>
        <time>2022-07-11T13:59:50Z</time>
      </trkpt>
      <trkpt lat="46.61179" lon="5.36037">
        <ele>217.2</ele>
        <time>2022-07-11T13:59:52Z</time>
      </trkpt>
      <trkpt lat="46.61143" lon="5.36008">
        <ele>217.2</ele>
        <time>2022-07-11T13:59:57Z</time>
      </trkpt>
      <trkpt lat="46.61094" lon="5.35965">
        <ele>217</ele>
        <time>2022-07-11T14:00:04Z</time>
      </trkpt>
      <trkpt lat="46.61087" lon="5.35958">
        <ele>217</ele>
        <time>2022-07-11T14:00:05Z</time>
      </trkpt>
      <trkpt lat="46.61073" lon="5.35931">
        <ele>216.8</ele>
        <time>2022-07-11T14:00:08Z</time>
      </trkpt>
      <trkpt lat="46.61038" lon="5.35857">
        <ele>217.2</ele>
        <time>2022-07-11T14:00:16Z</time>
      </trkpt>
      <trkpt lat="46.61006" lon="5.35793">
        <ele>217.2</ele>
        <time>2022-07-11T14:00:23Z</time>
      </trkpt>
      <trkpt lat="46.60996" lon="5.35774">
        <ele>217.2</ele>
        <time>2022-07-11T14:00:25Z</time>
      </trkpt>
      <trkpt lat="46.60966" lon="5.35708">
        <ele>216.8</ele>
        <time>2022-07-11T14:00:32Z</time>
      </trkpt>
      <trkpt lat="46.60962" lon="5.35699">
        <ele>216.8</ele>
        <time>2022-07-11T14:00:33Z</time>
      </trkpt>
      <trkpt lat="46.60944" lon="5.3565">
        <ele>216.8</ele>
        <time>2022-07-11T14:00:38Z</time>
      </trkpt>
      <trkpt lat="46.60942" lon="5.3564">
        <ele>217.2</ele>
        <time>2022-07-11T14:00:39Z</time>
      </trkpt>
      <trkpt lat="46.6094" lon="5.35629">
        <ele>217.2</ele>
        <time>2022-07-11T14:00:40Z</time>
      </trkpt>
      <trkpt lat="46.60941" lon="5.35609">
        <ele>217.6</ele>
        <time>2022-07-11T14:00:42Z</time>
      </trkpt>
      <trkpt lat="46.6095" lon="5.35562">
        <ele>217.8</ele>
        <time>2022-07-11T14:00:47Z</time>
      </trkpt>
      <trkpt lat="46.60954" lon="5.35514">
        <ele>218.4</ele>
        <time>2022-07-11T14:00:52Z</time>
      </trkpt>
      <trkpt lat="46.60954" lon="5.35504">
        <ele>218.6</ele>
        <time>2022-07-11T14:00:53Z</time>
      </trkpt>
      <trkpt lat="46.60949" lon="5.35455">
        <ele>218.8</ele>
        <time>2022-07-11T14:00:58Z</time>
      </trkpt>
      <trkpt lat="46.60946" lon="5.35446">
        <ele>218.8</ele>
        <time>2022-07-11T14:00:59Z</time>
      </trkpt>
      <trkpt lat="46.60942" lon="5.35438">
        <ele>218.8</ele>
        <time>2022-07-11T14:01:00Z</time>
      </trkpt>
      <trkpt lat="46.60932" lon="5.35424">
        <ele>218.8</ele>
        <time>2022-07-11T14:01:02Z</time>
      </trkpt>
      <trkpt lat="46.609" lon="5.35402">
        <ele>219</ele>
        <time>2022-07-11T14:01:07Z</time>
      </trkpt>
      <trkpt lat="46.6088" lon="5.35392">
        <ele>219</ele>
        <time>2022-07-11T14:01:10Z</time>
      </trkpt>
      <trkpt lat="46.60866" lon="5.3539">
        <ele>219</ele>
        <time>2022-07-11T14:01:12Z</time>
      </trkpt>
      <trkpt lat="46.60851" lon="5.35395">
        <ele>219</ele>
        <time>2022-07-11T14:01:14Z</time>
      </trkpt>
      <trkpt lat="46.60844" lon="5.354">
        <ele>219</ele>
        <time>2022-07-11T14:01:15Z</time>
      </trkpt>
      <trkpt lat="46.60814" lon="5.35421">
        <ele>218.6</ele>
        <time>2022-07-11T14:01:19Z</time>
      </trkpt>
      <trkpt lat="46.60806" lon="5.35423">
        <ele>218.6</ele>
        <time>2022-07-11T14:01:20Z</time>
      </trkpt>
      <trkpt lat="46.60797" lon="5.35424">
        <ele>218.2</ele>
        <time>2022-07-11T14:01:21Z</time>
      </trkpt>
      <trkpt lat="46.6078" lon="5.3542">
        <ele>217.6</ele>
        <time>2022-07-11T14:01:23Z</time>
      </trkpt>
      <trkpt lat="46.60771" lon="5.35416">
        <ele>217.6</ele>
        <time>2022-07-11T14:01:24Z</time>
      </trkpt>
      <trkpt lat="46.60746" lon="5.35399">
        <ele>216.6</ele>
        <time>2022-07-11T14:01:27Z</time>
      </trkpt>
      <trkpt lat="46.60738" lon="5.35392">
        <ele>216.4</ele>
        <time>2022-07-11T14:01:28Z</time>
      </trkpt>
      <trkpt lat="46.60731" lon="5.35384">
        <ele>216.2</ele>
        <time>2022-07-11T14:01:29Z</time>
      </trkpt>
      <trkpt lat="46.60709" lon="5.35354">
        <ele>215.6</ele>
        <time>2022-07-11T14:01:32Z</time>
      </trkpt>
      <trkpt lat="46.60703" lon="5.35344">
        <ele>215.2</ele>
        <time>2022-07-11T14:01:33Z</time>
      </trkpt>
      <trkpt lat="46.60674" lon="5.35307">
        <ele>213.6</ele>
        <time>2022-07-11T14:01:37Z</time>
      </trkpt>
      <trkpt lat="46.60666" lon="5.35299">
        <ele>213.4</ele>
        <time>2022-07-11T14:01:38Z</time>
      </trkpt>
      <trkpt lat="46.60648" lon="5.35288">
        <ele>212.4</ele>
        <time>2022-07-11T14:01:40Z</time>
      </trkpt>
      <trkpt lat="46.60629" lon="5.35276">
        <ele>211.8</ele>
        <time>2022-07-11T14:01:42Z</time>
      </trkpt>
      <trkpt lat="46.60611" lon="5.35261">
        <ele>211.2</ele>
        <time>2022-07-11T14:01:44Z</time>
      </trkpt>
      <trkpt lat="46.60595" lon="5.35243">
        <ele>211</ele>
        <time>2022-07-11T14:01:46Z</time>
      </trkpt>
      <trkpt lat="46.60567" lon="5.35202">
        <ele>210.2</ele>
        <time>2022-07-11T14:01:50Z</time>
      </trkpt>
      <trkpt lat="46.60561" lon="5.35193">
        <ele>209.8</ele>
        <time>2022-07-11T14:01:51Z</time>
      </trkpt>
      <trkpt lat="46.60557" lon="5.35188">
        <ele>209.6</ele>
        <time>2022-07-11T14:01:52Z</time>
      </trkpt>
      <trkpt lat="46.60555" lon="5.35185">
        <ele>208.8</ele>
        <time>2022-07-11T14:01:53Z</time>
      </trkpt>
      <trkpt lat="46.60553" lon="5.35183">
        <ele>208</ele>
        <time>2022-07-11T14:01:54Z</time>
      </trkpt>
      <trkpt lat="46.60549" lon="5.35183">
        <ele>207.6</ele>
        <time>2022-07-11T14:01:55Z</time>
      </trkpt>
      <trkpt lat="46.60542" lon="5.35192">
        <ele>207</ele>
        <time>2022-07-11T14:01:57Z</time>
      </trkpt>
      <trkpt lat="46.60533" lon="5.3521">
        <ele>206.6</ele>
        <time>2022-07-11T14:01:59Z</time>
      </trkpt>
      <trkpt lat="46.60527" lon="5.35219">
        <ele>206.4</ele>
        <time>2022-07-11T14:02:00Z</time>
      </trkpt>
      <trkpt lat="46.60498" lon="5.3527">
        <ele>205.6</ele>
        <time>2022-07-11T14:02:05Z</time>
      </trkpt>
      <trkpt lat="46.60474" lon="5.35312">
        <ele>204.4</ele>
        <time>2022-07-11T14:02:09Z</time>
      </trkpt>
      <trkpt lat="46.60462" lon="5.35331">
        <ele>204</ele>
        <time>2022-07-11T14:02:11Z</time>
      </trkpt>
      <trkpt lat="46.60421" lon="5.35394">
        <ele>203.4</ele>
        <time>2022-07-11T14:02:18Z</time>
      </trkpt>
      <trkpt lat="46.60415" lon="5.35403">
        <ele>203.4</ele>
        <time>2022-07-11T14:02:19Z</time>
      </trkpt>
      <trkpt lat="46.60374" lon="5.35462">
        <ele>203.2</ele>
        <time>2022-07-11T14:02:26Z</time>
      </trkpt>
      <trkpt lat="46.60358" lon="5.35487">
        <ele>203.2</ele>
        <time>2022-07-11T14:02:29Z</time>
      </trkpt>
      <trkpt lat="46.60332" lon="5.35529">
        <ele>203.2</ele>
        <time>2022-07-11T14:02:34Z</time>
      </trkpt>
      <trkpt lat="46.60325" lon="5.35548">
        <ele>203.2</ele>
        <time>2022-07-11T14:02:36Z</time>
      </trkpt>
      <trkpt lat="46.6031" lon="5.356">
        <ele>203.4</ele>
        <time>2022-07-11T14:02:41Z</time>
      </trkpt>
      <trkpt lat="46.60305" lon="5.35655">
        <ele>203.6</ele>
        <time>2022-07-11T14:02:46Z</time>
      </trkpt>
      <trkpt lat="46.60309" lon="5.35717">
        <ele>204</ele>
        <time>2022-07-11T14:02:52Z</time>
      </trkpt>
      <trkpt lat="46.60319" lon="5.35783">
        <ele>204.4</ele>
        <time>2022-07-11T14:02:59Z</time>
      </trkpt>
      <trkpt lat="46.6032" lon="5.35794">
        <ele>204.4</ele>
        <time>2022-07-11T14:03:00Z</time>
      </trkpt>
      <trkpt lat="46.60324" lon="5.35819">
        <ele>205.2</ele>
        <time>2022-07-11T14:03:03Z</time>
      </trkpt>
      <trkpt lat="46.60325" lon="5.35828">
        <ele>205.6</ele>
        <time>2022-07-11T14:03:04Z</time>
      </trkpt>
      <trkpt lat="46.60329" lon="5.35854">
        <ele>205.8</ele>
        <time>2022-07-11T14:03:07Z</time>
      </trkpt>
      <trkpt lat="46.60332" lon="5.35872">
        <ele>206.2</ele>
        <time>2022-07-11T14:03:09Z</time>
      </trkpt>
      <trkpt lat="46.60335" lon="5.35887">
        <ele>206.6</ele>
        <time>2022-07-11T14:03:11Z</time>
      </trkpt>
      <trkpt lat="46.60337" lon="5.35914">
        <ele>207.4</ele>
        <time>2022-07-11T14:03:14Z</time>
      </trkpt>
      <trkpt lat="46.60338" lon="5.35924">
        <ele>207.6</ele>
        <time>2022-07-11T14:03:15Z</time>
      </trkpt>
      <trkpt lat="46.60339" lon="5.35978">
        <ele>208</ele>
        <time>2022-07-11T14:03:21Z</time>
      </trkpt>
      <trkpt lat="46.60332" lon="5.36029">
        <ele>208</ele>
        <time>2022-07-11T14:03:26Z</time>
      </trkpt>
      <trkpt lat="46.6032" lon="5.36093">
        <ele>207.8</ele>
        <time>2022-07-11T14:03:32Z</time>
      </trkpt>
      <trkpt lat="46.60295" lon="5.36174">
        <ele>207</ele>
        <time>2022-07-11T14:03:40Z</time>
      </trkpt>
      <trkpt lat="46.60284" lon="5.36217">
        <ele>206.4</ele>
        <time>2022-07-11T14:03:44Z</time>
      </trkpt>
      <trkpt lat="46.60274" lon="5.3626">
        <ele>206.2</ele>
        <time>2022-07-11T14:03:48Z</time>
      </trkpt>
      <trkpt lat="46.60264" lon="5.36307">
        <ele>205.8</ele>
        <time>2022-07-11T14:03:53Z</time>
      </trkpt>
      <trkpt lat="46.60258" lon="5.36336">
        <ele>205.8</ele>
        <time>2022-07-11T14:03:56Z</time>
      </trkpt>
      <trkpt lat="46.60254" lon="5.36357">
        <ele>205.8</ele>
        <time>2022-07-11T14:03:58Z</time>
      </trkpt>
      <trkpt lat="46.60252" lon="5.36382">
        <ele>205.8</ele>
        <time>2022-07-11T14:04:01Z</time>
      </trkpt>
      <trkpt lat="46.60252" lon="5.36393">
        <ele>205.8</ele>
        <time>2022-07-11T14:04:02Z</time>
      </trkpt>
      <trkpt lat="46.60253" lon="5.3641">
        <ele>205.8</ele>
        <time>2022-07-11T14:04:04Z</time>
      </trkpt>
      <trkpt lat="46.60254" lon="5.36426">
        <ele>206</ele>
        <time>2022-07-11T14:04:06Z</time>
      </trkpt>
      <trkpt lat="46.60266" lon="5.3647">
        <ele>207.6</ele>
        <time>2022-07-11T14:04:12Z</time>
      </trkpt>
      <trkpt lat="46.60285" lon="5.36508">
        <ele>208.8</ele>
        <time>2022-07-11T14:04:18Z</time>
      </trkpt>
      <trkpt lat="46.60316" lon="5.36543">
        <ele>210.2</ele>
        <time>2022-07-11T14:04:25Z</time>
      </trkpt>
      <trkpt lat="46.60339" lon="5.36565">
        <ele>211.2</ele>
        <time>2022-07-11T14:04:30Z</time>
      </trkpt>
      <trkpt lat="46.60353" lon="5.36577">
        <ele>211.6</ele>
        <time>2022-07-11T14:04:33Z</time>
      </trkpt>
      <trkpt lat="46.60388" lon="5.36611">
        <ele>212.2</ele>
        <time>2022-07-11T14:04:41Z</time>
      </trkpt>
      <trkpt lat="46.60393" lon="5.36615">
        <ele>212.4</ele>
        <time>2022-07-11T14:04:42Z</time>
      </trkpt>
      <trkpt lat="46.60415" lon="5.36642">
        <ele>213.4</ele>
        <time>2022-07-11T14:04:47Z</time>
      </trkpt>
      <trkpt lat="46.60426" lon="5.36661">
        <ele>213.8</ele>
        <time>2022-07-11T14:04:50Z</time>
      </trkpt>
      <trkpt lat="46.60434" lon="5.36682">
        <ele>214.6</ele>
        <time>2022-07-11T14:04:53Z</time>
      </trkpt>
      <trkpt lat="46.60446" lon="5.3672">
        <ele>215</ele>
        <time>2022-07-11T14:04:58Z</time>
      </trkpt>
      <trkpt lat="46.60451" lon="5.36746">
        <ele>214.8</ele>
        <time>2022-07-11T14:05:01Z</time>
      </trkpt>
      <trkpt lat="46.60454" lon="5.36775">
        <ele>214.4</ele>
        <time>2022-07-11T14:05:04Z</time>
      </trkpt>
      <trkpt lat="46.60456" lon="5.36837">
        <ele>213.6</ele>
        <time>2022-07-11T14:05:10Z</time>
      </trkpt>
      <trkpt lat="46.60457" lon="5.36859">
        <ele>213.6</ele>
        <time>2022-07-11T14:05:12Z</time>
      </trkpt>
      <trkpt lat="46.60456" lon="5.36895">
        <ele>212.6</ele>
        <time>2022-07-11T14:05:15Z</time>
      </trkpt>
      <trkpt lat="46.60455" lon="5.36907">
        <ele>212.4</ele>
        <time>2022-07-11T14:05:16Z</time>
      </trkpt>
      <trkpt lat="46.60447" lon="5.36958">
        <ele>211.4</ele>
        <time>2022-07-11T14:05:20Z</time>
      </trkpt>
      <trkpt lat="46.60445" lon="5.36972">
        <ele>211</ele>
        <time>2022-07-11T14:05:21Z</time>
      </trkpt>
      <trkpt lat="46.60437" lon="5.37025">
        <ele>209.8</ele>
        <time>2022-07-11T14:05:25Z</time>
      </trkpt>
      <trkpt lat="46.60431" lon="5.37062">
        <ele>209</ele>
        <time>2022-07-11T14:05:28Z</time>
      </trkpt>
      <trkpt lat="46.60429" lon="5.37073">
        <ele>208.8</ele>
        <time>2022-07-11T14:05:29Z</time>
      </trkpt>
      <trkpt lat="46.60423" lon="5.37119">
        <ele>208.4</ele>
        <time>2022-07-11T14:05:33Z</time>
      </trkpt>
      <trkpt lat="46.60417" lon="5.37168">
        <ele>208.8</ele>
        <time>2022-07-11T14:05:38Z</time>
      </trkpt>
      <trkpt lat="46.60411" lon="5.37223">
        <ele>209.2</ele>
        <time>2022-07-11T14:05:44Z</time>
      </trkpt>
      <trkpt lat="46.60403" lon="5.37266">
        <ele>210</ele>
        <time>2022-07-11T14:05:49Z</time>
      </trkpt>
      <trkpt lat="46.6039" lon="5.37301">
        <ele>210.4</ele>
        <time>2022-07-11T14:05:54Z</time>
      </trkpt>
      <trkpt lat="46.60383" lon="5.37312">
        <ele>211</ele>
        <time>2022-07-11T14:05:56Z</time>
      </trkpt>
      <trkpt lat="46.60379" lon="5.37316">
        <ele>211.2</ele>
        <time>2022-07-11T14:05:57Z</time>
      </trkpt>
      <trkpt lat="46.60374" lon="5.3732">
        <ele>211.4</ele>
        <time>2022-07-11T14:05:58Z</time>
      </trkpt>
      <trkpt lat="46.60365" lon="5.37326">
        <ele>212.2</ele>
        <time>2022-07-11T14:06:00Z</time>
      </trkpt>
      <trkpt lat="46.60351" lon="5.37332">
        <ele>213.4</ele>
        <time>2022-07-11T14:06:03Z</time>
      </trkpt>
      <trkpt lat="46.60335" lon="5.37337">
        <ele>214.6</ele>
        <time>2022-07-11T14:06:06Z</time>
      </trkpt>
      <trkpt lat="46.60315" lon="5.37342">
        <ele>215.8</ele>
        <time>2022-07-11T14:06:10Z</time>
      </trkpt>
      <trkpt lat="46.60311" lon="5.37343">
        <ele>216.2</ele>
        <time>2022-07-11T14:06:11Z</time>
      </trkpt>
      <trkpt lat="46.60296" lon="5.37346">
        <ele>217.2</ele>
        <time>2022-07-11T14:06:14Z</time>
      </trkpt>
      <trkpt lat="46.60276" lon="5.37349">
        <ele>218.2</ele>
        <time>2022-07-11T14:06:18Z</time>
      </trkpt>
      <trkpt lat="46.60271" lon="5.37352">
        <ele>218.4</ele>
        <time>2022-07-11T14:06:19Z</time>
      </trkpt>
      <trkpt lat="46.60261" lon="5.37363">
        <ele>218.8</ele>
        <time>2022-07-11T14:06:21Z</time>
      </trkpt>
      <trkpt lat="46.60258" lon="5.37369">
        <ele>219</ele>
        <time>2022-07-11T14:06:22Z</time>
      </trkpt>
      <trkpt lat="46.60254" lon="5.37377">
        <ele>219.2</ele>
        <time>2022-07-11T14:06:23Z</time>
      </trkpt>
      <trkpt lat="46.60251" lon="5.37385">
        <ele>219.4</ele>
        <time>2022-07-11T14:06:24Z</time>
      </trkpt>
      <trkpt lat="46.60245" lon="5.37403">
        <ele>219.4</ele>
        <time>2022-07-11T14:06:26Z</time>
      </trkpt>
      <trkpt lat="46.60228" lon="5.37457">
        <ele>218.8</ele>
        <time>2022-07-11T14:06:31Z</time>
      </trkpt>
      <trkpt lat="46.6022" lon="5.37484">
        <ele>218.6</ele>
        <time>2022-07-11T14:06:33Z</time>
      </trkpt>
      <trkpt lat="46.60217" lon="5.37494">
        <ele>218.2</ele>
        <time>2022-07-11T14:06:34Z</time>
      </trkpt>
      <trkpt lat="46.60209" lon="5.37533">
        <ele>216.8</ele>
        <time>2022-07-11T14:06:37Z</time>
      </trkpt>
      <trkpt lat="46.60195" lon="5.37601">
        <ele>215.6</ele>
        <time>2022-07-11T14:06:42Z</time>
      </trkpt>
      <trkpt lat="46.6019" lon="5.37629">
        <ele>214.2</ele>
        <time>2022-07-11T14:06:44Z</time>
      </trkpt>
      <trkpt lat="46.60187" lon="5.37645">
        <ele>213.8</ele>
        <time>2022-07-11T14:06:45Z</time>
      </trkpt>
      <trkpt lat="46.60182" lon="5.37672">
        <ele>212.8</ele>
        <time>2022-07-11T14:06:47Z</time>
      </trkpt>
      <trkpt lat="46.60175" lon="5.37714">
        <ele>211.8</ele>
        <time>2022-07-11T14:06:50Z</time>
      </trkpt>
      <trkpt lat="46.6017" lon="5.37742">
        <ele>210.6</ele>
        <time>2022-07-11T14:06:52Z</time>
      </trkpt>
      <trkpt lat="46.60158" lon="5.37804">
        <ele>209.4</ele>
        <time>2022-07-11T14:06:57Z</time>
      </trkpt>
      <trkpt lat="46.60143" lon="5.37883">
        <ele>209</ele>
        <time>2022-07-11T14:07:04Z</time>
      </trkpt>
      <trkpt lat="46.60141" lon="5.37894">
        <ele>209</ele>
        <time>2022-07-11T14:07:05Z</time>
      </trkpt>
      <trkpt lat="46.60129" lon="5.37955">
        <ele>209.8</ele>
        <time>2022-07-11T14:07:11Z</time>
      </trkpt>
      <trkpt lat="46.60118" lon="5.38012">
        <ele>210.4</ele>
        <time>2022-07-11T14:07:17Z</time>
      </trkpt>
      <trkpt lat="46.60116" lon="5.38022">
        <ele>210.6</ele>
        <time>2022-07-11T14:07:18Z</time>
      </trkpt>
      <trkpt lat="46.60106" lon="5.38084">
        <ele>211.6</ele>
        <time>2022-07-11T14:07:24Z</time>
      </trkpt>
      <trkpt lat="46.60104" lon="5.38095">
        <ele>211.6</ele>
        <time>2022-07-11T14:07:25Z</time>
      </trkpt>
      <trkpt lat="46.60097" lon="5.3817">
        <ele>212</ele>
        <time>2022-07-11T14:07:32Z</time>
      </trkpt>
      <trkpt lat="46.60093" lon="5.3825">
        <ele>211.4</ele>
        <time>2022-07-11T14:07:39Z</time>
      </trkpt>
      <trkpt lat="46.60092" lon="5.38262">
        <ele>211.4</ele>
        <time>2022-07-11T14:07:40Z</time>
      </trkpt>
      <trkpt lat="46.60092" lon="5.3835">
        <ele>211.2</ele>
        <time>2022-07-11T14:07:48Z</time>
      </trkpt>
      <trkpt lat="46.60093" lon="5.38361">
        <ele>211.2</ele>
        <time>2022-07-11T14:07:49Z</time>
      </trkpt>
      <trkpt lat="46.60093" lon="5.38445">
        <ele>211.8</ele>
        <time>2022-07-11T14:07:57Z</time>
      </trkpt>
      <trkpt lat="46.60092" lon="5.38456">
        <ele>211.8</ele>
        <time>2022-07-11T14:07:58Z</time>
      </trkpt>
      <trkpt lat="46.60088" lon="5.38544">
        <ele>211.4</ele>
        <time>2022-07-11T14:08:06Z</time>
      </trkpt>
      <trkpt lat="46.6008" lon="5.38605">
        <ele>210.8</ele>
        <time>2022-07-11T14:08:11Z</time>
      </trkpt>
      <trkpt lat="46.60072" lon="5.38641">
        <ele>210.6</ele>
        <time>2022-07-11T14:08:14Z</time>
      </trkpt>
      <trkpt lat="46.60061" lon="5.3869">
        <ele>210.2</ele>
        <time>2022-07-11T14:08:18Z</time>
      </trkpt>
      <trkpt lat="46.60046" lon="5.38752">
        <ele>210.2</ele>
        <time>2022-07-11T14:08:24Z</time>
      </trkpt>
      <trkpt lat="46.60033" lon="5.38801">
        <ele>211</ele>
        <time>2022-07-11T14:08:30Z</time>
      </trkpt>
      <trkpt lat="46.60031" lon="5.38808">
        <ele>211.4</ele>
        <time>2022-07-11T14:08:31Z</time>
      </trkpt>
      <trkpt lat="46.60028" lon="5.38815">
        <ele>211.6</ele>
        <time>2022-07-11T14:08:32Z</time>
      </trkpt>
      <trkpt lat="46.60021" lon="5.38835">
        <ele>212.8</ele>
        <time>2022-07-11T14:08:35Z</time>
      </trkpt>
      <trkpt lat="46.60019" lon="5.38841">
        <ele>213</ele>
        <time>2022-07-11T14:08:36Z</time>
      </trkpt>
      <trkpt lat="46.60014" lon="5.38853">
        <ele>214.4</ele>
        <time>2022-07-11T14:08:38Z</time>
      </trkpt>
      <trkpt lat="46.6001" lon="5.38864">
        <ele>215.4</ele>
        <time>2022-07-11T14:08:40Z</time>
      </trkpt>
      <trkpt lat="46.60008" lon="5.3887">
        <ele>215.8</ele>
        <time>2022-07-11T14:08:41Z</time>
      </trkpt>
      <trkpt lat="46.60002" lon="5.38888">
        <ele>217</ele>
        <time>2022-07-11T14:08:44Z</time>
      </trkpt>
      <trkpt lat="46.59997" lon="5.38906">
        <ele>218</ele>
        <time>2022-07-11T14:08:47Z</time>
      </trkpt>
      <trkpt lat="46.59995" lon="5.38911">
        <ele>218.4</ele>
        <time>2022-07-11T14:08:48Z</time>
      </trkpt>
      <trkpt lat="46.59992" lon="5.38923">
        <ele>219.2</ele>
        <time>2022-07-11T14:08:50Z</time>
      </trkpt>
      <trkpt lat="46.59989" lon="5.38934">
        <ele>219.4</ele>
        <time>2022-07-11T14:08:52Z</time>
      </trkpt>
      <trkpt lat="46.59987" lon="5.38946">
        <ele>220.4</ele>
        <time>2022-07-11T14:08:54Z</time>
      </trkpt>
      <trkpt lat="46.59983" lon="5.38967">
        <ele>220.8</ele>
        <time>2022-07-11T14:08:57Z</time>
      </trkpt>
      <trkpt lat="46.59978" lon="5.38999">
        <ele>221.8</ele>
        <time>2022-07-11T14:09:02Z</time>
      </trkpt>
      <trkpt lat="46.59972" lon="5.39039">
        <ele>223</ele>
        <time>2022-07-11T14:09:08Z</time>
      </trkpt>
      <trkpt lat="46.59969" lon="5.39064">
        <ele>223.2</ele>
        <time>2022-07-11T14:09:12Z</time>
      </trkpt>
      <trkpt lat="46.59966" lon="5.39089">
        <ele>224</ele>
        <time>2022-07-11T14:09:16Z</time>
      </trkpt>
      <trkpt lat="46.59962" lon="5.39101">
        <ele>224.6</ele>
        <time>2022-07-11T14:09:18Z</time>
      </trkpt>
      <trkpt lat="46.59955" lon="5.39111">
        <ele>225.2</ele>
        <time>2022-07-11T14:09:20Z</time>
      </trkpt>
      <trkpt lat="46.59941" lon="5.39135">
        <ele>226</ele>
        <time>2022-07-11T14:09:24Z</time>
      </trkpt>
      <trkpt lat="46.59938" lon="5.3914">
        <ele>226.2</ele>
        <time>2022-07-11T14:09:25Z</time>
      </trkpt>
      <trkpt lat="46.59931" lon="5.39154">
        <ele>226.4</ele>
        <time>2022-07-11T14:09:27Z</time>
      </trkpt>
      <trkpt lat="46.59925" lon="5.39166">
        <ele>226.6</ele>
        <time>2022-07-11T14:09:29Z</time>
      </trkpt>
      <trkpt lat="46.59921" lon="5.39172">
        <ele>226.6</ele>
        <time>2022-07-11T14:09:30Z</time>
      </trkpt>
      <trkpt lat="46.59916" lon="5.39177">
        <ele>226.6</ele>
        <time>2022-07-11T14:09:31Z</time>
      </trkpt>
      <trkpt lat="46.59899" lon="5.39186">
        <ele>226.4</ele>
        <time>2022-07-11T14:09:34Z</time>
      </trkpt>
      <trkpt lat="46.59861" lon="5.39192">
        <ele>226.6</ele>
        <time>2022-07-11T14:09:40Z</time>
      </trkpt>
      <trkpt lat="46.5982" lon="5.39185">
        <ele>227</ele>
        <time>2022-07-11T14:09:47Z</time>
      </trkpt>
      <trkpt lat="46.59813" lon="5.39185">
        <ele>227</ele>
        <time>2022-07-11T14:09:48Z</time>
      </trkpt>
      <trkpt lat="46.59806" lon="5.39185">
        <ele>227</ele>
        <time>2022-07-11T14:09:49Z</time>
      </trkpt>
      <trkpt lat="46.59787" lon="5.39189">
        <ele>227.2</ele>
        <time>2022-07-11T14:09:52Z</time>
      </trkpt>
      <trkpt lat="46.59774" lon="5.39194">
        <ele>227.4</ele>
        <time>2022-07-11T14:09:54Z</time>
      </trkpt>
      <trkpt lat="46.59749" lon="5.39207">
        <ele>227.6</ele>
        <time>2022-07-11T14:09:58Z</time>
      </trkpt>
      <trkpt lat="46.59744" lon="5.39207">
        <ele>227.6</ele>
        <time>2022-07-11T14:09:59Z</time>
      </trkpt>
      <trkpt lat="46.59738" lon="5.39204">
        <ele>227.6</ele>
        <time>2022-07-11T14:10:00Z</time>
      </trkpt>
      <trkpt lat="46.59725" lon="5.39199">
        <ele>227.8</ele>
        <time>2022-07-11T14:10:02Z</time>
      </trkpt>
      <trkpt lat="46.59719" lon="5.39198">
        <ele>227.8</ele>
        <time>2022-07-11T14:10:03Z</time>
      </trkpt>
      <trkpt lat="46.59664" lon="5.39187">
        <ele>228.2</ele>
        <time>2022-07-11T14:10:11Z</time>
      </trkpt>
      <trkpt lat="46.59657" lon="5.39186">
        <ele>228.2</ele>
        <time>2022-07-11T14:10:12Z</time>
      </trkpt>
      <trkpt lat="46.59614" lon="5.39184">
        <ele>228.2</ele>
        <time>2022-07-11T14:10:17Z</time>
      </trkpt>
      <trkpt lat="46.59607" lon="5.39186">
        <ele>228</ele>
        <time>2022-07-11T14:10:18Z</time>
      </trkpt>
      <trkpt lat="46.59599" lon="5.39189">
        <ele>227.8</ele>
        <time>2022-07-11T14:10:19Z</time>
      </trkpt>
      <trkpt lat="46.59568" lon="5.39202">
        <ele>227.4</ele>
        <time>2022-07-11T14:10:23Z</time>
      </trkpt>
      <trkpt lat="46.59541" lon="5.39205">
        <ele>227.2</ele>
        <time>2022-07-11T14:10:26Z</time>
      </trkpt>
      <trkpt lat="46.59533" lon="5.39203">
        <ele>227.2</ele>
        <time>2022-07-11T14:10:27Z</time>
      </trkpt>
      <trkpt lat="46.59527" lon="5.392">
        <ele>227.2</ele>
        <time>2022-07-11T14:10:28Z</time>
      </trkpt>
      <trkpt lat="46.59513" lon="5.39187">
        <ele>227.2</ele>
        <time>2022-07-11T14:10:30Z</time>
      </trkpt>
      <trkpt lat="46.59504" lon="5.39166">
        <ele>227.2</ele>
        <time>2022-07-11T14:10:32Z</time>
      </trkpt>
      <trkpt lat="46.59501" lon="5.39154">
        <ele>227.2</ele>
        <time>2022-07-11T14:10:33Z</time>
      </trkpt>
      <trkpt lat="46.59499" lon="5.39142">
        <ele>227.4</ele>
        <time>2022-07-11T14:10:34Z</time>
      </trkpt>
      <trkpt lat="46.59498" lon="5.39128">
        <ele>227</ele>
        <time>2022-07-11T14:10:35Z</time>
      </trkpt>
      <trkpt lat="46.59493" lon="5.39091">
        <ele>226.8</ele>
        <time>2022-07-11T14:10:38Z</time>
      </trkpt>
      <trkpt lat="46.59483" lon="5.39009">
        <ele>226.6</ele>
        <time>2022-07-11T14:10:45Z</time>
      </trkpt>
      <trkpt lat="46.5948" lon="5.38986">
        <ele>226.4</ele>
        <time>2022-07-11T14:10:47Z</time>
      </trkpt>
      <trkpt lat="46.59466" lon="5.38929">
        <ele>226</ele>
        <time>2022-07-11T14:10:52Z</time>
      </trkpt>
      <trkpt lat="46.59463" lon="5.38921">
        <ele>226</ele>
        <time>2022-07-11T14:10:53Z</time>
      </trkpt>
      <trkpt lat="46.59453" lon="5.3889">
        <ele>226</ele>
        <time>2022-07-11T14:10:56Z</time>
      </trkpt>
      <trkpt lat="46.59451" lon="5.38877">
        <ele>226</ele>
        <time>2022-07-11T14:10:57Z</time>
      </trkpt>
      <trkpt lat="46.59444" lon="5.38814">
        <ele>226.4</ele>
        <time>2022-07-11T14:11:03Z</time>
      </trkpt>
      <trkpt lat="46.59442" lon="5.38801">
        <ele>226.6</ele>
        <time>2022-07-11T14:11:04Z</time>
      </trkpt>
      <trkpt lat="46.59435" lon="5.38784">
        <ele>226.6</ele>
        <time>2022-07-11T14:11:06Z</time>
      </trkpt>
      <trkpt lat="46.5943" lon="5.38775">
        <ele>226.6</ele>
        <time>2022-07-11T14:11:07Z</time>
      </trkpt>
      <trkpt lat="46.59423" lon="5.38766">
        <ele>226.6</ele>
        <time>2022-07-11T14:11:08Z</time>
      </trkpt>
      <trkpt lat="46.59403" lon="5.38745">
        <ele>226.8</ele>
        <time>2022-07-11T14:11:11Z</time>
      </trkpt>
      <trkpt lat="46.59359" lon="5.38697">
        <ele>226.4</ele>
        <time>2022-07-11T14:11:18Z</time>
      </trkpt>
      <trkpt lat="46.59339" lon="5.38676">
        <ele>226</ele>
        <time>2022-07-11T14:11:21Z</time>
      </trkpt>
      <trkpt lat="46.59293" lon="5.38627">
        <ele>225.6</ele>
        <time>2022-07-11T14:11:28Z</time>
      </trkpt>
      <trkpt lat="46.59255" lon="5.38585">
        <ele>225.6</ele>
        <time>2022-07-11T14:11:34Z</time>
      </trkpt>
      <trkpt lat="46.59206" lon="5.38533">
        <ele>226.4</ele>
        <time>2022-07-11T14:11:42Z</time>
      </trkpt>
      <trkpt lat="46.59168" lon="5.38488">
        <ele>226.2</ele>
        <time>2022-07-11T14:11:48Z</time>
      </trkpt>
      <trkpt lat="46.59127" lon="5.38421">
        <ele>225.2</ele>
        <time>2022-07-11T14:11:55Z</time>
      </trkpt>
      <trkpt lat="46.59113" lon="5.38404">
        <ele>225</ele>
        <time>2022-07-11T14:11:57Z</time>
      </trkpt>
      <trkpt lat="46.59105" lon="5.38396">
        <ele>224.8</ele>
        <time>2022-07-11T14:11:58Z</time>
      </trkpt>
      <trkpt lat="46.59098" lon="5.3839">
        <ele>224.4</ele>
        <time>2022-07-11T14:11:59Z</time>
      </trkpt>
      <trkpt lat="46.59073" lon="5.3837">
        <ele>223.6</ele>
        <time>2022-07-11T14:12:02Z</time>
      </trkpt>
      <trkpt lat="46.59037" lon="5.3834">
        <ele>222.2</ele>
        <time>2022-07-11T14:12:06Z</time>
      </trkpt>
      <trkpt lat="46.59003" lon="5.38311">
        <ele>221</ele>
        <time>2022-07-11T14:12:10Z</time>
      </trkpt>
      <trkpt lat="46.58972" lon="5.38285">
        <ele>220</ele>
        <time>2022-07-11T14:12:14Z</time>
      </trkpt>
      <trkpt lat="46.58941" lon="5.38259">
        <ele>219.4</ele>
        <time>2022-07-11T14:12:18Z</time>
      </trkpt>
      <trkpt lat="46.58922" lon="5.38236">
        <ele>219</ele>
        <time>2022-07-11T14:12:21Z</time>
      </trkpt>
      <trkpt lat="46.58909" lon="5.38221">
        <ele>218.8</ele>
        <time>2022-07-11T14:12:23Z</time>
      </trkpt>
      <trkpt lat="46.58866" lon="5.38167">
        <ele>219.6</ele>
        <time>2022-07-11T14:12:30Z</time>
      </trkpt>
      <trkpt lat="46.58854" lon="5.38152">
        <ele>220.2</ele>
        <time>2022-07-11T14:12:32Z</time>
      </trkpt>
      <trkpt lat="46.58841" lon="5.38138">
        <ele>221.2</ele>
        <time>2022-07-11T14:12:34Z</time>
      </trkpt>
      <trkpt lat="46.58836" lon="5.38131">
        <ele>221.2</ele>
        <time>2022-07-11T14:12:35Z</time>
      </trkpt>
      <trkpt lat="46.58799" lon="5.38085">
        <ele>222.4</ele>
        <time>2022-07-11T14:12:41Z</time>
      </trkpt>
      <trkpt lat="46.58782" lon="5.38067">
        <ele>222.8</ele>
        <time>2022-07-11T14:12:44Z</time>
      </trkpt>
      <trkpt lat="46.58766" lon="5.38058">
        <ele>223.2</ele>
        <time>2022-07-11T14:12:46Z</time>
      </trkpt>
      <trkpt lat="46.58726" lon="5.38053">
        <ele>223.2</ele>
        <time>2022-07-11T14:12:51Z</time>
      </trkpt>
      <trkpt lat="46.5867" lon="5.38049">
        <ele>222.2</ele>
        <time>2022-07-11T14:12:58Z</time>
      </trkpt>
      <trkpt lat="46.58645" lon="5.38046">
        <ele>221.8</ele>
        <time>2022-07-11T14:13:01Z</time>
      </trkpt>
      <trkpt lat="46.58629" lon="5.38043">
        <ele>221.8</ele>
        <time>2022-07-11T14:13:03Z</time>
      </trkpt>
      <trkpt lat="46.58612" lon="5.38034">
        <ele>221.6</ele>
        <time>2022-07-11T14:13:05Z</time>
      </trkpt>
      <trkpt lat="46.58586" lon="5.38009">
        <ele>221.2</ele>
        <time>2022-07-11T14:13:09Z</time>
      </trkpt>
      <trkpt lat="46.5858" lon="5.38004">
        <ele>221.2</ele>
        <time>2022-07-11T14:13:10Z</time>
      </trkpt>
      <trkpt lat="46.58566" lon="5.37999">
        <ele>221</ele>
        <time>2022-07-11T14:13:12Z</time>
      </trkpt>
      <trkpt lat="46.58558" lon="5.38">
        <ele>220.8</ele>
        <time>2022-07-11T14:13:13Z</time>
      </trkpt>
      <trkpt lat="46.58551" lon="5.38002">
        <ele>220.8</ele>
        <time>2022-07-11T14:13:14Z</time>
      </trkpt>
      <trkpt lat="46.58528" lon="5.38015">
        <ele>220.4</ele>
        <time>2022-07-11T14:13:17Z</time>
      </trkpt>
      <trkpt lat="46.58521" lon="5.38019">
        <ele>220.2</ele>
        <time>2022-07-11T14:13:18Z</time>
      </trkpt>
      <trkpt lat="46.58512" lon="5.38023">
        <ele>220</ele>
        <time>2022-07-11T14:13:19Z</time>
      </trkpt>
      <trkpt lat="46.58496" lon="5.38026">
        <ele>219.8</ele>
        <time>2022-07-11T14:13:21Z</time>
      </trkpt>
      <trkpt lat="46.58464" lon="5.38019">
        <ele>220</ele>
        <time>2022-07-11T14:13:25Z</time>
      </trkpt>
      <trkpt lat="46.58414" lon="5.38">
        <ele>219.2</ele>
        <time>2022-07-11T14:13:30Z</time>
      </trkpt>
      <trkpt lat="46.58373" lon="5.37985">
        <ele>217.6</ele>
        <time>2022-07-11T14:13:34Z</time>
      </trkpt>
      <trkpt lat="46.58334" lon="5.37969">
        <ele>216.8</ele>
        <time>2022-07-11T14:13:38Z</time>
      </trkpt>
      <trkpt lat="46.58321" lon="5.37963">
        <ele>216.2</ele>
        <time>2022-07-11T14:13:39Z</time>
      </trkpt>
      <trkpt lat="46.58283" lon="5.3794">
        <ele>215</ele>
        <time>2022-07-11T14:13:43Z</time>
      </trkpt>
      <trkpt lat="46.58273" lon="5.37934">
        <ele>214.8</ele>
        <time>2022-07-11T14:13:44Z</time>
      </trkpt>
      <trkpt lat="46.58243" lon="5.37915">
        <ele>214</ele>
        <time>2022-07-11T14:13:47Z</time>
      </trkpt>
      <trkpt lat="46.58214" lon="5.37896">
        <ele>213</ele>
        <time>2022-07-11T14:13:50Z</time>
      </trkpt>
      <trkpt lat="46.58182" lon="5.37877">
        <ele>212.2</ele>
        <time>2022-07-11T14:13:53Z</time>
      </trkpt>
      <trkpt lat="46.58173" lon="5.37875">
        <ele>212</ele>
        <time>2022-07-11T14:13:54Z</time>
      </trkpt>
      <trkpt lat="46.5815" lon="5.37878">
        <ele>211.4</ele>
        <time>2022-07-11T14:13:56Z</time>
      </trkpt>
      <trkpt lat="46.58133" lon="5.37891">
        <ele>211</ele>
        <time>2022-07-11T14:13:58Z</time>
      </trkpt>
      <trkpt lat="46.58112" lon="5.37905">
        <ele>210.6</ele>
        <time>2022-07-11T14:14:00Z</time>
      </trkpt>
      <trkpt lat="46.58051" lon="5.37927">
        <ele>210</ele>
        <time>2022-07-11T14:14:06Z</time>
      </trkpt>
      <trkpt lat="46.58043" lon="5.37929">
        <ele>210</ele>
        <time>2022-07-11T14:14:07Z</time>
      </trkpt>
      <trkpt lat="46.58023" lon="5.37935">
        <ele>209.8</ele>
        <time>2022-07-11T14:14:09Z</time>
      </trkpt>
      <trkpt lat="46.57997" lon="5.37949">
        <ele>210</ele>
        <time>2022-07-11T14:14:12Z</time>
      </trkpt>
      <trkpt lat="46.57958" lon="5.37978">
        <ele>210.2</ele>
        <time>2022-07-11T14:14:17Z</time>
      </trkpt>
      <trkpt lat="46.57924" lon="5.38002">
        <ele>211</ele>
        <time>2022-07-11T14:14:22Z</time>
      </trkpt>
      <trkpt lat="46.57901" lon="5.3804">
        <ele>211.8</ele>
        <time>2022-07-11T14:14:27Z</time>
      </trkpt>
      <trkpt lat="46.57897" lon="5.38048">
        <ele>212</ele>
        <time>2022-07-11T14:14:28Z</time>
      </trkpt>
      <trkpt lat="46.57891" lon="5.38067">
        <ele>212.2</ele>
        <time>2022-07-11T14:14:30Z</time>
      </trkpt>
      <trkpt lat="46.57885" lon="5.38087">
        <ele>212.4</ele>
        <time>2022-07-11T14:14:32Z</time>
      </trkpt>
      <trkpt lat="46.57866" lon="5.38146">
        <ele>213.2</ele>
        <time>2022-07-11T14:14:38Z</time>
      </trkpt>
      <trkpt lat="46.57859" lon="5.38164">
        <ele>213.2</ele>
        <time>2022-07-11T14:14:40Z</time>
      </trkpt>
      <trkpt lat="46.57846" lon="5.3819">
        <ele>213</ele>
        <time>2022-07-11T14:14:43Z</time>
      </trkpt>
      <trkpt lat="46.57835" lon="5.38204">
        <ele>213</ele>
        <time>2022-07-11T14:14:45Z</time>
      </trkpt>
      <trkpt lat="46.57786" lon="5.3825">
        <ele>213.4</ele>
        <time>2022-07-11T14:14:53Z</time>
      </trkpt>
      <trkpt lat="46.57774" lon="5.38263">
        <ele>213.4</ele>
        <time>2022-07-11T14:14:55Z</time>
      </trkpt>
      <trkpt lat="46.57739" lon="5.38291">
        <ele>214</ele>
        <time>2022-07-11T14:15:01Z</time>
      </trkpt>
      <trkpt lat="46.57706" lon="5.38302">
        <ele>214.2</ele>
        <time>2022-07-11T14:15:06Z</time>
      </trkpt>
      <trkpt lat="46.57699" lon="5.38305">
        <ele>214.2</ele>
        <time>2022-07-11T14:15:07Z</time>
      </trkpt>
      <trkpt lat="46.57649" lon="5.38315">
        <ele>214.6</ele>
        <time>2022-07-11T14:15:14Z</time>
      </trkpt>
      <trkpt lat="46.57636" lon="5.3832">
        <ele>214.6</ele>
        <time>2022-07-11T14:15:16Z</time>
      </trkpt>
      <trkpt lat="46.57622" lon="5.38316">
        <ele>214.2</ele>
        <time>2022-07-11T14:15:18Z</time>
      </trkpt>
      <trkpt lat="46.57612" lon="5.38296">
        <ele>214</ele>
        <time>2022-07-11T14:15:20Z</time>
      </trkpt>
      <trkpt lat="46.57607" lon="5.38285">
        <ele>214</ele>
        <time>2022-07-11T14:15:21Z</time>
      </trkpt>
      <trkpt lat="46.57596" lon="5.38264">
        <ele>213.4</ele>
        <time>2022-07-11T14:15:23Z</time>
      </trkpt>
      <trkpt lat="46.5759" lon="5.38254">
        <ele>212.8</ele>
        <time>2022-07-11T14:15:24Z</time>
      </trkpt>
      <trkpt lat="46.57583" lon="5.38244">
        <ele>212.4</ele>
        <time>2022-07-11T14:15:25Z</time>
      </trkpt>
      <trkpt lat="46.57569" lon="5.38226">
        <ele>212.2</ele>
        <time>2022-07-11T14:15:27Z</time>
      </trkpt>
      <trkpt lat="46.57545" lon="5.38204">
        <ele>211</ele>
        <time>2022-07-11T14:15:30Z</time>
      </trkpt>
      <trkpt lat="46.57537" lon="5.38197">
        <ele>211</ele>
        <time>2022-07-11T14:15:31Z</time>
      </trkpt>
      <trkpt lat="46.57483" lon="5.38154">
        <ele>210.2</ele>
        <time>2022-07-11T14:15:38Z</time>
      </trkpt>
      <trkpt lat="46.57432" lon="5.38115">
        <ele>210.2</ele>
        <time>2022-07-11T14:15:45Z</time>
      </trkpt>
      <trkpt lat="46.57425" lon="5.38109">
        <ele>210.2</ele>
        <time>2022-07-11T14:15:46Z</time>
      </trkpt>
      <trkpt lat="46.57384" lon="5.38073">
        <ele>210.8</ele>
        <time>2022-07-11T14:15:52Z</time>
      </trkpt>
      <trkpt lat="46.57368" lon="5.38042">
        <ele>211</ele>
        <time>2022-07-11T14:15:56Z</time>
      </trkpt>
      <trkpt lat="46.57348" lon="5.37996">
        <ele>211.6</ele>
        <time>2022-07-11T14:16:02Z</time>
      </trkpt>
      <trkpt lat="46.57341" lon="5.37981">
        <ele>212.2</ele>
        <time>2022-07-11T14:16:04Z</time>
      </trkpt>
      <trkpt lat="46.57328" lon="5.37953">
        <ele>213.4</ele>
        <time>2022-07-11T14:16:08Z</time>
      </trkpt>
      <trkpt lat="46.57325" lon="5.37948">
        <ele>214</ele>
        <time>2022-07-11T14:16:09Z</time>
      </trkpt>
      <trkpt lat="46.57312" lon="5.37919">
        <ele>214.6</ele>
        <time>2022-07-11T14:16:13Z</time>
      </trkpt>
      <trkpt lat="46.57287" lon="5.37874">
        <ele>215.6</ele>
        <time>2022-07-11T14:16:20Z</time>
      </trkpt>
      <trkpt lat="46.57268" lon="5.37836">
        <ele>216.6</ele>
        <time>2022-07-11T14:16:26Z</time>
      </trkpt>
      <trkpt lat="46.57257" lon="5.37813">
        <ele>218</ele>
        <time>2022-07-11T14:16:30Z</time>
      </trkpt>
      <trkpt lat="46.57255" lon="5.37809">
        <ele>218.2</ele>
        <time>2022-07-11T14:16:31Z</time>
      </trkpt>
      <trkpt lat="46.57243" lon="5.37786">
        <ele>219.2</ele>
        <time>2022-07-11T14:16:35Z</time>
      </trkpt>
      <trkpt lat="46.57237" lon="5.37774">
        <ele>219.6</ele>
        <time>2022-07-11T14:16:37Z</time>
      </trkpt>
      <trkpt lat="46.57235" lon="5.37769">
        <ele>219.6</ele>
        <time>2022-07-11T14:16:38Z</time>
      </trkpt>
      <trkpt lat="46.5723" lon="5.37758">
        <ele>220.4</ele>
        <time>2022-07-11T14:16:40Z</time>
      </trkpt>
      <trkpt lat="46.57229" lon="5.37749">
        <ele>221</ele>
        <time>2022-07-11T14:16:42Z</time>
      </trkpt>
      <trkpt lat="46.57228" lon="5.37741">
        <ele>221.4</ele>
        <time>2022-07-11T14:16:44Z</time>
      </trkpt>
      <trkpt lat="46.57226" lon="5.37738">
        <ele>221.4</ele>
        <time>2022-07-11T14:16:45Z</time>
      </trkpt>
      <trkpt lat="46.57224" lon="5.37738">
        <ele>221.6</ele>
        <time>2022-07-11T14:16:46Z</time>
      </trkpt>
      <trkpt lat="46.57212" lon="5.3775">
        <ele>222.6</ele>
        <time>2022-07-11T14:16:49Z</time>
      </trkpt>
      <trkpt lat="46.57187" lon="5.37781">
        <ele>223</ele>
        <time>2022-07-11T14:16:55Z</time>
      </trkpt>
      <trkpt lat="46.57161" lon="5.37812">
        <ele>223</ele>
        <time>2022-07-11T14:17:00Z</time>
      </trkpt>
      <trkpt lat="46.57127" lon="5.37845">
        <ele>222.2</ele>
        <time>2022-07-11T14:17:05Z</time>
      </trkpt>
      <trkpt lat="46.57098" lon="5.37872">
        <ele>221.4</ele>
        <time>2022-07-11T14:17:09Z</time>
      </trkpt>
      <trkpt lat="46.57081" lon="5.37886">
        <ele>220.6</ele>
        <time>2022-07-11T14:17:11Z</time>
      </trkpt>
      <trkpt lat="46.57075" lon="5.37891">
        <ele>220</ele>
        <time>2022-07-11T14:17:12Z</time>
      </trkpt>
      <trkpt lat="46.57024" lon="5.37933">
        <ele>219.2</ele>
        <time>2022-07-11T14:17:19Z</time>
      </trkpt>
      <trkpt lat="46.57015" lon="5.37939">
        <ele>219.4</ele>
        <time>2022-07-11T14:17:20Z</time>
      </trkpt>
      <trkpt lat="46.56969" lon="5.37972">
        <ele>220.2</ele>
        <time>2022-07-11T14:17:27Z</time>
      </trkpt>
      <trkpt lat="46.56955" lon="5.3798">
        <ele>220.6</ele>
        <time>2022-07-11T14:17:29Z</time>
      </trkpt>
      <trkpt lat="46.56943" lon="5.37985">
        <ele>220.8</ele>
        <time>2022-07-11T14:17:31Z</time>
      </trkpt>
      <trkpt lat="46.56934" lon="5.37986">
        <ele>221</ele>
        <time>2022-07-11T14:17:32Z</time>
      </trkpt>
      <trkpt lat="46.56929" lon="5.37986">
        <ele>221.2</ele>
        <time>2022-07-11T14:17:33Z</time>
      </trkpt>
      <trkpt lat="46.56901" lon="5.37982">
        <ele>221.8</ele>
        <time>2022-07-11T14:17:37Z</time>
      </trkpt>
      <trkpt lat="46.56867" lon="5.37976">
        <ele>222.4</ele>
        <time>2022-07-11T14:17:42Z</time>
      </trkpt>
      <trkpt lat="46.56816" lon="5.37962">
        <ele>223.2</ele>
        <time>2022-07-11T14:17:49Z</time>
      </trkpt>
      <trkpt lat="46.56809" lon="5.3796">
        <ele>223.4</ele>
        <time>2022-07-11T14:17:50Z</time>
      </trkpt>
      <trkpt lat="46.56756" lon="5.37949">
        <ele>224.2</ele>
        <time>2022-07-11T14:17:57Z</time>
      </trkpt>
      <trkpt lat="46.56727" lon="5.37942">
        <ele>224.4</ele>
        <time>2022-07-11T14:18:01Z</time>
      </trkpt>
      <trkpt lat="46.56691" lon="5.37933">
        <ele>225</ele>
        <time>2022-07-11T14:18:06Z</time>
      </trkpt>
      <trkpt lat="46.56663" lon="5.37926">
        <ele>225.6</ele>
        <time>2022-07-11T14:18:10Z</time>
      </trkpt>
      <trkpt lat="46.56641" lon="5.3792">
        <ele>226</ele>
        <time>2022-07-11T14:18:13Z</time>
      </trkpt>
      <trkpt lat="46.56586" lon="5.37913">
        <ele>226</ele>
        <time>2022-07-11T14:18:21Z</time>
      </trkpt>
      <trkpt lat="46.56579" lon="5.37913">
        <ele>226</ele>
        <time>2022-07-11T14:18:22Z</time>
      </trkpt>
      <trkpt lat="46.56565" lon="5.37915">
        <ele>226.2</ele>
        <time>2022-07-11T14:18:24Z</time>
      </trkpt>
      <trkpt lat="46.5655" lon="5.37922">
        <ele>226.2</ele>
        <time>2022-07-11T14:18:26Z</time>
      </trkpt>
      <trkpt lat="46.56521" lon="5.37941">
        <ele>226</ele>
        <time>2022-07-11T14:18:30Z</time>
      </trkpt>
      <trkpt lat="46.56513" lon="5.37945">
        <ele>226</ele>
        <time>2022-07-11T14:18:31Z</time>
      </trkpt>
      <trkpt lat="46.56505" lon="5.37947">
        <ele>225.8</ele>
        <time>2022-07-11T14:18:32Z</time>
      </trkpt>
      <trkpt lat="46.56481" lon="5.37945">
        <ele>225.8</ele>
        <time>2022-07-11T14:18:35Z</time>
      </trkpt>
      <trkpt lat="46.56425" lon="5.37931">
        <ele>225</ele>
        <time>2022-07-11T14:18:42Z</time>
      </trkpt>
      <trkpt lat="46.56401" lon="5.37927">
        <ele>224.8</ele>
        <time>2022-07-11T14:18:45Z</time>
      </trkpt>
      <trkpt lat="46.56393" lon="5.37926">
        <ele>224.6</ele>
        <time>2022-07-11T14:18:46Z</time>
      </trkpt>
      <trkpt lat="46.56376" lon="5.3793">
        <ele>224.2</ele>
        <time>2022-07-11T14:18:48Z</time>
      </trkpt>
      <trkpt lat="46.5637" lon="5.37934">
        <ele>224.2</ele>
        <time>2022-07-11T14:18:49Z</time>
      </trkpt>
      <trkpt lat="46.56346" lon="5.37946">
        <ele>223.4</ele>
        <time>2022-07-11T14:18:52Z</time>
      </trkpt>
      <trkpt lat="46.56338" lon="5.37949">
        <ele>223.2</ele>
        <time>2022-07-11T14:18:53Z</time>
      </trkpt>
      <trkpt lat="46.56329" lon="5.3795">
        <ele>223</ele>
        <time>2022-07-11T14:18:54Z</time>
      </trkpt>
      <trkpt lat="46.56305" lon="5.37948">
        <ele>222.8</ele>
        <time>2022-07-11T14:18:57Z</time>
      </trkpt>
      <trkpt lat="46.56272" lon="5.37953">
        <ele>222.6</ele>
        <time>2022-07-11T14:19:01Z</time>
      </trkpt>
      <trkpt lat="46.56226" lon="5.37976">
        <ele>222.4</ele>
        <time>2022-07-11T14:19:07Z</time>
      </trkpt>
      <trkpt lat="46.56206" lon="5.37993">
        <ele>222.4</ele>
        <time>2022-07-11T14:19:10Z</time>
      </trkpt>
      <trkpt lat="46.562" lon="5.38">
        <ele>222.4</ele>
        <time>2022-07-11T14:19:11Z</time>
      </trkpt>
      <trkpt lat="46.56195" lon="5.38008">
        <ele>222.4</ele>
        <time>2022-07-11T14:19:12Z</time>
      </trkpt>
      <trkpt lat="46.56181" lon="5.38033">
        <ele>222.6</ele>
        <time>2022-07-11T14:19:15Z</time>
      </trkpt>
      <trkpt lat="46.56157" lon="5.38078">
        <ele>223.4</ele>
        <time>2022-07-11T14:19:20Z</time>
      </trkpt>
      <trkpt lat="46.56152" lon="5.38086">
        <ele>223.4</ele>
        <time>2022-07-11T14:19:21Z</time>
      </trkpt>
      <trkpt lat="46.56145" lon="5.38094">
        <ele>223.4</ele>
        <time>2022-07-11T14:19:22Z</time>
      </trkpt>
      <trkpt lat="46.56137" lon="5.38101">
        <ele>223.4</ele>
        <time>2022-07-11T14:19:23Z</time>
      </trkpt>
      <trkpt lat="46.5611" lon="5.38123">
        <ele>223.4</ele>
        <time>2022-07-11T14:19:27Z</time>
      </trkpt>
      <trkpt lat="46.56061" lon="5.38158">
        <ele>223.8</ele>
        <time>2022-07-11T14:19:34Z</time>
      </trkpt>
      <trkpt lat="46.56047" lon="5.38167">
        <ele>224</ele>
        <time>2022-07-11T14:19:36Z</time>
      </trkpt>
      <trkpt lat="46.56026" lon="5.38185">
        <ele>224.4</ele>
        <time>2022-07-11T14:19:39Z</time>
      </trkpt>
      <trkpt lat="46.56014" lon="5.38201">
        <ele>224.4</ele>
        <time>2022-07-11T14:19:41Z</time>
      </trkpt>
      <trkpt lat="46.56007" lon="5.38222">
        <ele>224.4</ele>
        <time>2022-07-11T14:19:43Z</time>
      </trkpt>
      <trkpt lat="46.56005" lon="5.38234">
        <ele>224.4</ele>
        <time>2022-07-11T14:19:44Z</time>
      </trkpt>
      <trkpt lat="46.55998" lon="5.38282">
        <ele>224.6</ele>
        <time>2022-07-11T14:19:48Z</time>
      </trkpt>
      <trkpt lat="46.55994" lon="5.38316">
        <ele>225</ele>
        <time>2022-07-11T14:19:51Z</time>
      </trkpt>
      <trkpt lat="46.55991" lon="5.38327">
        <ele>225</ele>
        <time>2022-07-11T14:19:52Z</time>
      </trkpt>
      <trkpt lat="46.55986" lon="5.38369">
        <ele>225.6</ele>
        <time>2022-07-11T14:19:56Z</time>
      </trkpt>
      <trkpt lat="46.55983" lon="5.38389">
        <ele>225.8</ele>
        <time>2022-07-11T14:19:58Z</time>
      </trkpt>
      <trkpt lat="46.55977" lon="5.38447">
        <ele>226.4</ele>
        <time>2022-07-11T14:20:04Z</time>
      </trkpt>
      <trkpt lat="46.55977" lon="5.38456">
        <ele>226.6</ele>
        <time>2022-07-11T14:20:05Z</time>
      </trkpt>
      <trkpt lat="46.5598" lon="5.38504">
        <ele>227.8</ele>
        <time>2022-07-11T14:20:10Z</time>
      </trkpt>
      <trkpt lat="46.55981" lon="5.38514">
        <ele>228.2</ele>
        <time>2022-07-11T14:20:11Z</time>
      </trkpt>
      <trkpt lat="46.55989" lon="5.38588">
        <ele>228.4</ele>
        <time>2022-07-11T14:20:18Z</time>
      </trkpt>
      <trkpt lat="46.55995" lon="5.3863">
        <ele>229</ele>
        <time>2022-07-11T14:20:22Z</time>
      </trkpt>
      <trkpt lat="46.55999" lon="5.38661">
        <ele>229</ele>
        <time>2022-07-11T14:20:25Z</time>
      </trkpt>
      <trkpt lat="46.56002" lon="5.3872">
        <ele>228.6</ele>
        <time>2022-07-11T14:20:31Z</time>
      </trkpt>
      <trkpt lat="46.56008" lon="5.38787">
        <ele>228.4</ele>
        <time>2022-07-11T14:20:37Z</time>
      </trkpt>
      <trkpt lat="46.56005" lon="5.38827">
        <ele>227.8</ele>
        <time>2022-07-11T14:20:40Z</time>
      </trkpt>
      <trkpt lat="46.56002" lon="5.3884">
        <ele>227.6</ele>
        <time>2022-07-11T14:20:41Z</time>
      </trkpt>
      <trkpt lat="46.55996" lon="5.38867">
        <ele>226.4</ele>
        <time>2022-07-11T14:20:43Z</time>
      </trkpt>
      <trkpt lat="46.55985" lon="5.38905">
        <ele>225.8</ele>
        <time>2022-07-11T14:20:46Z</time>
      </trkpt>
      <trkpt lat="46.55981" lon="5.38917">
        <ele>225.2</ele>
        <time>2022-07-11T14:20:47Z</time>
      </trkpt>
      <trkpt lat="46.55964" lon="5.38964">
        <ele>223.8</ele>
        <time>2022-07-11T14:20:51Z</time>
      </trkpt>
      <trkpt lat="46.55952" lon="5.38997">
        <ele>223.4</ele>
        <time>2022-07-11T14:20:54Z</time>
      </trkpt>
      <trkpt lat="46.55943" lon="5.3904">
        <ele>223.4</ele>
        <time>2022-07-11T14:20:58Z</time>
      </trkpt>
      <trkpt lat="46.55938" lon="5.39089">
        <ele>224.4</ele>
        <time>2022-07-11T14:21:03Z</time>
      </trkpt>
      <trkpt lat="46.55937" lon="5.39116">
        <ele>225.2</ele>
        <time>2022-07-11T14:21:06Z</time>
      </trkpt>
      <trkpt lat="46.55936" lon="5.39145">
        <ele>226.4</ele>
        <time>2022-07-11T14:21:09Z</time>
      </trkpt>
      <trkpt lat="46.55935" lon="5.39205">
        <ele>227.2</ele>
        <time>2022-07-11T14:21:15Z</time>
      </trkpt>
      <trkpt lat="46.55933" lon="5.39234">
        <ele>228.2</ele>
        <time>2022-07-11T14:21:18Z</time>
      </trkpt>
      <trkpt lat="46.5593" lon="5.39263">
        <ele>228.4</ele>
        <time>2022-07-11T14:21:21Z</time>
      </trkpt>
      <trkpt lat="46.55929" lon="5.39272">
        <ele>228.4</ele>
        <time>2022-07-11T14:21:22Z</time>
      </trkpt>
      <trkpt lat="46.55922" lon="5.39326">
        <ele>228.8</ele>
        <time>2022-07-11T14:21:28Z</time>
      </trkpt>
      <trkpt lat="46.55914" lon="5.39397">
        <ele>229.6</ele>
        <time>2022-07-11T14:21:36Z</time>
      </trkpt>
      <trkpt lat="46.55912" lon="5.39423">
        <ele>229.8</ele>
        <time>2022-07-11T14:21:39Z</time>
      </trkpt>
      <trkpt lat="46.55906" lon="5.39475">
        <ele>230.6</ele>
        <time>2022-07-11T14:21:45Z</time>
      </trkpt>
      <trkpt lat="46.55902" lon="5.3951">
        <ele>231</ele>
        <time>2022-07-11T14:21:49Z</time>
      </trkpt>
      <trkpt lat="46.55891" lon="5.39591">
        <ele>231.6</ele>
        <time>2022-07-11T14:21:58Z</time>
      </trkpt>
      <trkpt lat="46.55889" lon="5.3961">
        <ele>231.8</ele>
        <time>2022-07-11T14:22:00Z</time>
      </trkpt>
      <trkpt lat="46.55876" lon="5.39671">
        <ele>232.2</ele>
        <time>2022-07-11T14:22:07Z</time>
      </trkpt>
      <trkpt lat="46.55856" lon="5.39746">
        <ele>232.6</ele>
        <time>2022-07-11T14:22:16Z</time>
      </trkpt>
      <trkpt lat="46.55851" lon="5.39762">
        <ele>232.6</ele>
        <time>2022-07-11T14:22:18Z</time>
      </trkpt>
      <trkpt lat="46.55837" lon="5.39816">
        <ele>233.6</ele>
        <time>2022-07-11T14:22:25Z</time>
      </trkpt>
      <trkpt lat="46.55836" lon="5.39824">
        <ele>233.8</ele>
        <time>2022-07-11T14:22:26Z</time>
      </trkpt>
      <trkpt lat="46.55827" lon="5.39861">
        <ele>234.2</ele>
        <time>2022-07-11T14:22:30Z</time>
      </trkpt>
      <trkpt lat="46.55813" lon="5.39906">
        <ele>234</ele>
        <time>2022-07-11T14:22:35Z</time>
      </trkpt>
      <trkpt lat="46.55809" lon="5.39912">
        <ele>234</ele>
        <time>2022-07-11T14:22:36Z</time>
      </trkpt>
      <trkpt lat="46.55798" lon="5.39913">
        <ele>234</ele>
        <time>2022-07-11T14:22:37Z</time>
      </trkpt>
      <trkpt lat="46.55798" lon="5.39913">
        <ele>233.8</ele>
        <time>2022-07-11T14:22:38Z</time>
      </trkpt>
      <trkpt lat="46.55792" lon="5.39909">
        <ele>233.8</ele>
        <time>2022-07-11T14:22:39Z</time>
      </trkpt>
      <trkpt lat="46.55775" lon="5.39894">
        <ele>233.8</ele>
        <time>2022-07-11T14:22:42Z</time>
      </trkpt>
      <trkpt lat="46.55733" lon="5.39859">
        <ele>234.2</ele>
        <time>2022-07-11T14:22:49Z</time>
      </trkpt>
      <trkpt lat="46.55706" lon="5.39833">
        <ele>235.4</ele>
        <time>2022-07-11T14:22:54Z</time>
      </trkpt>
      <trkpt lat="46.55684" lon="5.39813">
        <ele>236.8</ele>
        <time>2022-07-11T14:22:58Z</time>
      </trkpt>
      <trkpt lat="46.55655" lon="5.39791">
        <ele>237.8</ele>
        <time>2022-07-11T14:23:03Z</time>
      </trkpt>
      <trkpt lat="46.55628" lon="5.39773">
        <ele>237.8</ele>
        <time>2022-07-11T14:23:07Z</time>
      </trkpt>
      <trkpt lat="46.55584" lon="5.3974">
        <ele>237</ele>
        <time>2022-07-11T14:23:13Z</time>
      </trkpt>
      <trkpt lat="46.55563" lon="5.39722">
        <ele>236.6</ele>
        <time>2022-07-11T14:23:16Z</time>
      </trkpt>
      <trkpt lat="46.55524" lon="5.39688">
        <ele>236.6</ele>
        <time>2022-07-11T14:23:22Z</time>
      </trkpt>
      <trkpt lat="46.55466" lon="5.39642">
        <ele>237</ele>
        <time>2022-07-11T14:23:30Z</time>
      </trkpt>
      <trkpt lat="46.55423" lon="5.39605">
        <ele>237.8</ele>
        <time>2022-07-11T14:23:38Z</time>
      </trkpt>
      <trkpt lat="46.554" lon="5.39584">
        <ele>238.4</ele>
        <time>2022-07-11T14:23:42Z</time>
      </trkpt>
      <trkpt lat="46.55377" lon="5.39565">
        <ele>239</ele>
        <time>2022-07-11T14:23:45Z</time>
      </trkpt>
      <trkpt lat="46.55358" lon="5.3955">
        <ele>239.6</ele>
        <time>2022-07-11T14:23:49Z</time>
      </trkpt>
      <trkpt lat="46.55339" lon="5.39534">
        <ele>240</ele>
        <time>2022-07-11T14:23:52Z</time>
      </trkpt>
      <trkpt lat="46.5528" lon="5.39491">
        <ele>241</ele>
        <time>2022-07-11T14:24:00Z</time>
      </trkpt>
      <trkpt lat="46.55239" lon="5.39454">
        <ele>240.4</ele>
        <time>2022-07-11T14:24:06Z</time>
      </trkpt>
      <trkpt lat="46.55233" lon="5.39446">
        <ele>240.6</ele>
        <time>2022-07-11T14:24:07Z</time>
      </trkpt>
      <trkpt lat="46.55228" lon="5.39438">
        <ele>240.6</ele>
        <time>2022-07-11T14:24:08Z</time>
      </trkpt>
      <trkpt lat="46.55214" lon="5.39426">
        <ele>240.2</ele>
        <time>2022-07-11T14:24:10Z</time>
      </trkpt>
      <trkpt lat="46.55197" lon="5.39423">
        <ele>240.2</ele>
        <time>2022-07-11T14:24:12Z</time>
      </trkpt>
      <trkpt lat="46.5519" lon="5.39422">
        <ele>240.2</ele>
        <time>2022-07-11T14:24:13Z</time>
      </trkpt>
      <trkpt lat="46.55144" lon="5.39413">
        <ele>240</ele>
        <time>2022-07-11T14:24:19Z</time>
      </trkpt>
      <trkpt lat="46.55086" lon="5.39386">
        <ele>240.4</ele>
        <time>2022-07-11T14:24:27Z</time>
      </trkpt>
      <trkpt lat="46.55071" lon="5.39379">
        <ele>240.4</ele>
        <time>2022-07-11T14:24:29Z</time>
      </trkpt>
      <trkpt lat="46.55019" lon="5.39348">
        <ele>239.6</ele>
        <time>2022-07-11T14:24:35Z</time>
      </trkpt>
      <trkpt lat="46.55" lon="5.39336">
        <ele>239</ele>
        <time>2022-07-11T14:24:37Z</time>
      </trkpt>
      <trkpt lat="46.54968" lon="5.3932">
        <ele>238.2</ele>
        <time>2022-07-11T14:24:40Z</time>
      </trkpt>
      <trkpt lat="46.54957" lon="5.39315">
        <ele>237.8</ele>
        <time>2022-07-11T14:24:41Z</time>
      </trkpt>
      <trkpt lat="46.54937" lon="5.39308">
        <ele>236.6</ele>
        <time>2022-07-11T14:24:43Z</time>
      </trkpt>
      <trkpt lat="46.54917" lon="5.39301">
        <ele>236</ele>
        <time>2022-07-11T14:24:45Z</time>
      </trkpt>
      <trkpt lat="46.54889" lon="5.39293">
        <ele>235.8</ele>
        <time>2022-07-11T14:24:48Z</time>
      </trkpt>
      <trkpt lat="46.54862" lon="5.39283">
        <ele>236.4</ele>
        <time>2022-07-11T14:24:51Z</time>
      </trkpt>
      <trkpt lat="46.54836" lon="5.39271">
        <ele>237.6</ele>
        <time>2022-07-11T14:24:54Z</time>
      </trkpt>
      <trkpt lat="46.5481" lon="5.39259">
        <ele>239.2</ele>
        <time>2022-07-11T14:24:57Z</time>
      </trkpt>
      <trkpt lat="46.54801" lon="5.39254">
        <ele>239.8</ele>
        <time>2022-07-11T14:24:58Z</time>
      </trkpt>
      <trkpt lat="46.54784" lon="5.39245">
        <ele>240.4</ele>
        <time>2022-07-11T14:25:00Z</time>
      </trkpt>
      <trkpt lat="46.54747" lon="5.39227">
        <ele>241.8</ele>
        <time>2022-07-11T14:25:04Z</time>
      </trkpt>
      <trkpt lat="46.54709" lon="5.39208">
        <ele>242.4</ele>
        <time>2022-07-11T14:25:08Z</time>
      </trkpt>
      <trkpt lat="46.547" lon="5.39204">
        <ele>243</ele>
        <time>2022-07-11T14:25:09Z</time>
      </trkpt>
      <trkpt lat="46.54672" lon="5.39191">
        <ele>244.2</ele>
        <time>2022-07-11T14:25:12Z</time>
      </trkpt>
      <trkpt lat="46.54616" lon="5.39165">
        <ele>245.2</ele>
        <time>2022-07-11T14:25:18Z</time>
      </trkpt>
      <trkpt lat="46.5456" lon="5.39137">
        <ele>245</ele>
        <time>2022-07-11T14:25:24Z</time>
      </trkpt>
      <trkpt lat="46.54544" lon="5.39128">
        <ele>245</ele>
        <time>2022-07-11T14:25:26Z</time>
      </trkpt>
      <trkpt lat="46.54517" lon="5.39112">
        <ele>245.4</ele>
        <time>2022-07-11T14:25:30Z</time>
      </trkpt>
      <trkpt lat="46.54502" lon="5.39117">
        <ele>246.4</ele>
        <time>2022-07-11T14:25:33Z</time>
      </trkpt>
      <trkpt lat="46.545" lon="5.39123">
        <ele>246.4</ele>
        <time>2022-07-11T14:25:34Z</time>
      </trkpt>
      <trkpt lat="46.54498" lon="5.3913">
        <ele>246.6</ele>
        <time>2022-07-11T14:25:35Z</time>
      </trkpt>
      <trkpt lat="46.54494" lon="5.39142">
        <ele>247</ele>
        <time>2022-07-11T14:25:37Z</time>
      </trkpt>
      <trkpt lat="46.54484" lon="5.39146">
        <ele>247.6</ele>
        <time>2022-07-11T14:25:39Z</time>
      </trkpt>
      <trkpt lat="46.54464" lon="5.39138">
        <ele>248</ele>
        <time>2022-07-11T14:25:42Z</time>
      </trkpt>
      <trkpt lat="46.5443" lon="5.39125">
        <ele>247.6</ele>
        <time>2022-07-11T14:25:46Z</time>
      </trkpt>
      <trkpt lat="46.54411" lon="5.39121">
        <ele>246.4</ele>
        <time>2022-07-11T14:25:48Z</time>
      </trkpt>
      <trkpt lat="46.54382" lon="5.39111">
        <ele>245</ele>
        <time>2022-07-11T14:25:51Z</time>
      </trkpt>
      <trkpt lat="46.54362" lon="5.39103">
        <ele>244</ele>
        <time>2022-07-11T14:25:53Z</time>
      </trkpt>
      <trkpt lat="46.54333" lon="5.39092">
        <ele>243</ele>
        <time>2022-07-11T14:25:56Z</time>
      </trkpt>
      <trkpt lat="46.54324" lon="5.39088">
        <ele>242.8</ele>
        <time>2022-07-11T14:25:57Z</time>
      </trkpt>
      <trkpt lat="46.54271" lon="5.3906">
        <ele>242.2</ele>
        <time>2022-07-11T14:26:03Z</time>
      </trkpt>
      <trkpt lat="46.54263" lon="5.39055">
        <ele>242.4</ele>
        <time>2022-07-11T14:26:04Z</time>
      </trkpt>
      <trkpt lat="46.54239" lon="5.39042">
        <ele>242</ele>
        <time>2022-07-11T14:26:08Z</time>
      </trkpt>
      <trkpt lat="46.54214" lon="5.39029">
        <ele>242</ele>
        <time>2022-07-11T14:26:10Z</time>
      </trkpt>
      <trkpt lat="46.54153" lon="5.39003">
        <ele>241.6</ele>
        <time>2022-07-11T14:26:18Z</time>
      </trkpt>
      <trkpt lat="46.54145" lon="5.39">
        <ele>241.6</ele>
        <time>2022-07-11T14:26:19Z</time>
      </trkpt>
      <trkpt lat="46.5409" lon="5.3898">
        <ele>242.6</ele>
        <time>2022-07-11T14:26:26Z</time>
      </trkpt>
      <trkpt lat="46.54058" lon="5.38966">
        <ele>242.8</ele>
        <time>2022-07-11T14:26:30Z</time>
      </trkpt>
      <trkpt lat="46.5401" lon="5.3895">
        <ele>243</ele>
        <time>2022-07-11T14:26:36Z</time>
      </trkpt>
      <trkpt lat="46.53953" lon="5.38938">
        <ele>243.8</ele>
        <time>2022-07-11T14:26:43Z</time>
      </trkpt>
      <trkpt lat="46.53904" lon="5.38933">
        <ele>244</ele>
        <time>2022-07-11T14:26:49Z</time>
      </trkpt>
      <trkpt lat="46.53896" lon="5.38933">
        <ele>244.2</ele>
        <time>2022-07-11T14:26:50Z</time>
      </trkpt>
      <trkpt lat="46.53848" lon="5.38928">
        <ele>244.6</ele>
        <time>2022-07-11T14:26:56Z</time>
      </trkpt>
      <trkpt lat="46.53841" lon="5.38925">
        <ele>244.8</ele>
        <time>2022-07-11T14:26:57Z</time>
      </trkpt>
      <trkpt lat="46.53784" lon="5.38904">
        <ele>245.2</ele>
        <time>2022-07-11T14:27:04Z</time>
      </trkpt>
      <trkpt lat="46.53776" lon="5.38901">
        <ele>245.2</ele>
        <time>2022-07-11T14:27:05Z</time>
      </trkpt>
      <trkpt lat="46.5372" lon="5.38881">
        <ele>245.4</ele>
        <time>2022-07-11T14:27:12Z</time>
      </trkpt>
      <trkpt lat="46.53704" lon="5.38875">
        <ele>245.4</ele>
        <time>2022-07-11T14:27:14Z</time>
      </trkpt>
      <trkpt lat="46.53652" lon="5.38852">
        <ele>245.8</ele>
        <time>2022-07-11T14:27:21Z</time>
      </trkpt>
      <trkpt lat="46.53596" lon="5.3882">
        <ele>246.2</ele>
        <time>2022-07-11T14:27:29Z</time>
      </trkpt>
      <trkpt lat="46.53589" lon="5.38816">
        <ele>246.2</ele>
        <time>2022-07-11T14:27:30Z</time>
      </trkpt>
      <trkpt lat="46.53562" lon="5.38798">
        <ele>246.2</ele>
        <time>2022-07-11T14:27:34Z</time>
      </trkpt>
      <trkpt lat="46.53555" lon="5.38791">
        <ele>246.2</ele>
        <time>2022-07-11T14:27:35Z</time>
      </trkpt>
      <trkpt lat="46.5355" lon="5.38783">
        <ele>246.2</ele>
        <time>2022-07-11T14:27:36Z</time>
      </trkpt>
      <trkpt lat="46.53534" lon="5.38756">
        <ele>245.8</ele>
        <time>2022-07-11T14:27:39Z</time>
      </trkpt>
      <trkpt lat="46.53528" lon="5.38749">
        <ele>245.8</ele>
        <time>2022-07-11T14:27:40Z</time>
      </trkpt>
      <trkpt lat="46.5352" lon="5.38744">
        <ele>245.4</ele>
        <time>2022-07-11T14:27:41Z</time>
      </trkpt>
      <trkpt lat="46.53505" lon="5.38743">
        <ele>245</ele>
        <time>2022-07-11T14:27:43Z</time>
      </trkpt>
      <trkpt lat="46.5349" lon="5.38742">
        <ele>244.8</ele>
        <time>2022-07-11T14:27:45Z</time>
      </trkpt>
      <trkpt lat="46.53484" lon="5.38737">
        <ele>244.6</ele>
        <time>2022-07-11T14:27:46Z</time>
      </trkpt>
      <trkpt lat="46.53472" lon="5.38723">
        <ele>244.4</ele>
        <time>2022-07-11T14:27:48Z</time>
      </trkpt>
      <trkpt lat="46.53465" lon="5.38717">
        <ele>244.4</ele>
        <time>2022-07-11T14:27:49Z</time>
      </trkpt>
      <trkpt lat="46.53458" lon="5.38713">
        <ele>244.2</ele>
        <time>2022-07-11T14:27:50Z</time>
      </trkpt>
      <trkpt lat="46.53449" lon="5.3871">
        <ele>244</ele>
        <time>2022-07-11T14:27:51Z</time>
      </trkpt>
      <trkpt lat="46.53441" lon="5.38708">
        <ele>244</ele>
        <time>2022-07-11T14:27:52Z</time>
      </trkpt>
      <trkpt lat="46.53416" lon="5.38701">
        <ele>244</ele>
        <time>2022-07-11T14:27:55Z</time>
      </trkpt>
      <trkpt lat="46.53391" lon="5.387">
        <ele>244</ele>
        <time>2022-07-11T14:27:58Z</time>
      </trkpt>
      <trkpt lat="46.5333" lon="5.38695">
        <ele>244</ele>
        <time>2022-07-11T14:28:05Z</time>
      </trkpt>
      <trkpt lat="46.53321" lon="5.38693">
        <ele>244</ele>
        <time>2022-07-11T14:28:06Z</time>
      </trkpt>
      <trkpt lat="46.53261" lon="5.38671">
        <ele>243.4</ele>
        <time>2022-07-11T14:28:13Z</time>
      </trkpt>
      <trkpt lat="46.53253" lon="5.38667">
        <ele>243</ele>
        <time>2022-07-11T14:28:14Z</time>
      </trkpt>
      <trkpt lat="46.53218" lon="5.38652">
        <ele>242.2</ele>
        <time>2022-07-11T14:28:18Z</time>
      </trkpt>
      <trkpt lat="46.53203" lon="5.38641">
        <ele>242</ele>
        <time>2022-07-11T14:28:20Z</time>
      </trkpt>
      <trkpt lat="46.53174" lon="5.38609">
        <ele>241</ele>
        <time>2022-07-11T14:28:24Z</time>
      </trkpt>
      <trkpt lat="46.53165" lon="5.38602">
        <ele>240.8</ele>
        <time>2022-07-11T14:28:25Z</time>
      </trkpt>
      <trkpt lat="46.53149" lon="5.38591">
        <ele>240.2</ele>
        <time>2022-07-11T14:28:27Z</time>
      </trkpt>
      <trkpt lat="46.53135" lon="5.38584">
        <ele>239.8</ele>
        <time>2022-07-11T14:28:29Z</time>
      </trkpt>
      <trkpt lat="46.5313" lon="5.3858">
        <ele>239.4</ele>
        <time>2022-07-11T14:28:30Z</time>
      </trkpt>
      <trkpt lat="46.53123" lon="5.38578">
        <ele>238.8</ele>
        <time>2022-07-11T14:28:31Z</time>
      </trkpt>
      <trkpt lat="46.53117" lon="5.38578">
        <ele>238.6</ele>
        <time>2022-07-11T14:28:32Z</time>
      </trkpt>
      <trkpt lat="46.53109" lon="5.38579">
        <ele>238</ele>
        <time>2022-07-11T14:28:33Z</time>
      </trkpt>
      <trkpt lat="46.53085" lon="5.38586">
        <ele>236.8</ele>
        <time>2022-07-11T14:28:36Z</time>
      </trkpt>
      <trkpt lat="46.53031" lon="5.38602">
        <ele>235.8</ele>
        <time>2022-07-11T14:28:42Z</time>
      </trkpt>
      <trkpt lat="46.53021" lon="5.38604">
        <ele>235.8</ele>
        <time>2022-07-11T14:28:43Z</time>
      </trkpt>
      <trkpt lat="46.52993" lon="5.38607">
        <ele>235.6</ele>
        <time>2022-07-11T14:28:46Z</time>
      </trkpt>
      <trkpt lat="46.52975" lon="5.38603">
        <ele>235.2</ele>
        <time>2022-07-11T14:28:48Z</time>
      </trkpt>
      <trkpt lat="46.52965" lon="5.386">
        <ele>234.8</ele>
        <time>2022-07-11T14:28:49Z</time>
      </trkpt>
      <trkpt lat="46.52946" lon="5.386">
        <ele>234.4</ele>
        <time>2022-07-11T14:28:51Z</time>
      </trkpt>
      <trkpt lat="46.52937" lon="5.38601">
        <ele>234.2</ele>
        <time>2022-07-11T14:28:52Z</time>
      </trkpt>
      <trkpt lat="46.52928" lon="5.38602">
        <ele>234</ele>
        <time>2022-07-11T14:28:53Z</time>
      </trkpt>
      <trkpt lat="46.5292" lon="5.38601">
        <ele>233.6</ele>
        <time>2022-07-11T14:28:54Z</time>
      </trkpt>
      <trkpt lat="46.52911" lon="5.38602">
        <ele>233.4</ele>
        <time>2022-07-11T14:28:55Z</time>
      </trkpt>
      <trkpt lat="46.52895" lon="5.38607">
        <ele>232.2</ele>
        <time>2022-07-11T14:28:57Z</time>
      </trkpt>
      <trkpt lat="46.52876" lon="5.38605">
        <ele>230.8</ele>
        <time>2022-07-11T14:28:59Z</time>
      </trkpt>
      <trkpt lat="46.52856" lon="5.38602">
        <ele>229.8</ele>
        <time>2022-07-11T14:29:01Z</time>
      </trkpt>
      <trkpt lat="46.52828" lon="5.38595">
        <ele>228.8</ele>
        <time>2022-07-11T14:29:04Z</time>
      </trkpt>
      <trkpt lat="46.52819" lon="5.38591">
        <ele>228.2</ele>
        <time>2022-07-11T14:29:05Z</time>
      </trkpt>
      <trkpt lat="46.52802" lon="5.38578">
        <ele>227.6</ele>
        <time>2022-07-11T14:29:07Z</time>
      </trkpt>
      <trkpt lat="46.52796" lon="5.38568">
        <ele>227.2</ele>
        <time>2022-07-11T14:29:08Z</time>
      </trkpt>
      <trkpt lat="46.52791" lon="5.38558">
        <ele>227</ele>
        <time>2022-07-11T14:29:09Z</time>
      </trkpt>
      <trkpt lat="46.52786" lon="5.38547">
        <ele>226.8</ele>
        <time>2022-07-11T14:29:10Z</time>
      </trkpt>
      <trkpt lat="46.52781" lon="5.38537">
        <ele>226.8</ele>
        <time>2022-07-11T14:29:11Z</time>
      </trkpt>
      <trkpt lat="46.52775" lon="5.3853">
        <ele>226.6</ele>
        <time>2022-07-11T14:29:12Z</time>
      </trkpt>
      <trkpt lat="46.52768" lon="5.38527">
        <ele>226.4</ele>
        <time>2022-07-11T14:29:13Z</time>
      </trkpt>
      <trkpt lat="46.52751" lon="5.38527">
        <ele>226.4</ele>
        <time>2022-07-11T14:29:15Z</time>
      </trkpt>
      <trkpt lat="46.52736" lon="5.38531">
        <ele>226.4</ele>
        <time>2022-07-11T14:29:17Z</time>
      </trkpt>
      <trkpt lat="46.5272" lon="5.38526">
        <ele>226.4</ele>
        <time>2022-07-11T14:29:19Z</time>
      </trkpt>
      <trkpt lat="46.52696" lon="5.38513">
        <ele>227</ele>
        <time>2022-07-11T14:29:22Z</time>
      </trkpt>
      <trkpt lat="46.5268" lon="5.3851">
        <ele>227.2</ele>
        <time>2022-07-11T14:29:24Z</time>
      </trkpt>
      <trkpt lat="46.52624" lon="5.38503">
        <ele>227.8</ele>
        <time>2022-07-11T14:29:31Z</time>
      </trkpt>
      <trkpt lat="46.52609" lon="5.385">
        <ele>228</ele>
        <time>2022-07-11T14:29:33Z</time>
      </trkpt>
      <trkpt lat="46.52575" lon="5.38492">
        <ele>228.2</ele>
        <time>2022-07-11T14:29:38Z</time>
      </trkpt>
      <trkpt lat="46.52568" lon="5.38489">
        <ele>228.4</ele>
        <time>2022-07-11T14:29:39Z</time>
      </trkpt>
      <trkpt lat="46.52545" lon="5.38472">
        <ele>229</ele>
        <time>2022-07-11T14:29:43Z</time>
      </trkpt>
      <trkpt lat="46.5254" lon="5.38466">
        <ele>229</ele>
        <time>2022-07-11T14:29:44Z</time>
      </trkpt>
      <trkpt lat="46.52536" lon="5.38459">
        <ele>229.6</ele>
        <time>2022-07-11T14:29:45Z</time>
      </trkpt>
      <trkpt lat="46.52529" lon="5.38444">
        <ele>230</ele>
        <time>2022-07-11T14:29:47Z</time>
      </trkpt>
      <trkpt lat="46.52527" lon="5.38435">
        <ele>230.2</ele>
        <time>2022-07-11T14:29:48Z</time>
      </trkpt>
      <trkpt lat="46.52525" lon="5.38417">
        <ele>230.2</ele>
        <time>2022-07-11T14:29:50Z</time>
      </trkpt>
      <trkpt lat="46.52525" lon="5.3839">
        <ele>230.4</ele>
        <time>2022-07-11T14:29:53Z</time>
      </trkpt>
      <trkpt lat="46.52525" lon="5.3838">
        <ele>230.4</ele>
        <time>2022-07-11T14:29:54Z</time>
      </trkpt>
      <trkpt lat="46.52523" lon="5.38348">
        <ele>230.2</ele>
        <time>2022-07-11T14:29:57Z</time>
      </trkpt>
      <trkpt lat="46.52515" lon="5.38273">
        <ele>229.6</ele>
        <time>2022-07-11T14:30:03Z</time>
      </trkpt>
      <trkpt lat="46.52515" lon="5.3826">
        <ele>229.4</ele>
        <time>2022-07-11T14:30:04Z</time>
      </trkpt>
      <trkpt lat="46.52518" lon="5.38234">
        <ele>228.6</ele>
        <time>2022-07-11T14:30:06Z</time>
      </trkpt>
      <trkpt lat="46.5252" lon="5.38221">
        <ele>228.2</ele>
        <time>2022-07-11T14:30:07Z</time>
      </trkpt>
      <trkpt lat="46.52534" lon="5.3817">
        <ele>227.2</ele>
        <time>2022-07-11T14:30:11Z</time>
      </trkpt>
      <trkpt lat="46.52543" lon="5.38131">
        <ele>226</ele>
        <time>2022-07-11T14:30:14Z</time>
      </trkpt>
      <trkpt lat="46.52545" lon="5.38118">
        <ele>226</ele>
        <time>2022-07-11T14:30:15Z</time>
      </trkpt>
      <trkpt lat="46.52547" lon="5.38092">
        <ele>225.8</ele>
        <time>2022-07-11T14:30:17Z</time>
      </trkpt>
      <trkpt lat="46.52546" lon="5.38067">
        <ele>225.4</ele>
        <time>2022-07-11T14:30:19Z</time>
      </trkpt>
      <trkpt lat="46.52544" lon="5.38041">
        <ele>225</ele>
        <time>2022-07-11T14:30:21Z</time>
      </trkpt>
      <trkpt lat="46.52537" lon="5.38005">
        <ele>224.6</ele>
        <time>2022-07-11T14:30:24Z</time>
      </trkpt>
      <trkpt lat="46.52524" lon="5.37959">
        <ele>224</ele>
        <time>2022-07-11T14:30:28Z</time>
      </trkpt>
      <trkpt lat="46.52521" lon="5.37947">
        <ele>223.8</ele>
        <time>2022-07-11T14:30:29Z</time>
      </trkpt>
      <trkpt lat="46.52522" lon="5.37897">
        <ele>223</ele>
        <time>2022-07-11T14:30:33Z</time>
      </trkpt>
      <trkpt lat="46.52523" lon="5.37873">
        <ele>222.8</ele>
        <time>2022-07-11T14:30:35Z</time>
      </trkpt>
      <trkpt lat="46.52529" lon="5.37789">
        <ele>222</ele>
        <time>2022-07-11T14:30:42Z</time>
      </trkpt>
      <trkpt lat="46.52529" lon="5.37777">
        <ele>222</ele>
        <time>2022-07-11T14:30:43Z</time>
      </trkpt>
      <trkpt lat="46.52535" lon="5.37695">
        <ele>222</ele>
        <time>2022-07-11T14:30:50Z</time>
      </trkpt>
      <trkpt lat="46.52536" lon="5.37672">
        <ele>222</ele>
        <time>2022-07-11T14:30:52Z</time>
      </trkpt>
      <trkpt lat="46.52541" lon="5.37615">
        <ele>222</ele>
        <time>2022-07-11T14:30:57Z</time>
      </trkpt>
      <trkpt lat="46.52545" lon="5.37583">
        <ele>221.8</ele>
        <time>2022-07-11T14:31:00Z</time>
      </trkpt>
      <trkpt lat="46.52553" lon="5.37497">
        <ele>221.4</ele>
        <time>2022-07-11T14:31:08Z</time>
      </trkpt>
      <trkpt lat="46.52554" lon="5.37486">
        <ele>221.2</ele>
        <time>2022-07-11T14:31:09Z</time>
      </trkpt>
      <trkpt lat="46.52559" lon="5.37423">
        <ele>221.2</ele>
        <time>2022-07-11T14:31:15Z</time>
      </trkpt>
      <trkpt lat="46.52564" lon="5.37336">
        <ele>220.8</ele>
        <time>2022-07-11T14:31:23Z</time>
      </trkpt>
      <trkpt lat="46.52564" lon="5.37304">
        <ele>220.4</ele>
        <time>2022-07-11T14:31:26Z</time>
      </trkpt>
      <trkpt lat="46.52561" lon="5.37272">
        <ele>220.2</ele>
        <time>2022-07-11T14:31:29Z</time>
      </trkpt>
      <trkpt lat="46.52559" lon="5.37261">
        <ele>220.2</ele>
        <time>2022-07-11T14:31:30Z</time>
      </trkpt>
      <trkpt lat="46.52554" lon="5.3724">
        <ele>220</ele>
        <time>2022-07-11T14:31:32Z</time>
      </trkpt>
      <trkpt lat="46.52542" lon="5.37212">
        <ele>219.8</ele>
        <time>2022-07-11T14:31:35Z</time>
      </trkpt>
      <trkpt lat="46.52537" lon="5.37204">
        <ele>219.6</ele>
        <time>2022-07-11T14:31:36Z</time>
      </trkpt>
      <trkpt lat="46.5252" lon="5.37182">
        <ele>219.4</ele>
        <time>2022-07-11T14:31:39Z</time>
      </trkpt>
      <trkpt lat="46.52478" lon="5.37132">
        <ele>219</ele>
        <time>2022-07-11T14:31:46Z</time>
      </trkpt>
      <trkpt lat="46.52473" lon="5.37124">
        <ele>219</ele>
        <time>2022-07-11T14:31:47Z</time>
      </trkpt>
      <trkpt lat="46.52451" lon="5.3708">
        <ele>218.8</ele>
        <time>2022-07-11T14:31:52Z</time>
      </trkpt>
      <trkpt lat="46.52448" lon="5.37071">
        <ele>218.8</ele>
        <time>2022-07-11T14:31:53Z</time>
      </trkpt>
      <trkpt lat="46.52444" lon="5.3706">
        <ele>218.6</ele>
        <time>2022-07-11T14:31:54Z</time>
      </trkpt>
      <trkpt lat="46.52439" lon="5.37033">
        <ele>218.6</ele>
        <time>2022-07-11T14:31:57Z</time>
      </trkpt>
      <trkpt lat="46.52435" lon="5.37023">
        <ele>218.6</ele>
        <time>2022-07-11T14:31:58Z</time>
      </trkpt>
      <trkpt lat="46.52432" lon="5.37019">
        <ele>218.4</ele>
        <time>2022-07-11T14:31:59Z</time>
      </trkpt>
      <trkpt lat="46.52427" lon="5.37016">
        <ele>218.4</ele>
        <time>2022-07-11T14:32:00Z</time>
      </trkpt>
      <trkpt lat="46.52422" lon="5.37018">
        <ele>218.2</ele>
        <time>2022-07-11T14:32:01Z</time>
      </trkpt>
      <trkpt lat="46.5241" lon="5.37038">
        <ele>218</ele>
        <time>2022-07-11T14:32:04Z</time>
      </trkpt>
      <trkpt lat="46.5238" lon="5.37082">
        <ele>218</ele>
        <time>2022-07-11T14:32:10Z</time>
      </trkpt>
      <trkpt lat="46.52342" lon="5.37119">
        <ele>218.2</ele>
        <time>2022-07-11T14:32:17Z</time>
      </trkpt>
      <trkpt lat="46.52307" lon="5.37156">
        <ele>219.8</ele>
        <time>2022-07-11T14:32:24Z</time>
      </trkpt>
      <trkpt lat="46.52304" lon="5.3716">
        <ele>220</ele>
        <time>2022-07-11T14:32:25Z</time>
      </trkpt>
      <trkpt lat="46.52286" lon="5.3718">
        <ele>221</ele>
        <time>2022-07-11T14:32:29Z</time>
      </trkpt>
      <trkpt lat="46.52269" lon="5.37199">
        <ele>222</ele>
        <time>2022-07-11T14:32:33Z</time>
      </trkpt>
      <trkpt lat="46.52265" lon="5.37202">
        <ele>222.2</ele>
        <time>2022-07-11T14:32:34Z</time>
      </trkpt>
      <trkpt lat="46.52249" lon="5.3722">
        <ele>223.2</ele>
        <time>2022-07-11T14:32:38Z</time>
      </trkpt>
      <trkpt lat="46.52234" lon="5.37234">
        <ele>224</ele>
        <time>2022-07-11T14:32:42Z</time>
      </trkpt>
      <trkpt lat="46.5223" lon="5.37237">
        <ele>224.2</ele>
        <time>2022-07-11T14:32:43Z</time>
      </trkpt>
      <trkpt lat="46.5221" lon="5.37255">
        <ele>225.6</ele>
        <time>2022-07-11T14:32:48Z</time>
      </trkpt>
      <trkpt lat="46.52196" lon="5.37266">
        <ele>226.6</ele>
        <time>2022-07-11T14:32:51Z</time>
      </trkpt>
      <trkpt lat="46.52192" lon="5.37269">
        <ele>226.6</ele>
        <time>2022-07-11T14:32:52Z</time>
      </trkpt>
      <trkpt lat="46.52184" lon="5.37274">
        <ele>226.8</ele>
        <time>2022-07-11T14:32:54Z</time>
      </trkpt>
      <trkpt lat="46.52176" lon="5.37281">
        <ele>227</ele>
        <time>2022-07-11T14:32:56Z</time>
      </trkpt>
      <trkpt lat="46.52171" lon="5.37285">
        <ele>227.6</ele>
        <time>2022-07-11T14:32:57Z</time>
      </trkpt>
      <trkpt lat="46.52167" lon="5.37286">
        <ele>227.8</ele>
        <time>2022-07-11T14:32:58Z</time>
      </trkpt>
      <trkpt lat="46.52158" lon="5.37292">
        <ele>228</ele>
        <time>2022-07-11T14:33:00Z</time>
      </trkpt>
      <trkpt lat="46.52155" lon="5.37294">
        <ele>228.6</ele>
        <time>2022-07-11T14:33:01Z</time>
      </trkpt>
      <trkpt lat="46.52151" lon="5.37296">
        <ele>228.8</ele>
        <time>2022-07-11T14:33:02Z</time>
      </trkpt>
      <trkpt lat="46.52131" lon="5.3731">
        <ele>230</ele>
        <time>2022-07-11T14:33:07Z</time>
      </trkpt>
      <trkpt lat="46.52118" lon="5.3732">
        <ele>230.6</ele>
        <time>2022-07-11T14:33:10Z</time>
      </trkpt>
      <trkpt lat="46.52105" lon="5.37328">
        <ele>231</ele>
        <time>2022-07-11T14:33:13Z</time>
      </trkpt>
      <trkpt lat="46.52088" lon="5.37344">
        <ele>231.8</ele>
        <time>2022-07-11T14:33:18Z</time>
      </trkpt>
      <trkpt lat="46.52086" lon="5.37349">
        <ele>232</ele>
        <time>2022-07-11T14:33:19Z</time>
      </trkpt>
      <trkpt lat="46.52084" lon="5.37354">
        <ele>232.6</ele>
        <time>2022-07-11T14:33:20Z</time>
      </trkpt>
      <trkpt lat="46.5208" lon="5.37366">
        <ele>233</ele>
        <time>2022-07-11T14:33:22Z</time>
      </trkpt>
      <trkpt lat="46.52078" lon="5.37372">
        <ele>233.4</ele>
        <time>2022-07-11T14:33:23Z</time>
      </trkpt>
      <trkpt lat="46.52068" lon="5.3742">
        <ele>234.4</ele>
        <time>2022-07-11T14:33:30Z</time>
      </trkpt>
      <trkpt lat="46.52057" lon="5.37467">
        <ele>234.8</ele>
        <time>2022-07-11T14:33:36Z</time>
      </trkpt>
      <trkpt lat="46.52043" lon="5.37529">
        <ele>235.2</ele>
        <time>2022-07-11T14:33:43Z</time>
      </trkpt>
      <trkpt lat="46.52033" lon="5.37573">
        <ele>235.4</ele>
        <time>2022-07-11T14:33:48Z</time>
      </trkpt>
      <trkpt lat="46.52027" lon="5.37599">
        <ele>235.6</ele>
        <time>2022-07-11T14:33:51Z</time>
      </trkpt>
      <trkpt lat="46.52025" lon="5.37608">
        <ele>235.6</ele>
        <time>2022-07-11T14:33:52Z</time>
      </trkpt>
      <trkpt lat="46.52017" lon="5.37622">
        <ele>235.6</ele>
        <time>2022-07-11T14:33:54Z</time>
      </trkpt>
      <trkpt lat="46.52006" lon="5.37627">
        <ele>235.6</ele>
        <time>2022-07-11T14:33:56Z</time>
      </trkpt>
      <trkpt lat="46.51999" lon="5.37627">
        <ele>235.6</ele>
        <time>2022-07-11T14:33:57Z</time>
      </trkpt>
      <trkpt lat="46.51952" lon="5.37634">
        <ele>235.6</ele>
        <time>2022-07-11T14:34:04Z</time>
      </trkpt>
      <trkpt lat="46.51895" lon="5.37644">
        <ele>235.8</ele>
        <time>2022-07-11T14:34:12Z</time>
      </trkpt>
      <trkpt lat="46.51834" lon="5.37646">
        <ele>236.4</ele>
        <time>2022-07-11T14:34:21Z</time>
      </trkpt>
      <trkpt lat="46.51827" lon="5.37646">
        <ele>236.4</ele>
        <time>2022-07-11T14:34:22Z</time>
      </trkpt>
      <trkpt lat="46.51788" lon="5.37647">
        <ele>236.6</ele>
        <time>2022-07-11T14:34:27Z</time>
      </trkpt>
      <trkpt lat="46.51746" lon="5.37636">
        <ele>235.8</ele>
        <time>2022-07-11T14:34:32Z</time>
      </trkpt>
      <trkpt lat="46.51729" lon="5.37631">
        <ele>235.4</ele>
        <time>2022-07-11T14:34:34Z</time>
      </trkpt>
      <trkpt lat="46.51703" lon="5.37627">
        <ele>234.8</ele>
        <time>2022-07-11T14:34:37Z</time>
      </trkpt>
      <trkpt lat="46.51686" lon="5.37635">
        <ele>234.4</ele>
        <time>2022-07-11T14:34:39Z</time>
      </trkpt>
      <trkpt lat="46.51678" lon="5.37641">
        <ele>234</ele>
        <time>2022-07-11T14:34:40Z</time>
      </trkpt>
      <trkpt lat="46.51662" lon="5.37653">
        <ele>233.4</ele>
        <time>2022-07-11T14:34:42Z</time>
      </trkpt>
      <trkpt lat="46.51646" lon="5.3766">
        <ele>233.2</ele>
        <time>2022-07-11T14:34:44Z</time>
      </trkpt>
      <trkpt lat="46.51606" lon="5.37676">
        <ele>233</ele>
        <time>2022-07-11T14:34:49Z</time>
      </trkpt>
      <trkpt lat="46.51588" lon="5.37679">
        <ele>233</ele>
        <time>2022-07-11T14:34:51Z</time>
      </trkpt>
      <trkpt lat="46.51546" lon="5.37685">
        <ele>233.2</ele>
        <time>2022-07-11T14:34:57Z</time>
      </trkpt>
      <trkpt lat="46.51497" lon="5.37697">
        <ele>234</ele>
        <time>2022-07-11T14:35:04Z</time>
      </trkpt>
      <trkpt lat="46.5146" lon="5.37705">
        <ele>235</ele>
        <time>2022-07-11T14:35:10Z</time>
      </trkpt>
      <trkpt lat="46.51434" lon="5.37711">
        <ele>235.4</ele>
        <time>2022-07-11T14:35:14Z</time>
      </trkpt>
      <trkpt lat="46.51396" lon="5.37724">
        <ele>236.4</ele>
        <time>2022-07-11T14:35:20Z</time>
      </trkpt>
      <trkpt lat="46.51365" lon="5.37738">
        <ele>237</ele>
        <time>2022-07-11T14:35:25Z</time>
      </trkpt>
      <trkpt lat="46.51341" lon="5.37751">
        <ele>237.6</ele>
        <time>2022-07-11T14:35:29Z</time>
      </trkpt>
      <trkpt lat="46.51301" lon="5.37771">
        <ele>238.6</ele>
        <time>2022-07-11T14:35:36Z</time>
      </trkpt>
      <trkpt lat="46.51271" lon="5.37785">
        <ele>239.6</ele>
        <time>2022-07-11T14:35:41Z</time>
      </trkpt>
      <trkpt lat="46.51247" lon="5.37797">
        <ele>240.2</ele>
        <time>2022-07-11T14:35:45Z</time>
      </trkpt>
      <trkpt lat="46.51235" lon="5.378">
        <ele>240.6</ele>
        <time>2022-07-11T14:35:47Z</time>
      </trkpt>
      <trkpt lat="46.51228" lon="5.37801">
        <ele>240.8</ele>
        <time>2022-07-11T14:35:48Z</time>
      </trkpt>
      <trkpt lat="46.51178" lon="5.37811">
        <ele>241.6</ele>
        <time>2022-07-11T14:35:56Z</time>
      </trkpt>
      <trkpt lat="46.51167" lon="5.37816">
        <ele>241.8</ele>
        <time>2022-07-11T14:35:58Z</time>
      </trkpt>
      <trkpt lat="46.51161" lon="5.3782">
        <ele>242</ele>
        <time>2022-07-11T14:35:59Z</time>
      </trkpt>
      <trkpt lat="46.51145" lon="5.37833">
        <ele>242.6</ele>
        <time>2022-07-11T14:36:02Z</time>
      </trkpt>
      <trkpt lat="46.51133" lon="5.37841">
        <ele>243</ele>
        <time>2022-07-11T14:36:04Z</time>
      </trkpt>
      <trkpt lat="46.51098" lon="5.37861">
        <ele>243.8</ele>
        <time>2022-07-11T14:36:10Z</time>
      </trkpt>
      <trkpt lat="46.51087" lon="5.37866">
        <ele>244.2</ele>
        <time>2022-07-11T14:36:12Z</time>
      </trkpt>
      <trkpt lat="46.51062" lon="5.3787">
        <ele>245.2</ele>
        <time>2022-07-11T14:36:16Z</time>
      </trkpt>
      <trkpt lat="46.51021" lon="5.37874">
        <ele>246.2</ele>
        <time>2022-07-11T14:36:23Z</time>
      </trkpt>
      <trkpt lat="46.51003" lon="5.37877">
        <ele>246.8</ele>
        <time>2022-07-11T14:36:26Z</time>
      </trkpt>
      <trkpt lat="46.50978" lon="5.37881">
        <ele>247.4</ele>
        <time>2022-07-11T14:36:30Z</time>
      </trkpt>
      <trkpt lat="46.50947" lon="5.37889">
        <ele>248</ele>
        <time>2022-07-11T14:36:35Z</time>
      </trkpt>
      <trkpt lat="46.5092" lon="5.37898">
        <ele>248.4</ele>
        <time>2022-07-11T14:36:39Z</time>
      </trkpt>
      <trkpt lat="46.50905" lon="5.379">
        <ele>248.6</ele>
        <time>2022-07-11T14:36:41Z</time>
      </trkpt>
      <trkpt lat="46.5086" lon="5.37898">
        <ele>248.6</ele>
        <time>2022-07-11T14:36:47Z</time>
      </trkpt>
      <trkpt lat="46.50822" lon="5.37893">
        <ele>248.6</ele>
        <time>2022-07-11T14:36:52Z</time>
      </trkpt>
      <trkpt lat="46.50808" lon="5.37884">
        <ele>248.6</ele>
        <time>2022-07-11T14:36:54Z</time>
      </trkpt>
      <trkpt lat="46.50802" lon="5.37877">
        <ele>248.6</ele>
        <time>2022-07-11T14:36:55Z</time>
      </trkpt>
      <trkpt lat="46.50764" lon="5.37821">
        <ele>248.8</ele>
        <time>2022-07-11T14:37:02Z</time>
      </trkpt>
      <trkpt lat="46.5076" lon="5.37811">
        <ele>248.8</ele>
        <time>2022-07-11T14:37:03Z</time>
      </trkpt>
      <trkpt lat="46.50748" lon="5.37768">
        <ele>248.8</ele>
        <time>2022-07-11T14:37:07Z</time>
      </trkpt>
      <trkpt lat="46.50741" lon="5.37701">
        <ele>248</ele>
        <time>2022-07-11T14:37:13Z</time>
      </trkpt>
      <trkpt lat="46.50738" lon="5.37639">
        <ele>247.4</ele>
        <time>2022-07-11T14:37:18Z</time>
      </trkpt>
      <trkpt lat="46.50736" lon="5.37626">
        <ele>247.2</ele>
        <time>2022-07-11T14:37:19Z</time>
      </trkpt>
      <trkpt lat="46.50729" lon="5.37601">
        <ele>246.8</ele>
        <time>2022-07-11T14:37:21Z</time>
      </trkpt>
      <trkpt lat="46.50723" lon="5.37591">
        <ele>246.8</ele>
        <time>2022-07-11T14:37:22Z</time>
      </trkpt>
      <trkpt lat="46.50717" lon="5.37583">
        <ele>245.6</ele>
        <time>2022-07-11T14:37:23Z</time>
      </trkpt>
      <trkpt lat="46.50702" lon="5.37565">
        <ele>244.2</ele>
        <time>2022-07-11T14:37:26Z</time>
      </trkpt>
      <trkpt lat="46.50698" lon="5.37561">
        <ele>244</ele>
        <time>2022-07-11T14:37:27Z</time>
      </trkpt>
      <trkpt lat="46.5069" lon="5.37559">
        <ele>243.2</ele>
        <time>2022-07-11T14:37:29Z</time>
      </trkpt>
      <trkpt lat="46.50681" lon="5.37567">
        <ele>242.6</ele>
        <time>2022-07-11T14:37:31Z</time>
      </trkpt>
      <trkpt lat="46.50677" lon="5.37572">
        <ele>242.4</ele>
        <time>2022-07-11T14:37:32Z</time>
      </trkpt>
      <trkpt lat="46.50652" lon="5.37613">
        <ele>242.2</ele>
        <time>2022-07-11T14:37:38Z</time>
      </trkpt>
      <trkpt lat="46.50621" lon="5.37661">
        <ele>243</ele>
        <time>2022-07-11T14:37:45Z</time>
      </trkpt>
      <trkpt lat="46.50584" lon="5.3772">
        <ele>243.8</ele>
        <time>2022-07-11T14:37:54Z</time>
      </trkpt>
      <trkpt lat="46.50575" lon="5.37733">
        <ele>244.2</ele>
        <time>2022-07-11T14:37:56Z</time>
      </trkpt>
      <trkpt lat="46.50572" lon="5.37737">
        <ele>244.2</ele>
        <time>2022-07-11T14:37:57Z</time>
      </trkpt>
      <trkpt lat="46.5055" lon="5.37771">
        <ele>245.4</ele>
        <time>2022-07-11T14:38:03Z</time>
      </trkpt>
      <trkpt lat="46.50543" lon="5.37781">
        <ele>245.8</ele>
        <time>2022-07-11T14:38:05Z</time>
      </trkpt>
      <trkpt lat="46.50533" lon="5.37796">
        <ele>246.8</ele>
        <time>2022-07-11T14:38:08Z</time>
      </trkpt>
      <trkpt lat="46.50517" lon="5.37821">
        <ele>247.4</ele>
        <time>2022-07-11T14:38:13Z</time>
      </trkpt>
      <trkpt lat="46.5051" lon="5.37832">
        <ele>247.8</ele>
        <time>2022-07-11T14:38:15Z</time>
      </trkpt>
      <trkpt lat="46.50494" lon="5.37856">
        <ele>249</ele>
        <time>2022-07-11T14:38:20Z</time>
      </trkpt>
      <trkpt lat="46.50479" lon="5.3788">
        <ele>249.8</ele>
        <time>2022-07-11T14:38:25Z</time>
      </trkpt>
      <trkpt lat="46.50472" lon="5.3789">
        <ele>250.2</ele>
        <time>2022-07-11T14:38:27Z</time>
      </trkpt>
      <trkpt lat="46.50458" lon="5.37911">
        <ele>251.4</ele>
        <time>2022-07-11T14:38:31Z</time>
      </trkpt>
      <trkpt lat="46.50447" lon="5.37928">
        <ele>251.8</ele>
        <time>2022-07-11T14:38:34Z</time>
      </trkpt>
      <trkpt lat="46.50434" lon="5.37947">
        <ele>252.6</ele>
        <time>2022-07-11T14:38:38Z</time>
      </trkpt>
      <trkpt lat="46.50418" lon="5.37973">
        <ele>254</ele>
        <time>2022-07-11T14:38:43Z</time>
      </trkpt>
      <trkpt lat="46.50408" lon="5.37988">
        <ele>255</ele>
        <time>2022-07-11T14:38:46Z</time>
      </trkpt>
      <trkpt lat="46.50405" lon="5.37993">
        <ele>255</ele>
        <time>2022-07-11T14:38:47Z</time>
      </trkpt>
      <trkpt lat="46.50389" lon="5.38018">
        <ele>256.2</ele>
        <time>2022-07-11T14:38:52Z</time>
      </trkpt>
      <trkpt lat="46.50385" lon="5.38023">
        <ele>256.2</ele>
        <time>2022-07-11T14:38:53Z</time>
      </trkpt>
      <trkpt lat="46.50382" lon="5.38026">
        <ele>256.4</ele>
        <time>2022-07-11T14:38:54Z</time>
      </trkpt>
      <trkpt lat="46.50377" lon="5.38027">
        <ele>256.6</ele>
        <time>2022-07-11T14:38:55Z</time>
      </trkpt>
      <trkpt lat="46.50369" lon="5.38023">
        <ele>257.2</ele>
        <time>2022-07-11T14:38:57Z</time>
      </trkpt>
      <trkpt lat="46.50365" lon="5.38012">
        <ele>257.6</ele>
        <time>2022-07-11T14:38:59Z</time>
      </trkpt>
      <trkpt lat="46.50363" lon="5.38004">
        <ele>257.6</ele>
        <time>2022-07-11T14:39:00Z</time>
      </trkpt>
      <trkpt lat="46.50363" lon="5.37999">
        <ele>257.8</ele>
        <time>2022-07-11T14:39:01Z</time>
      </trkpt>
      <trkpt lat="46.50365" lon="5.37971">
        <ele>258.2</ele>
        <time>2022-07-11T14:39:05Z</time>
      </trkpt>
      <trkpt lat="46.50365" lon="5.37963">
        <ele>258.6</ele>
        <time>2022-07-11T14:39:06Z</time>
      </trkpt>
      <trkpt lat="46.50364" lon="5.37941">
        <ele>258.8</ele>
        <time>2022-07-11T14:39:09Z</time>
      </trkpt>
      <trkpt lat="46.50362" lon="5.37926">
        <ele>259</ele>
        <time>2022-07-11T14:39:11Z</time>
      </trkpt>
      <trkpt lat="46.5036" lon="5.37918">
        <ele>259</ele>
        <time>2022-07-11T14:39:12Z</time>
      </trkpt>
      <trkpt lat="46.50357" lon="5.37908">
        <ele>259</ele>
        <time>2022-07-11T14:39:13Z</time>
      </trkpt>
      <trkpt lat="46.50346" lon="5.37888">
        <ele>259</ele>
        <time>2022-07-11T14:39:16Z</time>
      </trkpt>
      <trkpt lat="46.50315" lon="5.37853">
        <ele>258.8</ele>
        <time>2022-07-11T14:39:22Z</time>
      </trkpt>
      <trkpt lat="46.50274" lon="5.37814">
        <ele>258.4</ele>
        <time>2022-07-11T14:39:29Z</time>
      </trkpt>
      <trkpt lat="46.5023" lon="5.37775">
        <ele>258.4</ele>
        <time>2022-07-11T14:39:36Z</time>
      </trkpt>
      <trkpt lat="46.50199" lon="5.37757">
        <ele>258.6</ele>
        <time>2022-07-11T14:39:40Z</time>
      </trkpt>
      <trkpt lat="46.50159" lon="5.37745">
        <ele>258.4</ele>
        <time>2022-07-11T14:39:45Z</time>
      </trkpt>
      <trkpt lat="46.50116" lon="5.37734">
        <ele>258.4</ele>
        <time>2022-07-11T14:39:51Z</time>
      </trkpt>
      <trkpt lat="46.50067" lon="5.37717">
        <ele>259.4</ele>
        <time>2022-07-11T14:39:58Z</time>
      </trkpt>
      <trkpt lat="46.5006" lon="5.37714">
        <ele>259.6</ele>
        <time>2022-07-11T14:39:59Z</time>
      </trkpt>
      <trkpt lat="46.50004" lon="5.37687">
        <ele>260.2</ele>
        <time>2022-07-11T14:40:07Z</time>
      </trkpt>
      <trkpt lat="46.49948" lon="5.37662">
        <ele>260</ele>
        <time>2022-07-11T14:40:14Z</time>
      </trkpt>
      <trkpt lat="46.49887" lon="5.37641">
        <ele>259.2</ele>
        <time>2022-07-11T14:40:21Z</time>
      </trkpt>
      <trkpt lat="46.49847" lon="5.37626">
        <ele>258.4</ele>
        <time>2022-07-11T14:40:26Z</time>
      </trkpt>
      <trkpt lat="46.49839" lon="5.37622">
        <ele>258.4</ele>
        <time>2022-07-11T14:40:27Z</time>
      </trkpt>
      <trkpt lat="46.49784" lon="5.37589">
        <ele>258.2</ele>
        <time>2022-07-11T14:40:34Z</time>
      </trkpt>
      <trkpt lat="46.49777" lon="5.37585">
        <ele>258.2</ele>
        <time>2022-07-11T14:40:35Z</time>
      </trkpt>
      <trkpt lat="46.49723" lon="5.37551">
        <ele>258.2</ele>
        <time>2022-07-11T14:40:42Z</time>
      </trkpt>
      <trkpt lat="46.4971" lon="5.37543">
        <ele>258.2</ele>
        <time>2022-07-11T14:40:44Z</time>
      </trkpt>
      <trkpt lat="46.49663" lon="5.37522">
        <ele>257.6</ele>
        <time>2022-07-11T14:40:50Z</time>
      </trkpt>
      <trkpt lat="46.49649" lon="5.37515">
        <ele>257.4</ele>
        <time>2022-07-11T14:40:52Z</time>
      </trkpt>
      <trkpt lat="46.49638" lon="5.37509">
        <ele>257.2</ele>
        <time>2022-07-11T14:40:54Z</time>
      </trkpt>
      <trkpt lat="46.49633" lon="5.37505">
        <ele>257.2</ele>
        <time>2022-07-11T14:40:55Z</time>
      </trkpt>
      <trkpt lat="46.49627" lon="5.37501">
        <ele>257.2</ele>
        <time>2022-07-11T14:40:56Z</time>
      </trkpt>
      <trkpt lat="46.49616" lon="5.37501">
        <ele>257.2</ele>
        <time>2022-07-11T14:40:58Z</time>
      </trkpt>
      <trkpt lat="46.4959" lon="5.37521">
        <ele>257.2</ele>
        <time>2022-07-11T14:41:03Z</time>
      </trkpt>
      <trkpt lat="46.49549" lon="5.37557">
        <ele>258.6</ele>
        <time>2022-07-11T14:41:11Z</time>
      </trkpt>
      <trkpt lat="46.49543" lon="5.37563">
        <ele>258.8</ele>
        <time>2022-07-11T14:41:12Z</time>
      </trkpt>
      <trkpt lat="46.49528" lon="5.37575">
        <ele>259.6</ele>
        <time>2022-07-11T14:41:15Z</time>
      </trkpt>
      <trkpt lat="46.49502" lon="5.37598">
        <ele>260.8</ele>
        <time>2022-07-11T14:41:20Z</time>
      </trkpt>
      <trkpt lat="46.49471" lon="5.37624">
        <ele>261.8</ele>
        <time>2022-07-11T14:41:26Z</time>
      </trkpt>
      <trkpt lat="46.49462" lon="5.37631">
        <ele>262.2</ele>
        <time>2022-07-11T14:41:28Z</time>
      </trkpt>
      <trkpt lat="46.49444" lon="5.37646">
        <ele>262.8</ele>
        <time>2022-07-11T14:41:32Z</time>
      </trkpt>
      <trkpt lat="46.49432" lon="5.37657">
        <ele>263.4</ele>
        <time>2022-07-11T14:41:35Z</time>
      </trkpt>
      <trkpt lat="46.49428" lon="5.37661">
        <ele>263.6</ele>
        <time>2022-07-11T14:41:36Z</time>
      </trkpt>
      <trkpt lat="46.49426" lon="5.37665">
        <ele>264</ele>
        <time>2022-07-11T14:41:37Z</time>
      </trkpt>
      <trkpt lat="46.49415" lon="5.37679">
        <ele>264.6</ele>
        <time>2022-07-11T14:41:40Z</time>
      </trkpt>
      <trkpt lat="46.49412" lon="5.37684">
        <ele>265.2</ele>
        <time>2022-07-11T14:41:41Z</time>
      </trkpt>
      <trkpt lat="46.49401" lon="5.37707">
        <ele>266.4</ele>
        <time>2022-07-11T14:41:45Z</time>
      </trkpt>
      <trkpt lat="46.49396" lon="5.37718">
        <ele>266.8</ele>
        <time>2022-07-11T14:41:47Z</time>
      </trkpt>
      <trkpt lat="46.49389" lon="5.37736">
        <ele>267.8</ele>
        <time>2022-07-11T14:41:50Z</time>
      </trkpt>
      <trkpt lat="46.49382" lon="5.37756">
        <ele>268.8</ele>
        <time>2022-07-11T14:41:53Z</time>
      </trkpt>
      <trkpt lat="46.49372" lon="5.3779">
        <ele>269.8</ele>
        <time>2022-07-11T14:41:58Z</time>
      </trkpt>
      <trkpt lat="46.49354" lon="5.37841">
        <ele>270.6</ele>
        <time>2022-07-11T14:42:05Z</time>
      </trkpt>
      <trkpt lat="46.49338" lon="5.37896">
        <ele>270.8</ele>
        <time>2022-07-11T14:42:11Z</time>
      </trkpt>
      <trkpt lat="46.49326" lon="5.3796">
        <ele>270.6</ele>
        <time>2022-07-11T14:42:17Z</time>
      </trkpt>
      <trkpt lat="46.49312" lon="5.38027">
        <ele>269.8</ele>
        <time>2022-07-11T14:42:23Z</time>
      </trkpt>
      <trkpt lat="46.49301" lon="5.38085">
        <ele>269.8</ele>
        <time>2022-07-11T14:42:29Z</time>
      </trkpt>
      <trkpt lat="46.49291" lon="5.38146">
        <ele>270.8</ele>
        <time>2022-07-11T14:42:36Z</time>
      </trkpt>
      <trkpt lat="46.49276" lon="5.38224">
        <ele>272</ele>
        <time>2022-07-11T14:42:45Z</time>
      </trkpt>
      <trkpt lat="46.49265" lon="5.38283">
        <ele>273</ele>
        <time>2022-07-11T14:42:52Z</time>
      </trkpt>
      <trkpt lat="46.49261" lon="5.38308">
        <ele>273.4</ele>
        <time>2022-07-11T14:42:55Z</time>
      </trkpt>
      <trkpt lat="46.49256" lon="5.38324">
        <ele>273.8</ele>
        <time>2022-07-11T14:42:57Z</time>
      </trkpt>
      <trkpt lat="46.49252" lon="5.38331">
        <ele>274.2</ele>
        <time>2022-07-11T14:42:58Z</time>
      </trkpt>
      <trkpt lat="46.49247" lon="5.38336">
        <ele>274.4</ele>
        <time>2022-07-11T14:42:59Z</time>
      </trkpt>
      <trkpt lat="46.49236" lon="5.38337">
        <ele>274.8</ele>
        <time>2022-07-11T14:43:01Z</time>
      </trkpt>
      <trkpt lat="46.4921" lon="5.38323">
        <ele>275</ele>
        <time>2022-07-11T14:43:05Z</time>
      </trkpt>
      <trkpt lat="46.49155" lon="5.383">
        <ele>274.6</ele>
        <time>2022-07-11T14:43:12Z</time>
      </trkpt>
      <trkpt lat="46.49107" lon="5.38285">
        <ele>273.6</ele>
        <time>2022-07-11T14:43:18Z</time>
      </trkpt>
      <trkpt lat="46.49101" lon="5.38281">
        <ele>273.2</ele>
        <time>2022-07-11T14:43:19Z</time>
      </trkpt>
      <trkpt lat="46.49094" lon="5.38272">
        <ele>272.8</ele>
        <time>2022-07-11T14:43:20Z</time>
      </trkpt>
      <trkpt lat="46.4909" lon="5.38264">
        <ele>272.8</ele>
        <time>2022-07-11T14:43:21Z</time>
      </trkpt>
      <trkpt lat="46.49086" lon="5.38254">
        <ele>272.6</ele>
        <time>2022-07-11T14:43:22Z</time>
      </trkpt>
      <trkpt lat="46.49076" lon="5.38217">
        <ele>272.2</ele>
        <time>2022-07-11T14:43:25Z</time>
      </trkpt>
      <trkpt lat="46.49072" lon="5.38205">
        <ele>271.6</ele>
        <time>2022-07-11T14:43:26Z</time>
      </trkpt>
      <trkpt lat="46.49052" lon="5.38141">
        <ele>270.6</ele>
        <time>2022-07-11T14:43:31Z</time>
      </trkpt>
      <trkpt lat="46.49048" lon="5.38128">
        <ele>270.6</ele>
        <time>2022-07-11T14:43:32Z</time>
      </trkpt>
      <trkpt lat="46.49034" lon="5.38088">
        <ele>269.4</ele>
        <time>2022-07-11T14:43:35Z</time>
      </trkpt>
      <trkpt lat="46.49016" lon="5.38029">
        <ele>268</ele>
        <time>2022-07-11T14:43:39Z</time>
      </trkpt>
      <trkpt lat="46.48991" lon="5.37944">
        <ele>266.6</ele>
        <time>2022-07-11T14:43:45Z</time>
      </trkpt>
      <trkpt lat="46.48983" lon="5.37916">
        <ele>266</ele>
        <time>2022-07-11T14:43:47Z</time>
      </trkpt>
      <trkpt lat="46.48979" lon="5.37902">
        <ele>265.6</ele>
        <time>2022-07-11T14:43:48Z</time>
      </trkpt>
      <trkpt lat="46.48964" lon="5.37851">
        <ele>264.2</ele>
        <time>2022-07-11T14:43:52Z</time>
      </trkpt>
      <trkpt lat="46.48948" lon="5.37798">
        <ele>263.4</ele>
        <time>2022-07-11T14:43:56Z</time>
      </trkpt>
      <trkpt lat="46.48944" lon="5.37785">
        <ele>263.2</ele>
        <time>2022-07-11T14:43:57Z</time>
      </trkpt>
      <trkpt lat="46.48922" lon="5.37712">
        <ele>262.6</ele>
        <time>2022-07-11T14:44:03Z</time>
      </trkpt>
      <trkpt lat="46.48912" lon="5.3768">
        <ele>262.4</ele>
        <time>2022-07-11T14:44:06Z</time>
      </trkpt>
      <trkpt lat="46.48904" lon="5.37651">
        <ele>262</ele>
        <time>2022-07-11T14:44:09Z</time>
      </trkpt>
      <trkpt lat="46.48898" lon="5.37634">
        <ele>262.2</ele>
        <time>2022-07-11T14:44:11Z</time>
      </trkpt>
      <trkpt lat="46.4889" lon="5.37625">
        <ele>262.2</ele>
        <time>2022-07-11T14:44:13Z</time>
      </trkpt>
      <trkpt lat="46.48879" lon="5.37622">
        <ele>262.4</ele>
        <time>2022-07-11T14:44:15Z</time>
      </trkpt>
      <trkpt lat="46.48873" lon="5.37623">
        <ele>262.6</ele>
        <time>2022-07-11T14:44:16Z</time>
      </trkpt>
      <trkpt lat="46.48868" lon="5.37622">
        <ele>262.6</ele>
        <time>2022-07-11T14:44:17Z</time>
      </trkpt>
      <trkpt lat="46.48861" lon="5.37614">
        <ele>262.6</ele>
        <time>2022-07-11T14:44:19Z</time>
      </trkpt>
      <trkpt lat="46.48855" lon="5.37586">
        <ele>263</ele>
        <time>2022-07-11T14:44:23Z</time>
      </trkpt>
      <trkpt lat="46.48848" lon="5.37564">
        <ele>263.4</ele>
        <time>2022-07-11T14:44:26Z</time>
      </trkpt>
      <trkpt lat="46.48846" lon="5.37556">
        <ele>263.8</ele>
        <time>2022-07-11T14:44:27Z</time>
      </trkpt>
      <trkpt lat="46.48839" lon="5.37541">
        <ele>264.4</ele>
        <time>2022-07-11T14:44:29Z</time>
      </trkpt>
      <trkpt lat="46.48831" lon="5.37526">
        <ele>265</ele>
        <time>2022-07-11T14:44:31Z</time>
      </trkpt>
      <trkpt lat="46.48819" lon="5.37507">
        <ele>265.4</ele>
        <time>2022-07-11T14:44:34Z</time>
      </trkpt>
      <trkpt lat="46.48815" lon="5.37501">
        <ele>265.8</ele>
        <time>2022-07-11T14:44:35Z</time>
      </trkpt>
      <trkpt lat="46.48797" lon="5.37475">
        <ele>267.2</ele>
        <time>2022-07-11T14:44:39Z</time>
      </trkpt>
      <trkpt lat="46.48772" lon="5.37443">
        <ele>267.8</ele>
        <time>2022-07-11T14:44:44Z</time>
      </trkpt>
      <trkpt lat="46.48746" lon="5.37404">
        <ele>267.8</ele>
        <time>2022-07-11T14:44:49Z</time>
      </trkpt>
      <trkpt lat="46.48719" lon="5.37362">
        <ele>267.2</ele>
        <time>2022-07-11T14:44:54Z</time>
      </trkpt>
      <trkpt lat="46.48708" lon="5.37348">
        <ele>266.8</ele>
        <time>2022-07-11T14:44:56Z</time>
      </trkpt>
      <trkpt lat="46.48685" lon="5.37316">
        <ele>266</ele>
        <time>2022-07-11T14:45:00Z</time>
      </trkpt>
      <trkpt lat="46.48667" lon="5.37292">
        <ele>265.6</ele>
        <time>2022-07-11T14:45:03Z</time>
      </trkpt>
    </trkseg>
  </trk>
</gpx>